[[{"header":{"parameterUnit":"m.s-1","parameterCategory":1,"la1":30.6,"la2":29.2853,"lo1":-89.7004,"lo2":-87.6739,"dy":0.0162,"dx":0.0183,"nx":112,"ny":82,"refTime":"2025-01-20T06:00:00:Z","depth":0,"parameterNumber":2,"parameterNumberName":"U-component_of_WINDS"},"data":[0.0,0.0,0.0,0.0,0.0,0.0,0.0,0.0,0.0,0.0,0.0,0.0,0.0,0.0,0.0,0.0,0.0,0.0,0.0,0.0,0.0,0.0,0.0,0.0,0.0,0.0,0.0,0.0,0.0,0.0,0.0,0.0,0.0,0.0,0.0,0.0,0.0,0.0,0.0,0.0,0.0,0.0,0.0,0.0,0.0,0.0,0.0,0.0,0.0,0.0,0.0,0.0,0.0,0.0,0.0,0.0,0.0,0.0,0.0,0.0,0.0,0.0,0.0,0.0,0.0,0.0,0.0,0.0,0.0,0.0,0.0,0.0,0.0,0.0,0.0,0.0,0.0,0.0,0.0,0.0,0.0,0.0,0.0,0.0,0.0,0.0,0.0,0.0,0.0,0.0,0.0,0.6469,0.7128,0.7655,0.7875,0.7901,0.759,0.6838,0.0,0.0,0.0,0.0,0.0,0.0,0.0,0.0,0.0,0.0,0.0,0.0,0.0,0.0,0.0,0.0,0.0,0.0,0.0,0.0,0.0,0.0,0.0,0.0,0.0,0.0,0.0,0.0,0.0,0.0,0.0,0.0,0.0,0.0,0.0,0.0,0.0,0.0,0.0,0.0,0.0,0.0,0.0,0.0,0.0,0.0,0.0,0.0,0.0,0.0,0.0,0.0,0.0,0.0,0.0,0.0,0.0,0.0,0.0,0.0,0.0,0.0,0.0,0.0,0.0,0.0,0.0,0.0,0.0,0.0,0.0,0.0,0.0,0.0,0.0,0.0,0.0,0.0,0.0,0.0,0.0,0.0,0.0,0.0,0.0,0.0,0.0,0.0,0.0,0.0,0.0,0.0,0.0,0.0,0.0,0.0,0.0,0.0,0.0,0.0,0.0,0.0,0.0,0.0,0.5836,0.6881,0.7502,0.7848,0.7901,0.7901,0.759,0.6838,0.0,0.0,0.0,0.0,0.0,0.0,0.0,0.0,0.0,0.0,0.0,0.0,0.0,0.0,0.0,0.0,0.0,0.0,0.0,0.0,0.0,0.0,0.0,0.0,0.0,0.0,0.0,0.0,0.0,0.0,0.0,0.0,0.0,0.0,0.0,0.0,0.0,0.0,0.0,0.0,0.0,0.0,0.0,0.0,0.0,0.0,0.0,0.0,0.0,0.0,0.0,0.0,0.0,0.0,0.0,0.0,0.0,0.0,0.0,0.0,0.0,0.0,0.0,0.0,0.0,0.0,0.0,0.0,0.0,0.0,0.0,0.0,0.0,0.0,0.0,0.0,0.0,0.0,0.0,0.0,0.0,0.0,0.0,0.0,0.0,0.0,0.0,0.0,0.0,0.0,0.0,0.0,0.0,0.0,0.0,0.0,0.0,0.0,0.0,0.0,0.0,0.0,0.0,0.6395,0.6778,0.74,0.7858,0.8051,0.7913,0.7901,0.7648,0.7062,0.6635,0.0,0.0,0.0,0.0,0.0,0.0,0.0,0.0,0.0,0.0,0.0,0.0,0.0,0.0,0.0,0.0,0.0,0.0,0.0,0.0,0.0,0.0,0.0,0.0,0.0,0.0,0.0,0.0,0.0,0.0,0.0,0.0,0.0,0.0,0.0,0.0,0.0,0.0,0.0,0.0,0.0,0.0,0.0,0.0,0.0,0.0,0.0,0.0,0.0,0.0,0.0,0.0,0.0,0.0,0.0,0.0,0.0,0.0,0.0,0.0,0.0,0.0,0.0,0.0,0.0,0.0,0.0,0.0,0.0,0.0,0.0,0.0,0.0,0.0,0.0,0.0,0.0,0.0,0.0,0.0,0.0,0.0,0.0,0.0,0.0,0.0,0.0,0.0,0.0,0.0,0.0,0.0,0.0,0.0,0.0,0.0,0.0,0.0,0.0,0.0,0.0,0.0,0.7256,0.762,0.7784,0.8039,0.8124,0.8009,0.7904,0.7659,0.723,0.6647,0.0,0.0,0.0,0.0,0.0,0.0,0.0,0.0,0.0,0.0,0.0,0.0,0.0,0.0,0.0,0.0,0.0,0.0,0.0,0.0,0.0,0.0,0.0,0.0,0.0,0.0,0.0,0.0,0.0,0.0,0.0,0.0,0.0,0.0,0.0,0.0,0.0,0.0,0.0,0.0,0.0,0.0,0.0,0.0,0.0,0.0,0.0,0.0,0.0,0.0,0.0,0.0,0.0,0.0,0.0,0.0,0.0,0.0,0.0,0.0,0.0,0.0,0.0,0.0,0.0,0.0,0.0,0.0,0.0,0.0,0.0,0.0,0.0,0.0,0.0,0.0,0.0,0.0,0.0,0.0,0.0,0.0,0.0,0.0,0.0,0.0,0.0,0.0,0.0,0.0,0.0,0.0,0.0,0.0,0.0,0.0,0.0,0.0,0.0,0.0,0.0,0.0,0.6834,0.7528,0.7776,0.7828,0.7959,0.8239,0.7858,0.7504,0.7218,0.6459,0.0,0.0,0.0,0.0,0.0,0.0,0.0,0.0,0.0,0.0,0.0,0.0,0.0,0.0,0.0,0.0,0.0,0.0,0.0,0.0,0.0,0.0,0.0,0.0,0.0,0.0,0.0,0.0,0.0,0.0,0.0,0.0,0.0,0.0,0.0,0.0,0.0,0.0,0.0,0.0,0.0,0.0,0.0,0.0,0.0,0.0,0.0,0.0,0.0,0.0,0.0,0.0,0.0,0.0,0.0,0.0,0.0,0.0,0.0,0.0,0.0,0.0,0.0,0.0,0.0,0.0,0.0,0.0,0.0,0.0,0.0,0.0,0.0,0.0,0.0,0.0,0.0,0.0,0.0,0.0,0.0,0.0,0.0,0.0,0.0,0.0,0.0,0.0,0.0,0.0,0.0,0.0,0.0,0.0,0.0,0.0,0.0,0.0,0.0,0.0,0.0,0.0,0.6977,0.761,0.0,0.8056,0.8205,0.7999,0.8023,0.7792,0.7243,0.0,0.0,0.0,0.0,0.0,0.0,0.0,0.0,0.0,0.0,0.0,0.0,0.0,0.0,0.0,0.0,0.0,0.0,0.0,0.0,0.0,0.0,0.0,0.0,0.0,0.0,0.0,0.0,0.0,0.0,0.0,0.0,0.0,0.0,0.0,0.0,0.0,0.0,0.0,0.0,0.0,0.0,0.0,0.0,0.0,0.0,0.0,0.0,0.0,0.0,0.0,0.0,0.0,0.0,0.0,0.0,0.0,0.0,0.0,0.0,0.0,0.0,0.0,0.0,0.0,0.0,0.0,0.0,0.0,0.0,0.0,0.0,0.0,0.0,0.0,0.0,0.0,0.0,0.0,0.0,0.0,0.0,0.0,0.0,0.0,0.0,0.0,0.0,0.0,0.0,0.0,0.0,0.0,0.0,0.0,0.0,0.0,0.0,0.0,0.0,0.0,0.0,0.6157,0.6997,0.7604,0.0,0.8074,0.8202,0.796,0.7975,0.778,0.7249,0.0,0.0,0.0,0.0,0.0,0.0,0.0,0.0,0.0,0.0,0.0,0.0,0.0,0.0,0.0,0.0,0.0,0.0,0.0,0.0,0.0,0.0,0.0,0.0,0.0,0.0,0.0,0.0,0.0,0.0,0.0,0.0,0.0,0.0,0.0,0.0,0.0,0.0,0.0,0.0,0.0,0.0,0.0,0.0,0.0,0.0,0.0,0.0,0.0,0.0,0.0,0.0,0.0,0.0,0.0,0.0,0.0,0.0,0.0,0.0,0.0,0.0,0.0,0.0,0.0,0.0,0.0,0.0,0.0,0.0,0.0,0.0,0.0,0.0,0.0,0.0,0.0,0.0,0.0,0.0,0.0,0.0,0.0,0.0,0.0,0.0,0.0,0.0,0.0,0.0,0.0,0.0,0.0,0.0,0.0,0.0,0.0,0.0,0.0,0.0,0.0,0.0,0.6153,0.6776,0.7397,0.7929,0.7758,0.7757,0.8149,0.77,0.733,0.0,0.0,0.0,0.0,0.0,0.0,0.0,0.0,0.0,0.0,0.0,0.0,0.0,0.0,0.0,0.0,0.0,0.0,0.0,0.0,0.0,0.0,0.0,0.0,0.0,0.0,0.0,0.0,0.0,0.0,0.0,0.0,0.0,0.0,0.0,0.0,0.0,0.0,0.0,0.0,0.0,0.0,0.0,0.0,0.0,0.0,0.0,0.0,0.0,0.0,0.0,0.0,0.0,0.0,0.0,0.0,0.0,0.0,0.0,0.0,0.0,0.0,0.0,0.0,0.0,0.0,0.0,0.0,0.0,0.0,0.0,0.0,0.0,0.0,0.0,0.0,0.0,0.0,0.0,0.0,0.0,0.0,0.0,0.0,0.0,0.0,0.0,0.0,0.0,0.0,0.0,0.0,0.0,0.0,0.0,0.0,0.0,0.0,0.0,0.0,0.0,0.0,0.0,0.0,0.6899,0.733,0.7097,0.7214,0.7324,0.729,0.7359,0.7335,0.7212,0.0,0.0,0.0,0.0,0.0,0.0,0.0,0.0,0.0,0.0,0.0,0.0,0.0,0.0,0.0,0.0,0.0,0.0,0.0,0.0,0.0,0.0,0.0,0.0,0.0,0.0,0.0,0.0,0.0,0.0,0.0,0.0,0.0,0.0,0.0,0.0,0.0,0.0,0.0,0.0,0.0,0.0,0.0,0.0,0.0,0.0,0.0,0.0,0.0,0.0,0.0,0.0,0.0,0.0,0.0,0.0,0.0,0.0,0.0,0.0,0.0,0.0,0.0,0.0,0.0,0.0,0.0,0.0,0.0,0.0,0.0,0.0,0.0,0.0,0.0,0.0,0.0,0.0,0.0,0.0,0.0,0.0,0.0,0.0,0.0,0.0,0.0,0.0,0.0,0.0,0.0,0.0,0.0,0.0,0.0,0.0,0.0,0.0,0.0,0.0,0.0,0.0,0.5651,0.6367,0.6741,0.6412,0.6544,0.6619,0.6474,0.6917,0.7066,0.6775,0.0,0.0,0.0,0.0,0.0,0.0,0.0,0.0,0.0,0.0,0.0,0.0,0.0,0.0,0.0,0.0,0.0,0.0,0.0,0.0,0.0,0.0,0.0,0.0,0.0,0.0,0.0,0.0,0.0,0.0,0.0,0.0,0.0,0.0,0.0,0.0,0.0,0.0,0.0,0.0,0.0,0.0,0.0,0.0,0.0,0.0,0.0,0.0,0.0,0.0,0.0,0.0,0.0,0.0,0.0,0.0,0.0,0.0,0.0,0.0,0.0,0.0,0.0,0.0,0.0,0.0,0.0,0.0,0.0,0.0,0.0,0.0,0.0,0.0,0.0,0.0,0.0,0.0,0.0,0.0,0.0,0.0,0.0,0.0,0.0,0.0,0.0,0.0,0.0,0.0,0.0,0.0,0.0,0.0,0.0,0.0,0.0,0.0,0.0,0.0,0.0,0.0,0.4878,0.5478,0.5888,0.5822,0.5822,0.579,0.5734,0.6357,0.6582,0.6171,0.0,0.0,0.0,0.0,0.0,0.0,0.0,0.0,0.0,0.0,0.0,0.0,0.0,0.0,0.0,0.0,0.0,0.0,0.0,0.0,0.0,0.0,0.0,0.0,0.0,0.0,0.0,0.0,0.0,0.0,0.0,0.0,0.0,0.0,0.0,0.0,0.0,0.0,0.0,0.0,0.0,0.0,0.0,0.0,0.0,0.0,0.0,0.0,0.0,0.0,0.0,0.0,0.0,0.0,0.0,0.0,0.0,0.0,0.0,0.0,0.1707,0.0,0.0,0.0,0.0,0.0,0.0,0.0,0.0,0.0,0.0,0.0,0.0,0.0,0.0,0.0,0.0,0.0,0.0,0.0,0.0,0.0,0.0,0.0,0.0,0.0,0.0,0.0,0.0,0.0,0.0,0.0,0.0,0.0,0.0,0.0,0.0,0.0,0.0,0.0,0.0,0.0,0.4878,0.5478,0.5723,0.5322,0.5256,0.5277,0.5339,0.5517,0.5881,0.6456,0.0,0.0,0.0,0.0,0.0,0.0,0.0,0.0,0.0,0.0,0.0,0.0,0.0,0.0,0.0,0.0,0.0,0.0,0.0,0.0,0.0,0.0,0.0,0.0,0.0,0.0,0.0,0.0,0.0,0.0,0.0,0.0,0.0,0.0,0.0,0.0,0.0,0.0,0.0,0.0,0.0,0.0,0.0,0.0,0.0,0.0,0.0,0.0,0.0,0.0,0.0,0.0,0.0,0.0,0.0,0.0,0.0,0.0,0.0,0.0,0.0,0.1922,0.0,0.0,0.0,0.0,0.0,0.0,0.0,0.0,0.0,0.0,0.0,0.0,0.0,0.0,0.0,0.0,0.0,0.0,0.0,0.0,0.0,0.0,0.0,0.0,0.0,0.0,0.0,0.0,0.0,0.0,0.0,0.0,0.0,0.0,0.0,0.0,0.0,0.0,0.0,0.0,0.4388,0.4826,0.5052,0.4845,0.4764,0.4704,0.4661,0.5116,0.5475,0.5686,0.601,0.0,0.0,0.0,0.0,0.0,0.0,0.0,0.0,0.0,0.0,0.0,0.0,0.0,0.0,0.0,0.0,0.0,0.0,0.0,0.0,0.0,0.0,0.0,0.0,0.0,0.0,0.0,0.0,0.0,0.0,0.0,0.0,0.0,0.0,0.0,0.0,0.0,0.0,0.0,0.0,0.0,0.0,0.0,0.0,0.0,0.0,0.0,0.0,0.0,0.0,0.0,0.0,0.0,0.0,0.0,0.1684,0.1684,0.1801,0.1969,0.2241,0.2168,0.1832,0.0,0.0,0.0,0.0,0.0,0.0,0.0,0.0,0.0,0.0,0.0,0.0,0.0,0.0,0.0,0.0,0.0,0.0,0.0,0.0,0.0,0.0,0.0,0.0,0.0,0.4604,0.4648,0.0,0.0,0.0,0.0,0.0,0.0,0.0,0.0,0.0,0.0,0.0,0.0,0.3905,0.4197,0.439,0.4498,0.4387,0.4281,0.4159,0.4861,0.5153,0.4848,0.5699,0.6177,0.0,0.0,0.0,0.0,0.0,0.0,0.0,0.0,0.0,0.0,0.0,0.0,0.0,0.0,0.0,0.0,0.0,0.0,0.0,0.0,0.0,0.0,0.0,0.0,0.0,0.0,0.0,0.0,0.0,0.0,0.0,0.0,0.0146,0.0276,0.0,0.0,0.0,0.0,0.0,0.0,0.0,0.0,0.0,0.0,0.0,0.0,0.0,0.0,0.0304,0.0353,0.0394,0.0394,0.0481,0.0756,0.1283,0.1283,0.1604,0.2161,0.2214,0.0,0.1894,0.1856,0.0,0.0,0.0,0.0,0.0,0.0,0.0,0.0,0.0,0.0,0.0,0.0,0.0,0.0,0.0,0.0,0.0,0.0,0.0,0.0,0.0,0.0,0.4123,0.403,0.4022,0.4019,0.0,0.3971,0.3819,0.3326,0.0,0.0,0.0,0.0,0.0,0.0,0.0,0.0,0.4064,0.4393,0.4608,0.4514,0.4492,0.4435,0.4287,0.4375,0.4728,0.5351,0.5228,0.5599,0.6717,0.6211,0.0,0.0,0.0,0.0,0.0,0.0,0.0,0.0,0.0,0.0,0.0,0.0,0.0,0.0,0.0,0.0,0.0,0.0,0.0,0.0,0.0,0.0,0.0,0.0,0.0,0.0,0.0,0.0,0.0,0.0,0.0092,-0.0285,-0.0262,-0.0212,0.0,0.0,0.0,0.0,0.0,0.0,0.0,0.0,0.0,-0.0463,-0.0232,-0.0089,-0.0125,0.0163,0.0299,0.0299,0.0346,0.0493,0.0739,0.0739,0.0921,0.1218,0.1577,0.171,0.1627,0.1874,0.194,0.1846,0.0,0.0,0.0,0.0,0.0,0.0,0.2003,0.0,0.0,0.0,0.0,0.0,0.0,0.0,0.0,0.0,0.0,0.0,0.0,0.0,0.0,0.3965,0.417,0.4338,0.4338,0.4288,0.4085,0.0,0.3506,0.3401,0.305,0.0,0.0,0.0,0.0,0.0,0.4413,0.4591,0.4695,0.4673,0.455,0.4484,0.4432,0.4453,0.4579,0.482,0.5162,0.5697,0.6467,0.6477,0.653,0.0,0.0,0.0,0.0,0.0,0.0,0.0,0.0,0.0,0.0,0.0,0.0,0.0,0.0,0.0,0.0,0.0,0.0,0.0,0.0,0.0,0.0,0.0,0.0,0.0,0.0,0.0,0.0,-0.0273,0.0,-0.0728,-0.0739,-0.0687,0.0,0.0,0.0,0.0,0.0,0.0,-0.093,-0.0939,-0.0967,-0.102,-0.0703,-0.0523,-0.0618,-0.0212,0.0,0.0,-0.0037,0.0037,0.0223,0.0223,0.0297,0.0483,0.0966,0.1189,0.1257,0.1876,0.2083,0.2031,0.1929,0.1888,0.0,0.2004,0.2042,0.2064,0.2181,0.2228,0.2206,0.2177,0.0,0.2034,0.1944,0.0,0.0,0.0,0.0,0.2094,0.2484,0.0,0.3372,0.3693,0.4073,0.4434,0.4651,0.4616,0.4435,0.0,0.3985,0.3876,0.3487,0.0,0.0,0.0,0.0,0.4327,0.4692,0.4764,0.4768,0.479,0.4673,0.4572,0.4509,0.456,0.4522,0.4399,0.4996,0.5558,0.6011,0.6477,0.6834,0.0,0.0,0.0,0.0,0.0,0.0,0.0,0.0,0.0,0.0,0.0,0.0,0.0,0.0,0.0,0.0,0.0,0.0,0.0,0.0,0.0,0.0,0.0,0.0,0.0,0.0,0.0,0.0,0.0,0.0,-0.0808,-0.0855,0.0,0.0,0.0,0.0,-0.0903,-0.0964,-0.0994,-0.0993,-0.1052,-0.1081,-0.1078,-0.108,-0.1094,-0.1161,-0.1117,-0.1132,-0.1132,-0.1199,-0.09,-0.0274,-0.0274,0.0039,0.0587,0.0626,0.0626,0.074,0.1769,0.2198,0.219,0.2195,0.217,0.2177,0.2173,0.2196,0.2205,0.2272,0.2255,0.2213,0.2268,0.2241,0.2177,0.2171,0.1702,0.0,0.0,0.1302,0.1045,0.1324,0.1636,0.2104,0.2942,0.3306,0.3706,0.4506,0.4684,0.4638,0.0,0.4352,0.4238,0.4096,0.0,0.0,0.4246,0.0,0.4542,0.4755,0.489,0.4917,0.4806,0.4785,0.4722,0.4525,0.4498,0.4512,0.4592,0.444,0.4715,0.5514,0.5977,0.637,0.6612,0.6726,0.0,0.0,0.0,0.0,0.0,0.0,0.0,0.0,0.0,0.0,0.0,0.0,0.0,0.0,0.0,0.0,0.0,0.0,0.0,0.0,0.0,0.0,0.0,0.0,0.0,0.0,0.0,0.0,-0.092,-0.106,0.0,0.0,-0.1699,-0.2147,-0.2016,-0.2668,-0.3078,-0.3126,-0.2777,-0.2452,-0.222,-0.1809,-0.15,-0.1283,-0.1253,-0.1259,-0.1259,-0.1269,-0.1192,-0.0945,-0.0945,-0.0822,-0.0616,-0.0205,-0.0041,0.0,0.0798,0.1346,0.1729,0.1719,0.1914,0.2211,0.1821,0.1697,0.1627,0.1319,0.1155,0.1091,0.1102,0.1043,0.1027,0.1027,0.0845,0.0666,0.0856,0.0763,0.0666,0.0826,0.1252,0.1756,0.206,0.2478,0.2898,0.3201,0.3279,0.3421,0.3955,0.4331,0.4501,0.427,0.436,0.4484,0.4449,0.4577,0.4765,0.4893,0.4952,0.4999,0.4917,0.4841,0.476,0.4713,0.4558,0.4522,0.4546,0.4498,0.4744,0.5283,0.5502,0.6001,0.6827,0.67,0.6571,0.0,0.0,0.0,0.0,0.0,0.0,0.0,0.0,0.0,0.0,0.0,0.0,0.0,0.0,0.0,0.0,0.0,0.0,0.0,0.0,0.0,0.0,0.0,0.0,0.0,0.0,-0.1018,-0.1216,-0.1561,-0.1702,-0.1559,-0.2689,-0.34,-0.3283,-0.3986,-0.4456,-0.449,-0.4118,-0.3797,-0.3517,-0.3124,-0.2766,-0.2436,-0.206,-0.1892,-0.1809,-0.1474,-0.1305,-0.1305,-0.1305,-0.1305,-0.1263,-0.0883,-0.0715,-0.0673,-0.0252,0.0287,0.0862,0.1042,0.1341,0.1655,0.123,0.1084,0.1046,0.0694,0.0529,0.048,0.0465,0.0421,0.0421,0.0421,0.0306,0.0154,0.0195,0.0039,-0.0079,-0.004,0.0321,0.0803,0.1043,0.1564,0.2044,0.2324,0.2444,0.2684,0.3244,0.3932,0.4426,0.4534,0.4673,0.4786,0.4667,0.4792,0.4887,0.5007,0.5018,0.5018,0.5018,0.4906,0.4841,0.4801,0.4648,0.4547,0.4506,0.4456,0.4552,0.481,0.5053,0.5512,0.6283,0.6223,0.6247,0.6354,0.0,0.0,0.0,0.0,0.0,0.0,0.0,0.0,0.0,0.0,0.0,0.0,0.0,0.0,0.0,0.0,0.0,0.0,0.0,0.0,0.0,0.0,0.0,-0.1796,-0.1339,-0.1263,-0.1717,-0.2375,-0.274,-0.2676,-0.3818,-0.4607,-0.4639,-0.4872,-0.4981,-0.5007,-0.4973,-0.4934,-0.4936,-0.4895,-0.4772,-0.4532,-0.3524,-0.294,-0.2734,-0.177,-0.1309,-0.1309,-0.1309,-0.1309,-0.1309,-0.1309,-0.1309,-0.1309,-0.1309,-0.097,-0.0379,0.0252,0.0504,0.0504,0.0462,0.0462,0.042,0.042,0.0462,0.0462,0.0462,0.0462,0.0462,0.0462,0.0042,-0.042,-0.042,-0.0841,-0.1305,-0.1305,-0.1137,-0.08,-0.0042,0.0504,0.1092,0.1845,0.2223,0.2434,0.2475,0.3155,0.396,0.4789,0.4909,0.4948,0.4948,0.4945,0.0,0.4984,0.5021,0.5018,0.5018,0.5018,0.493,0.4812,0.4724,0.4638,0.4512,0.4249,0.4086,0.4086,0.4606,0.4886,0.4912,0.5371,0.5594,0.5522,0.0,0.0,0.0,0.0,0.0,0.0,0.0,0.0,0.0,0.0,0.0,0.0,0.0,0.0,0.0,0.0,0.0,0.0,0.0,0.0,0.0,0.0,-0.3791,-0.3319,-0.3162,-0.322,-0.356,-0.3867,-0.4074,-0.4045,-0.5182,-0.5944,-0.5981,-0.6716,-0.7133,-0.7136,-0.6726,-0.6107,-0.531,-0.4502,-0.3721,-0.2863,-0.2201,-0.185,-0.1762,-0.1499,-0.1367,-0.1367,-0.1367,-0.1367,-0.1367,-0.1367,-0.1367,-0.1367,-0.1367,-0.1279,-0.1054,-0.0425,0.0126,0.0463,0.0,-0.0473,-0.0861,-0.0861,-0.0852,-0.0799,-0.0799,-0.0799,-0.0799,-0.0799,-0.0926,-0.1052,-0.1052,-0.1179,-0.1305,-0.1305,-0.1137,-0.0927,-0.0716,-0.0337,0.0,0.0252,0.0505,0.0883,0.1512,0.1828,0.2224,0.3047,0.3171,0.3417,0.4117,0.0,0.0,0.506,0.5067,0.5018,0.5018,0.5018,0.5004,0.493,0.481,0.0,0.0,0.4249,0.4086,0.4086,0.415,0.4406,0.4883,0.5655,0.5958,0.0,0.0,0.0,0.0,0.0,0.0,0.0,0.0,0.0,0.0,0.0,0.0,0.0,0.0,0.0,0.0,0.0,0.0,0.0,0.0,0.0,0.0,-0.4958,-0.5176,-0.5372,-0.4701,-0.4326,-0.4737,-0.5142,-0.5411,-0.5403,-0.6523,-0.7241,-0.7241,-0.7862,-0.8243,-0.8243,-0.7909,-0.7435,-0.6743,-0.6132,-0.5468,-0.4734,-0.3887,-0.3484,-0.3484,-0.2508,-0.2061,-0.215,-0.1613,-0.1391,0.0,-0.1391,-0.1391,-0.1391,-0.1391,-0.1391,0.0,0.0,0.0,0.0,0.0,-0.1056,-0.1409,-0.1409,-0.1354,-0.1341,-0.1341,-0.1341,-0.1341,-0.1341,-0.1341,-0.1341,-0.1341,-0.1341,-0.1341,-0.1341,-0.1255,-0.1168,-0.1168,-0.0909,-0.0692,-0.0692,-0.0432,0.0,0.0475,0.0,0.0,0.1382,0.2039,0.2684,0.3228,0.3607,0.4028,0.0,0.4919,0.5089,0.5089,0.5045,0.5018,0.5018,0.0,0.0,0.0,0.0,0.0,0.4013,0.0,0.0,0.0,0.0,0.0,0.0,0.0,0.0,0.0,0.6396,0.6534,0.0,0.0,0.0,0.0,0.0,0.0,0.0,0.0,0.0,0.0,0.0,0.0,0.0,0.0,0.0,0.0,-0.6244,-0.6662,-0.7467,-0.6116,-0.5212,-0.5705,-0.6322,-0.6705,-0.6705,-0.7697,-0.8321,-0.8321,-0.8518,-0.8612,0.0,0.0,0.0,0.0,0.0,-0.8252,-0.7929,-0.6817,-0.6236,-0.6236,-0.4111,-0.3133,-0.3173,-0.206,-0.1524,-0.1391,-0.1391,-0.1391,-0.1391,-0.1391,-0.1391,-0.1391,-0.1391,-0.1391,-0.1391,-0.1391,-0.1391,0.0,0.0,0.0,0.0,-0.1391,-0.1391,-0.1391,-0.1391,-0.1391,-0.1391,-0.1391,-0.1391,-0.1391,-0.1391,-0.1391,-0.1391,-0.1391,-0.1256,-0.1121,-0.1121,-0.0762,-0.0448,-0.0403,-0.0224,-0.0045,0.0,0.1217,0.224,0.2368,0.3078,0.0,0.3745,0.4538,0.5044,0.5044,0.0,0.0,0.5037,0.4887,0.4798,0.4698,0.4476,0.4221,0.3973,0.3976,0.4165,0.4584,0.4737,0.5314,0.6277,0.6392,0.6792,0.7499,0.7067,0.7141,0.0,0.0,0.0,0.0,0.0,0.0,0.0,0.0,0.0,0.0,0.0,0.0,0.0,0.0,0.0,-0.6832,-0.7241,-0.7645,-0.8089,-0.7837,-0.7556,-0.7522,-0.7765,-0.7935,-0.7935,-0.8315,-0.8559,-0.8559,-0.8592,-0.8612,-0.8612,-0.8612,0.0,-0.7713,-0.7356,-0.682,-0.6195,-0.5573,-0.5262,-0.5262,0.0,0.0,-0.3173,-0.2776,-0.2152,-0.1391,-0.1391,-0.1391,-0.1391,-0.1391,-0.1391,-0.1391,-0.1391,-0.1391,-0.1391,-0.1391,-0.1391,-0.1391,-0.1391,-0.1391,-0.1391,-0.1391,-0.1391,-0.1391,-0.1391,-0.1391,0.0,-0.1391,-0.1391,-0.1391,-0.1391,-0.1391,-0.1391,-0.1391,-0.1256,-0.1121,-0.1121,-0.0852,-0.0583,-0.0448,-0.0359,-0.0269,-0.0045,0.0268,0.0754,0.1506,0.1701,0.207,0.2845,0.3634,0.4165,0.4165,0.4855,0.526,0.5162,0.5048,0.4887,0.4703,0.4553,0.4451,0.4402,0.4495,0.4538,0.4504,0.4866,0.5185,0.5528,0.5863,0.6534,0.7487,0.7414,0.7495,0.0,0.0,0.0,0.0,0.0,0.0,0.0,0.0,0.0,0.0,0.0,-0.5348,0.0,0.0,-0.6795,-0.7281,-0.7732,-0.8126,-0.8264,-0.8369,-0.8394,-0.83,-0.8373,-0.843,-0.843,-0.8555,-0.8612,-0.8612,-0.8612,-0.8612,-0.8612,-0.8612,-0.8432,-0.8072,-0.7804,-0.7536,-0.7132,-0.6773,-0.6688,-0.6779,-0.5933,-0.5265,-0.4772,-0.4067,-0.34,-0.2819,-0.2374,-0.2152,-0.2107,-0.1614,-0.1391,-0.1392,-0.1452,-0.1448,-0.1391,-0.1391,-0.1391,-0.1391,-0.1391,-0.1391,-0.1391,-0.1391,-0.1391,-0.1391,-0.1391,-0.1391,-0.1391,-0.1391,-0.1391,-0.1391,-0.1391,-0.1391,-0.1391,-0.1391,-0.13,-0.1256,-0.1256,-0.1076,-0.0852,-0.0762,-0.0628,-0.0493,-0.0224,-0.018,0.0,0.0628,0.1067,0.1501,0.1985,0.2767,0.3496,0.3964,0.4389,0.4841,0.5281,0.5118,0.4966,0.4844,0.4698,0.4597,0.4597,0.4657,0.466,0.4599,0.4836,0.5153,0.5585,0.5882,0.6484,0.7368,0.7338,0.7734,0.0,0.0,0.0,0.0,0.0,0.0,0.0,0.0,-0.5088,-0.5371,-0.562,-0.5982,-0.6526,-0.7013,-0.7399,-0.7606,-0.8036,-0.8345,-0.8345,-0.8518,-0.8612,-0.8612,-0.8612,-0.8612,-0.8612,-0.8612,-0.8612,-0.8612,-0.8612,-0.8612,-0.8612,-0.8612,-0.8612,-0.8612,-0.8612,-0.8612,-0.8612,-0.8384,-0.8384,-0.8568,-0.7353,-0.6637,-0.646,-0.5401,-0.4734,-0.4334,-0.3534,-0.3178,-0.309,-0.234,-0.1984,-0.1988,-0.2076,-0.2072,-0.1996,-0.1589,-0.1404,-0.14,-0.1406,-0.1404,-0.14,-0.1406,-0.1408,-0.1408,-0.1408,-0.1408,-0.1407,-0.1401,-0.1399,-0.1397,-0.1392,-0.1391,-0.1391,-0.1391,-0.1391,-0.1391,-0.1391,-0.1256,-0.1166,-0.1121,-0.0942,-0.0718,-0.0493,-0.0448,-0.0359,-0.0045,0.0628,0.1122,0.1122,0.1898,0.2749,0.3491,0.3822,0.4369,0.5323,0.5208,0.5086,0.5086,0.4939,0.4829,0.4829,0.4829,0.4829,0.4829,0.4887,0.5217,0.5789,0.5901,0.6345,0.7103,0.7103,0.7636,-0.6974,-0.631,0.0,-0.5463,-0.5249,-0.5196,0.0,0.0,-0.5908,-0.6412,-0.6538,-0.6755,-0.7265,-0.7588,-0.7849,-0.8146,-0.8433,-0.858,-0.858,-0.86,-0.8612,-0.8612,-0.8612,-0.8612,-0.8612,-0.8612,-0.8612,-0.8612,-0.8612,-0.8612,-0.8612,-0.8612,-0.8612,-0.8612,-0.8612,-0.8612,-0.8612,-0.8564,-0.8564,-0.8612,-0.8204,-0.7573,-0.6732,-0.6372,-0.562,-0.4559,-0.4245,-0.4156,-0.4162,-0.415,-0.4135,-0.4145,-0.4278,-0.4352,-0.4109,-0.2177,-0.1499,-0.148,-0.1506,-0.1498,-0.148,-0.1507,-0.1469,-0.1469,-0.1469,-0.1469,-0.151,-0.1483,-0.1476,-0.147,-0.1397,-0.1391,-0.1391,-0.1391,-0.1391,-0.1391,-0.1391,-0.1391,-0.13,-0.1121,-0.1076,-0.0987,-0.0718,-0.0673,-0.0494,-0.0045,0.009,0.0135,0.0135,0.0985,0.1564,0.1697,0.325,0.4588,0.5411,0.5407,0.5372,0.5372,0.5344,0.5331,0.5331,0.5331,0.5331,0.5331,0.5344,0.5358,0.5452,0.5468,0.5871,0.6678,0.6678,0.6933,-0.8179,0.0,0.0,0.0,-0.6266,-0.6088,-0.6329,-0.6351,-0.6535,-0.7041,-0.7151,-0.7309,-0.7854,-0.8016,-0.8196,0.0,-0.8559,-0.8612,-0.8612,-0.8612,-0.8612,-0.8612,-0.8612,-0.8612,-0.8612,-0.8612,-0.8612,-0.8612,-0.8612,-0.8612,-0.8612,-0.8612,-0.8612,-0.8612,-0.8612,-0.8612,-0.8612,-0.8612,-0.8617,-0.8714,-0.8621,-0.8309,-0.7896,-0.7801,-0.7112,-0.5966,-0.562,-0.5309,-0.4998,-0.472,-0.4691,-0.4837,-0.4793,-0.4781,-0.463,-0.3725,-0.3359,-0.334,-0.3368,-0.3359,-0.334,-0.3368,-0.3377,-0.3377,-0.3377,-0.295,-0.2423,-0.2449,-0.1976,-0.1504,-0.1445,-0.1475,-0.1462,-0.1462,-0.1448,-0.1391,-0.1391,-0.1391,-0.139,-0.13,-0.1256,-0.1211,-0.0987,-0.0942,-0.0807,-0.0449,-0.0314,-0.018,0.0,0.0359,0.0808,0.1345,0.3135,0.4417,0.4775,0.5198,0.5474,0.5474,0.5409,0.541,0.541,0.5436,0.5442,0.5413,0.5439,0.5474,0.5474,0.5474,0.5666,0.6092,0.6092,0.615,-0.9042,0.0,0.0,-0.7942,-0.7667,-0.7511,-0.7619,-0.7717,-0.783,-0.8065,-0.8094,-0.8159,-0.8369,-0.8365,0.0,-0.8592,-0.8612,-0.8612,-0.8612,-0.8612,-0.8612,-0.8612,-0.8612,-0.8612,-0.8612,-0.8612,-0.8612,-0.8612,-0.8612,-0.8612,-0.8612,-0.8612,-0.8612,-0.8612,-0.8612,-0.8637,-0.8637,-0.8637,-0.8723,-0.8897,-0.8897,-0.887,-0.8804,-0.8757,-0.8239,-0.7436,-0.7052,-0.6641,-0.6255,-0.5823,-0.5791,-0.5942,-0.5764,-0.566,-0.5701,-0.5625,-0.5243,-0.4745,-0.4722,-0.4714,-0.4745,-0.4722,-0.4731,-0.4731,-0.4731,-0.4199,-0.3569,-0.355,-0.3019,-0.2349,-0.2004,-0.1932,-0.1865,-0.1586,-0.147,-0.1448,-0.1448,-0.1396,-0.1391,-0.1391,-0.1391,-0.1345,-0.1211,-0.1166,-0.1076,-0.0852,-0.0673,-0.0493,-0.0135,-0.0045,0.0359,0.1301,0.2911,0.403,0.43,0.5078,0.5559,0.5559,0.5518,0.5469,0.5469,0.551,0.5516,0.5472,0.5513,0.5559,0.5559,0.5559,0.5602,0.5688,0.5688,0.5688,0.0,0.0,-0.8919,-0.948,-0.9532,-0.9528,-0.9972,-1.0231,-1.0234,-0.9719,-0.9643,-0.9418,-0.8738,-0.8604,-0.8604,-0.8612,-0.8612,-0.8612,-0.8612,-0.8612,-0.8612,-0.8612,-0.8612,-0.8612,0.0,-0.8612,-0.8612,-0.8612,-0.8612,-0.8612,-0.8612,-0.8612,-0.8612,-0.8612,-0.8612,-0.8645,-0.8812,-0.8812,-0.8905,-0.9088,-0.9088,-0.9092,-0.9096,-0.8804,-0.866,-0.866,-0.8426,-0.8333,-0.8305,-0.8137,-0.8104,-0.8073,-0.7974,-0.7882,-0.7882,-0.7875,-0.6593,-0.4795,-0.4785,-0.4808,-0.4797,-0.4787,-0.4816,-0.4816,-0.4816,-0.4766,-0.4748,-0.4759,-0.4734,-0.4423,-0.3342,-0.3041,-0.2804,-0.1762,-0.1501,-0.1479,-0.1479,-0.1456,-0.1391,-0.1391,-0.1391,-0.1391,-0.1391,-0.1391,-0.13,-0.1121,-0.1076,-0.0897,-0.0448,-0.018,0.0359,0.1301,0.2331,0.3315,0.421,0.5146,0.5683,0.5683,0.568,0.5677,0.5677,0.5683,0.5683,0.5677,0.5683,0.5683,0.5683,0.5683,0.5686,0.5688,0.5688,0.5688,0.0,0.0,-1.0309,-1.058,-1.0605,-1.0582,-1.0693,-1.0786,-1.0816,-1.0757,-1.0615,-1.0457,-1.038,-0.9751,-0.9237,-0.9453,-0.8999,-0.8612,-0.8612,-0.8612,-0.8612,-0.8612,-0.8612,0.0,0.0,0.0,0.0,-0.8612,-0.8612,-0.8612,-0.8612,-0.8674,-0.8735,-0.8735,-0.8857,-0.8946,-0.9003,-0.9003,-0.9092,-0.9318,-0.9393,-0.9449,-0.9445,-0.9224,-0.9232,-0.9292,-0.8936,-0.8952,-0.9158,-0.8773,-0.8701,-0.886,-0.8609,-0.8432,-0.8283,-0.8283,-0.7704,-0.6924,-0.6915,-0.6904,-0.6924,-0.6918,-0.6933,-0.6933,-0.6933,-0.6431,-0.5874,-0.5887,-0.5327,-0.4722,-0.4349,-0.4251,-0.3969,-0.2861,-0.258,-0.2356,-0.1652,-0.1487,-0.1466,-0.1466,-0.1449,-0.1391,-0.1391,-0.1391,-0.1391,-0.13,-0.1031,-0.0762,-0.0628,-0.0538,-0.0359,-0.0045,0.103,0.2102,0.304,0.3846,0.4699,0.5644,0.5104,0.4926,0.5235,0.5037,0.4861,0.4792,0.4858,0.4858,0.4792,0.4792,0.4792,0.4792,0.4792,0.4792,0.0,-1.1022,-1.1439,-1.1891,-1.201,-1.2017,-1.2094,-1.2105,-1.2038,-1.1739,-1.1506,-1.1327,-1.101,-1.0109,-0.9592,-1.0142,-0.9536,-0.9005,-0.9074,-0.9087,-0.8955,-0.8656,-0.8612,0.0,0.0,0.0,0.0,-0.8612,-0.8612,-0.8641,-0.8653,-0.8763,-0.8848,-0.8917,-0.9035,-0.9129,-0.919,-0.919,-0.9275,-0.9453,-0.9571,-0.9579,-0.9575,-0.9506,-0.9514,-0.9571,-0.9307,-0.9372,-0.9579,-0.9126,-0.8981,-0.9031,-0.8779,-0.8482,-0.8237,-0.8237,-0.8137,-0.7988,-0.7988,-0.7988,-0.7988,-0.7988,-0.7988,-0.7988,-0.7988,-0.7537,-0.6986,-0.6986,-0.6481,-0.5877,-0.5477,-0.5379,-0.4986,-0.356,-0.3167,-0.2835,-0.1783,-0.1519,-0.1497,-0.1497,-0.1481,-0.1422,-0.1422,-0.1459,-0.1448,-0.1392,-0.1121,-0.0942,-0.0852,-0.0762,-0.0718,-0.0718,0.0313,0.1207,0.1787,0.2861,0.3846,0.4743,0.4478,0.4431,0.4743,0.4535,0.4404,0.43,0.4402,0.4404,0.43,0.43,0.43,0.43,0.43,0.43,-1.1598,-1.1946,-1.2231,-1.332,-1.3613,-1.37,-1.4021,-1.4075,-1.3765,-1.2597,-1.2311,-1.1922,0.0,0.0,-0.9656,-1.0752,-1.0302,-0.98,-0.9874,-0.9903,-0.9559,0.0,0.0,0.0,0.0,0.0,0.0,-0.8641,0.0,-0.8653,-0.8824,-0.8844,-0.893,-0.9104,-0.912,-0.9202,-0.9416,-0.9416,-0.9453,-0.9579,-0.9579,-0.9579,-0.9579,-0.9579,-0.9579,-0.9579,-0.9579,-0.9579,-0.9579,-0.9335,-0.908,-0.8825,-0.8531,-0.8283,-0.8038,-0.8038,-0.7988,-0.7988,-0.7988,-0.7988,-0.7988,-0.7988,-0.7988,-0.7988,-0.7988,-0.7988,-0.7988,-0.7988,-0.7988,-0.7789,-0.6736,-0.6487,-0.5934,-0.3877,-0.3329,-0.2991,-0.1917,-0.1598,-0.1528,-0.1528,-0.1479,-0.1478,-0.1478,-0.1502,-0.1473,-0.1399,-0.1395,-0.1349,-0.1122,-0.0897,-0.0718,-0.0718,0.009,0.0626,0.0671,0.2146,0.3086,0.3173,0.3805,0.421,0.4255,0.4255,0.421,0.421,0.421,0.421,0.421,0.421,0.4212,0.4216,0.4216,0.4216,-1.1759,-1.2518,-1.3227,-1.3527,-1.3808,-1.3995,-1.4068,-1.3915,-1.3592,-1.3099,-1.2603,-1.2195,0.0,0.0,0.0,-1.1485,-1.1171,0.0,-0.998,-0.9903,0.0,0.0,0.0,-0.8812,-0.895,-0.8962,0.0,0.0,-0.8832,-0.8836,-0.9015,-0.9149,-0.9286,-0.9335,-0.9421,-0.9514,-0.9559,-0.9559,-0.9579,-0.9579,-0.9579,-0.9579,-0.9579,-0.9579,-0.9579,-0.9579,-0.9579,-0.9579,-0.9579,-0.9529,-0.948,-0.9377,-0.9084,-0.8832,-0.8581,-0.8382,-0.8187,-0.7988,-0.7988,-0.7988,-0.7988,-0.7988,-0.7988,-0.7988,-0.7988,-0.7988,-0.7988,-0.7988,-0.7988,-0.7939,-0.7637,-0.7587,-0.7238,-0.5882,-0.496,-0.4095,-0.3002,-0.2171,-0.156,-0.156,-0.1541,-0.1478,-0.1478,-0.152,-0.1512,-0.1457,-0.1456,-0.144,-0.1351,-0.1256,-0.1211,-0.1211,-0.0852,-0.0358,0.0402,0.0671,0.1477,0.3086,0.2731,0.2825,0.3721,0.3454,0.3275,0.3275,0.3275,0.3275,0.3275,0.3275,0.33,0.3347,0.3347,0.3347,-1.2465,-1.3094,-1.3633,-1.3766,-1.3968,-1.3981,-1.3628,-1.3474,-1.3187,-1.2405,-1.2171,0.0,0.0,0.0,0.0,0.0,0.0,0.0,-1.0621,-1.0506,-1.0109,0.0,-0.882,0.0,-0.908,-0.9096,-0.9129,0.0,0.0,-0.9019,-0.9202,-0.9347,-0.9441,-0.9474,-0.9571,-0.9579,-0.9579,-0.9579,-0.9579,-0.9579,-0.9579,-0.9579,-0.9579,-0.9579,-0.9579,-0.9579,0.0,-0.9579,-0.9579,-0.9579,-0.9529,-0.943,-0.9236,-0.9031,-0.8775,-0.8627,-0.8482,-0.8333,-0.8333,-0.8283,-0.8137,-0.8038,-0.7988,-0.7988,-0.7988,-0.7988,-0.7988,-0.7988,-0.7988,-0.7988,-0.7988,-0.7988,-0.7739,-0.6637,-0.5932,-0.5077,-0.3524,-0.275,-0.2185,-0.169,-0.1578,-0.1562,-0.1549,-0.1546,-0.1541,-0.148,-0.1478,-0.1467,-0.1434,-0.1429,-0.1429,-0.1429,-0.1337,-0.106,-0.046,-0.0276,0.0322,0.1564,0.1749,0.2118,0.2762,0.2904,0.2997,0.2997,0.2997,0.2997,0.2997,0.2997,0.3014,0.3044,0.3044,0.3044,-1.33,-1.3633,-1.3726,-1.4021,-1.4055,-1.3801,-1.2978,-1.2931,-1.2632,-1.1223,0.0,0.0,-1.0673,0.0,-1.1396,-1.2174,0.0,-1.2266,-1.1418,-1.1305,-1.0713,-0.9059,-0.8877,-0.8962,-0.9149,-0.9169,-0.923,-0.9429,-0.9254,-0.9234,-0.9433,-0.9437,-0.9466,-0.9575,-0.9579,-0.9579,-0.9579,-0.9579,-0.9579,-0.9579,-0.9579,-0.9579,-0.9579,-0.9579,-0.9579,-0.9579,0.0,0.0,-0.9579,-0.9579,-0.948,-0.9236,-0.9236,-0.908,-0.8825,-0.8825,-0.8825,-0.8825,-0.8825,-0.8627,-0.8432,-0.8137,-0.8038,-0.7988,-0.7988,-0.7988,-0.7988,-0.7988,-0.7988,-0.7988,-0.7988,-0.7988,-0.7789,-0.6836,-0.6487,-0.5884,-0.4026,-0.3425,-0.2873,-0.1818,-0.1617,-0.1609,-0.1582,-0.1577,-0.1568,-0.1542,-0.149,-0.149,-0.149,-0.1483,-0.1478,-0.1478,-0.1478,-0.1478,-0.1478,-0.0906,-0.0524,-0.0429,0.0809,0.1618,0.1808,0.2523,0.3002,0.3097,0.3097,0.3097,0.3097,0.3097,0.3101,0.3109,0.3109,0.3109,-1.3413,-1.378,-1.4021,-1.4075,-1.3901,-1.3547,-1.2931,-1.2449,0.0,0.0,0.0,-1.0374,-1.0221,-1.0817,0.0,-1.2188,0.0,0.0,0.0,0.0,-1.094,0.0,0.0,0.0,0.0,0.0,0.0,0.0,0.0,0.0,-0.9579,-0.9579,-0.9596,-0.9579,-0.9579,-0.9579,-0.9579,-0.9579,-0.9579,-0.9579,-0.9579,-0.9579,-0.9579,-0.9579,-0.9579,-0.9579,0.0,0.0,-0.9579,-0.9579,-0.9579,-0.9529,-0.9286,-0.9183,-0.9084,-0.8878,-0.8825,-0.8825,-0.8825,-0.8775,-0.8676,-0.8432,-0.8184,-0.7988,-0.7988,-0.7988,-0.7988,-0.7988,-0.7988,-0.7988,-0.7988,-0.7988,-0.7939,-0.7789,-0.7036,-0.6287,-0.5934,-0.4427,-0.2873,-0.1818,-0.1617,-0.1615,-0.161,-0.1609,-0.1607,-0.1602,-0.1601,-0.1601,-0.1601,-0.1557,-0.1478,-0.1478,-0.1478,-0.1478,-0.1478,-0.1383,-0.1049,-0.0429,-0.0143,0.0524,0.1761,0.1952,0.2381,0.3097,0.3097,0.3097,0.3097,0.3097,0.3123,0.3124,0.3124,0.3124,-1.3714,-1.3981,-1.4088,-1.4088,-1.3868,-1.3327,-1.2305,0.0,0.0,0.0,0.0,-0.999,-0.969,0.0,0.0,0.0,0.0,0.0,0.0,0.0,0.0,0.0,0.0,0.0,0.0,0.0,0.0,0.0,0.0,0.0,0.0,-0.9579,-0.9579,-0.9579,-0.9579,-0.9579,-0.9579,-0.9579,-0.9579,-0.9579,-0.9579,-0.9579,-0.9579,-0.9579,-0.9579,-0.9579,0.0,0.0,0.0,-0.9579,-0.9579,-0.9579,-0.948,-0.943,-0.9381,-0.9278,-0.9225,-0.9225,-0.9225,-0.9126,-0.8981,-0.8832,-0.8535,-0.8184,-0.8038,-0.7988,-0.7988,-0.7988,-0.7988,-0.7988,-0.7988,-0.7988,-0.7988,-0.7988,-0.7188,-0.6387,-0.6387,-0.4728,-0.3022,-0.2521,-0.1969,-0.1617,-0.1617,-0.1617,-0.1617,-0.1617,-0.1617,-0.1617,-0.1617,-0.1592,-0.1573,-0.1573,-0.1573,-0.1573,-0.1573,-0.1573,-0.1426,-0.1032,-0.0639,-0.0098,0.0638,0.1472,0.211,0.2503,0.2946,0.3143,0.3143,0.3143,0.3158,0.3137,0.3137,0.3137,-1.3928,-1.4088,-1.4088,-1.4088,-1.3814,-1.314,-1.1715,-1.1557,0.0,0.0,0.0,0.0,-0.9377,0.0,0.0,0.0,0.0,0.0,0.0,0.0,0.0,0.0,0.0,0.0,0.0,0.0,0.0,0.0,0.0,0.0,0.0,-0.9579,-0.9579,-0.9579,-0.9579,-0.9579,-0.9579,-0.9579,-0.9579,-0.9579,-0.9579,-0.9579,-0.9579,-0.9579,-0.9579,-0.9579,0.0,0.0,0.0,-0.9579,-0.9579,-0.9579,-0.9579,-0.9579,-0.9579,-0.9579,-0.9579,-0.9579,-0.9579,-0.948,-0.9282,-0.9236,-0.8882,-0.8432,-0.8233,-0.8137,-0.8088,-0.8088,-0.8038,-0.7988,-0.7988,-0.7988,-0.7988,-0.7988,-0.7338,-0.6686,-0.6437,-0.4878,-0.3473,-0.3224,-0.2321,-0.1617,-0.1617,-0.1617,-0.1617,-0.1617,-0.1617,-0.1617,-0.1617,-0.1617,-0.1617,-0.1617,-0.1617,-0.1617,-0.1617,-0.1617,-0.1617,-0.1617,-0.101,-0.0556,-0.0404,0.0807,0.1664,0.2017,0.2623,0.3029,0.318,0.318,0.318,0.318,0.318,0.318,-1.3928,-1.4088,-1.4088,-1.4088,-1.3667,-1.2933,-1.1668,0.0,0.0,0.0,-0.9257,-0.9357,-0.9599,-0.9733,0.0,0.0,0.0,0.0,0.0,0.0,0.0,0.0,0.0,0.0,0.0,0.0,0.0,0.0,0.0,0.0,0.0,-0.9579,-0.9579,-0.9579,-0.9579,-0.9579,-0.9579,-0.9579,-0.9579,-0.9579,-0.9579,-0.9579,-0.9579,-0.9579,-0.9579,-0.9579,0.0,0.0,0.0,-0.9579,-0.9579,-0.9579,-0.9579,-0.9579,-0.9579,-0.9579,-0.9579,-0.9579,-0.9579,-0.9579,-0.9529,-0.9286,-0.8981,-0.8775,-0.8726,-0.8577,-0.8382,-0.8382,-0.8187,-0.7988,-0.7988,-0.7988,-0.7988,-0.7988,-0.7939,-0.7587,-0.6587,-0.5479,-0.4373,-0.3374,-0.2321,-0.1617,-0.1617,-0.1617,-0.1617,-0.1617,-0.1617,-0.1617,-0.1617,-0.1617,-0.1617,-0.1617,-0.1617,-0.1617,-0.1617,-0.1617,-0.1617,-0.1617,-0.1516,-0.1162,-0.0455,-0.0252,0.0505,0.1967,0.2068,0.2472,0.318,0.318,0.318,0.318,0.318,0.318,-1.3661,-1.3948,-1.4088,-1.4088,-1.3647,-1.2946,-1.1924,0.0,0.0,-0.9943,-0.9597,-0.9546,-0.9659,-0.9539,-0.974,0.0,0.0,0.0,0.0,0.0,0.0,0.0,0.0,0.0,0.0,0.0,0.0,0.0,0.0,0.0,0.0,0.0,-0.9579,-0.9579,-0.9579,-0.9579,-0.9579,-0.9579,-0.9579,-0.9579,-0.9579,-0.9579,-0.9579,-0.9579,-0.9579,0.0,0.0,0.0,0.0,-0.9579,-0.9579,-0.9579,-0.9579,-0.9579,-0.9579,-0.9579,-0.9579,-0.9579,-0.9579,-0.9579,-0.9579,-0.948,-0.9377,-0.9225,-0.8874,-0.8726,-0.8627,-0.8627,-0.8577,-0.8432,-0.8283,-0.8137,-0.7988,-0.7988,-0.7988,-0.7889,-0.7437,-0.6534,-0.5429,-0.4375,-0.3274,-0.2371,-0.1718,-0.1617,-0.1617,-0.1617,-0.1617,-0.1617,-0.1617,-0.1617,-0.1617,-0.1617,-0.1617,-0.1617,-0.1617,-0.1617,-0.1617,-0.1617,-0.1617,-0.1465,-0.1111,-0.0657,-0.0101,0.0555,0.1009,0.1412,0.1765,0.1765,0.2017,0.2472,0.1967,0.2269,-1.344,-1.382,-1.4068,-1.3975,-1.3514,-1.2839,0.0,0.0,-1.1076,-1.025,-0.9886,-0.9715,-0.9715,-0.9372,-0.9377,0.0,-1.0748,-1.1088,-1.1347,0.0,0.0,0.0,0.0,0.0,0.0,0.0,0.0,0.0,0.0,0.0,0.0,0.0,-0.9579,-0.9579,-0.9579,-0.9579,-0.9579,-0.9579,-0.9579,-0.9579,-0.9579,-0.9579,-0.9579,-0.9579,-0.9579,0.0,0.0,0.0,0.0,-0.9579,-0.9579,-0.9579,-0.9579,-0.9579,-0.9579,-0.9579,-0.9579,-0.9579,-0.9579,-0.9579,-0.9579,-0.9579,-0.9579,-0.9529,-0.9126,-0.8977,-0.8928,-0.8928,-0.8874,-0.8775,-0.8581,-0.8382,-0.8237,-0.8137,-0.8137,-0.8088,-0.8041,-0.7138,-0.6184,-0.5427,-0.4175,-0.2973,-0.222,-0.1818,-0.1617,-0.1617,-0.1617,-0.1617,-0.1617,-0.1617,-0.1617,-0.1617,-0.1617,-0.1617,-0.1617,-0.1617,-0.1617,-0.1617,-0.1617,-0.1617,-0.1617,-0.1061,-0.0657,-0.0404,0.0151,0.0555,0.0806,0.0806,0.1109,0.1613,0.1058,0.1412,-1.344,-1.382,-1.4015,-1.368,-1.3193,-1.2556,0.0,-1.1209,-1.0828,-1.0203,-0.9886,-0.9715,-0.9715,-0.9205,-0.9098,-0.995,-1.0615,0.0,0.0,0.0,0.0,0.0,0.0,0.0,0.0,0.0,0.0,0.0,0.0,0.0,0.0,0.0,-0.9579,-0.9579,-0.9579,-0.9579,-0.9579,-0.9579,-0.9579,-0.9579,-0.9579,-0.9579,-0.9579,-0.9579,0.0,0.0,0.0,0.0,0.0,-0.9579,-0.9579,-0.9579,-0.9579,-0.9579,-0.9579,-0.9579,-0.9579,-0.9579,-0.9579,-0.9579,-0.9579,-0.9579,-0.9579,-0.9579,-0.9579,-0.9381,-0.9187,-0.9187,-0.9031,-0.8775,-0.8775,-0.8775,-0.8726,-0.8482,-0.8382,-0.8333,-0.8038,-0.7138,-0.6387,-0.6387,-0.4678,-0.3173,-0.3173,-0.2321,-0.1617,-0.1617,-0.1617,-0.1617,-0.1617,-0.1617,-0.1617,-0.1617,-0.1617,-0.1617,-0.1617,-0.1617,-0.1617,-0.1617,-0.1617,-0.1617,-0.1617,-0.1617,-0.1212,-0.0404,-0.0404,0.0,0.0806,0.0806,0.0806,0.0806,0.0806,0.0806,-1.2325,-1.2831,-1.3139,-1.2799,-1.2285,-1.177,-1.1455,-1.1049,-1.068,-1.0492,-1.0057,-0.9715,-0.9715,-0.9205,-0.9225,-1.0508,-1.0875,0.0,0.0,0.0,0.0,0.0,0.0,0.0,0.0,0.0,0.0,0.0,0.0,0.0,0.0,0.0,0.0,-0.9579,-0.9579,-0.9579,-0.9579,-0.9579,-0.9579,-0.9579,-0.9579,-0.9579,-0.9579,0.0,0.0,0.0,0.0,0.0,0.0,-0.9579,-0.9579,-0.9579,-0.9579,-0.9579,-0.9579,-0.9579,-0.9579,-0.9579,-0.9579,-0.9579,-0.9579,-0.9579,-0.9579,-0.9579,-0.9579,-0.9529,-0.948,-0.948,-0.9282,-0.908,-0.908,-0.8928,-0.8775,-0.8676,-0.8676,-0.8577,-0.8333,-0.7985,-0.7484,-0.6587,-0.5279,-0.4074,-0.3323,-0.2321,-0.1617,-0.1617,-0.1617,-0.1617,-0.1617,-0.1617,-0.1617,-0.1617,-0.1617,-0.1617,-0.1617,-0.1617,-0.1617,-0.1617,-0.1617,-0.1617,-0.1617,-0.1617,-0.1465,-0.1212,-0.1212,-0.1111,-0.0858,-0.0858,-0.0858,-0.0808,0.0303,0.0504,0.0,-1.2167,-1.2543,-1.2211,-1.1784,-1.1362,-1.1255,-1.0808,-1.0425,-1.0425,-1.0043,-0.9653,-0.9539,-0.9218,-0.9237,-1.018,-1.0608,0.0,0.0,0.0,0.0,0.0,0.0,0.0,0.0,0.0,0.0,0.0,0.0,0.0,0.0,0.0,0.0,-0.9579,-0.9579,-0.9579,-0.9579,-0.9579,-0.9579,-0.9579,-0.9579,-0.9579,-0.9579,0.0,0.0,0.0,0.0,0.0,0.0,-0.9579,-0.9579,-0.9579,-0.9579,-0.9579,-0.9579,-0.9579,-0.9579,-0.9579,-0.9579,-0.9579,-0.9579,-0.9579,-0.9579,-0.9579,-0.9579,-0.9579,-0.9579,-0.9579,-0.948,-0.9331,-0.9331,-0.9229,-0.9076,-0.8977,-0.8928,-0.8878,-0.8627,-0.8528,-0.828,-0.7481,-0.6027,-0.4726,-0.4076,-0.2622,-0.1617,-0.1617,-0.1617,-0.1617,-0.1617,-0.1617,-0.1617,-0.1617,-0.1617,-0.1617,-0.1617,-0.1617,-0.1617,-0.1617,-0.1617,-0.1617,-0.1617,-0.1617,-0.1617,-0.1617,-0.1617,-0.1617,-0.1617,-0.1617,-0.1617,-0.1566,-0.0555,-0.0353,0.0,-1.1683,-1.2078,-1.1819,-1.149,-1.1169,-1.0955,-1.0461,0.0,-1.008,-0.9853,-0.9579,-0.9317,-0.9224,-0.9217,-0.9317,-1.0053,0.0,0.0,0.0,0.0,0.0,0.0,0.0,0.0,0.0,0.0,0.0,0.0,0.0,0.0,0.0,0.0,0.0,-0.9579,-0.9579,-0.9579,-0.9579,-0.9579,-0.9579,-0.9579,-0.9579,-0.9579,0.0,0.0,0.0,0.0,0.0,0.0,-0.9579,-0.9579,-0.9579,-0.9579,-0.9579,-0.9579,-0.9579,-0.9579,-0.9579,-0.9579,-0.9579,-0.9579,-0.9579,-0.9579,-0.9579,-0.9579,-0.9579,-0.9579,-0.9579,-0.9579,-0.9579,-0.9579,-0.9579,-0.9529,-0.9286,-0.9236,-0.9133,-0.8878,-0.8825,-0.8825,-0.8825,-0.6877,-0.5279,-0.5279,-0.3275,-0.1667,-0.1667,-0.1617,-0.1617,-0.1617,-0.1617,-0.1617,-0.1617,-0.1617,-0.1617,-0.1617,-0.1617,-0.1617,-0.1617,-0.1617,-0.1617,-0.1617,-0.1617,-0.1617,-0.1617,-0.1617,-0.1617,-0.1617,-0.1617,-0.1617,-0.1617,-0.1617,-0.1617,-0.9272,0.0,-1.0561,-1.0267,-0.9973,-0.9764,0.0,-0.9706,-0.9484,0.0,0.0,-0.9431,-0.981,-0.9337,-0.9279,-1.0401,0.0,0.0,0.0,0.0,0.0,0.0,0.0,0.0,0.0,0.0,0.0,0.0,0.0,0.0,0.0,0.0,0.0,0.0,-0.9579,-0.9579,-0.9579,-0.9579,-0.9579,-0.9579,-0.9579,-0.9579,0.0,0.0,0.0,0.0,0.0,0.0,0.0,-0.9579,-0.9579,-0.9579,-0.9579,-0.9579,-0.9579,-0.9579,-0.9579,-0.9579,-0.9579,-0.9579,-0.9579,-0.9579,-0.9579,-0.9579,-0.9579,-0.9579,-0.9579,-0.9579,-0.9579,-0.9579,-0.9579,-0.9579,-0.9579,-0.9529,-0.9529,-0.943,-0.9183,-0.9084,-0.9031,-0.8825,-0.7176,-0.5829,-0.5829,-0.3827,-0.222,-0.222,-0.1869,-0.1617,-0.1617,-0.1617,-0.1617,-0.1617,-0.1617,-0.1617,-0.1617,-0.1617,-0.1617,-0.1617,-0.1617,-0.1617,-0.1617,-0.1617,-0.1617,-0.1617,-0.1617,-0.1617,-0.1617,-0.1617,-0.1617,-0.1617,-0.1617,-0.1617,-0.8323,-0.9145,-0.9913,-0.9886,-0.976,-0.9657,-0.9846,0.0,0.0,0.0,0.0,0.0,-0.9457,0.0,0.0,0.0,0.0,0.0,0.0,0.0,0.0,0.0,0.0,0.0,0.0,0.0,0.0,0.0,0.0,0.0,0.0,0.0,0.0,0.0,0.0,-0.9579,-0.9579,-0.9579,-0.9579,-0.9579,-0.9579,-0.9579,0.0,0.0,0.0,0.0,0.0,0.0,-0.9579,-0.9579,-0.9579,-0.9579,-0.9579,-0.9579,-0.9579,-0.9579,-0.9579,-0.9579,-0.9579,-0.9579,-0.9579,-0.9579,-0.9579,-0.9579,-0.9579,-0.9579,-0.9579,-0.9579,-0.9579,-0.9579,-0.9579,-0.9579,-0.9579,-0.9579,-0.9579,-0.9579,-0.943,-0.9381,-0.9331,-0.9175,-0.7872,-0.6623,-0.6226,-0.4576,-0.3176,-0.2825,-0.2322,-0.1969,-0.1969,-0.1768,-0.1617,-0.1617,-0.1617,-0.1617,-0.1617,-0.1617,-0.1617,-0.1617,-0.1617,-0.1617,-0.1617,-0.1617,-0.1617,-0.1617,-0.1617,-0.1617,-0.1617,-0.1617,-0.1617,-0.1617,-0.1617,-0.1617,-0.7932,-0.8824,-0.9666,-0.9866,-0.9917,-0.995,-0.995,0.0,0.0,0.0,0.0,0.0,0.0,0.0,0.0,0.0,0.0,0.0,0.0,0.0,0.0,0.0,0.0,0.0,0.0,0.0,0.0,0.0,0.0,0.0,0.0,0.0,0.0,0.0,0.0,0.0,-0.9579,-0.9579,-0.9579,-0.9579,-0.9579,-0.9579,-0.9579,0.0,0.0,0.0,0.0,0.0,-0.9579,-0.9579,-0.9579,-0.9579,-0.9579,-0.9579,-0.9579,-0.9579,-0.9579,-0.9579,-0.9579,-0.9579,-0.9579,-0.9579,-0.9579,-0.9579,-0.9579,-0.9579,-0.9579,-0.9579,-0.9579,-0.9579,-0.9579,-0.9579,-0.9579,-0.9579,-0.9579,-0.9579,-0.9579,-0.9579,-0.9579,-0.9579,-0.857,-0.7468,-0.6675,-0.5427,-0.423,-0.343,-0.2875,-0.2522,-0.2522,-0.212,-0.1869,-0.1869,-0.1768,-0.1717,-0.1717,-0.1667,-0.1617,-0.1617,-0.1617,-0.1617,-0.1617,-0.1617,-0.1617,-0.1617,-0.1617,-0.1617,-0.1617,-0.1617,-0.1617,-0.1617,-0.1617,-0.1617,-0.845,-0.8958,-0.9231,-0.9058,-0.9164,-0.9344,0.0,0.0,0.0,0.0,0.0,0.0,0.0,0.0,0.0,0.0,0.0,0.0,0.0,0.0,0.0,0.0,0.0,0.0,0.0,0.0,0.0,0.0,0.0,0.0,0.0,0.0,0.0,0.0,0.0,0.0,0.0,-0.9579,-0.9579,-0.9579,-0.9579,-0.9579,-0.9579,-0.9579,0.0,0.0,0.0,0.0,-0.9579,-0.9579,-0.9579,-0.9579,-0.9579,-0.9579,-0.9579,-0.9579,-0.9579,-0.9579,-0.9579,-0.9579,-0.9579,-0.9579,-0.9579,-0.9579,-0.9579,-0.9579,-0.9579,-0.9579,-0.9579,-0.9579,-0.9579,-0.9579,-0.9579,-0.9579,-0.9579,-0.9579,-0.9579,-0.9579,-0.9579,-0.9579,-0.8878,-0.8031,-0.7235,-0.5982,-0.478,-0.3982,-0.343,-0.3079,-0.3079,-0.3029,-0.2978,-0.2978,-0.2523,-0.227,-0.227,-0.1869,-0.1617,-0.1617,-0.1617,-0.1617,-0.1617,-0.1617,-0.1617,-0.1617,-0.1617,-0.1617,-0.1617,-0.1617,-0.1617,-0.1617,-0.1617,-0.1617,-0.8176,-0.8638,-0.9024,-0.9232,-0.9619,-0.9817,0.0,0.0,0.0,0.0,0.0,0.0,0.0,0.0,0.0,0.0,0.0,0.0,0.0,0.0,0.0,0.0,0.0,0.0,0.0,0.0,0.0,0.0,0.0,0.0,0.0,0.0,0.0,0.0,0.0,0.0,0.0,-0.9579,-0.9579,-0.9579,-0.9579,-0.9579,-0.9579,-0.9579,-0.9579,0.0,0.0,-0.9579,-0.9579,-0.9579,-0.9579,-0.9579,-0.9579,-0.9579,-0.9579,-0.9579,-0.9579,-0.9579,-0.9579,-0.9579,-0.9579,-0.9579,-0.9579,-0.9579,-0.9579,-0.9579,-0.9579,-0.9579,-0.9579,-0.9579,-0.9579,-0.9579,-0.9579,-0.9579,-0.9579,-0.9579,-0.9579,-0.9579,-0.9579,-0.9579,-0.9278,-0.8779,-0.7985,-0.6983,-0.5984,-0.5188,-0.4234,-0.3632,-0.3632,-0.3381,-0.318,-0.318,-0.2977,-0.2826,-0.2826,-0.2625,-0.2222,-0.1617,-0.1617,-0.1617,-0.1617,-0.1617,-0.1617,-0.1617,-0.1617,-0.1617,-0.1617,-0.1617,-0.1617,-0.1617,-0.1617,-0.1617,-0.8237,-0.8591,-0.9051,-0.9639,0.0,0.0,0.0,0.0,0.0,0.0,0.0,0.0,0.0,0.0,0.0,0.0,0.0,0.0,0.0,0.0,0.0,0.0,0.0,0.0,0.0,0.0,0.0,0.0,0.0,0.0,0.0,0.0,0.0,0.0,0.0,0.0,0.0,-0.9579,-0.9579,-0.9579,-0.9579,-0.9579,-0.9579,-0.9579,-0.9579,-0.9579,-0.9579,-0.9579,-0.9579,-0.9579,-0.9579,-0.9579,-0.9579,-0.9579,-0.9579,-0.9579,-0.9579,-0.9579,-0.9579,-0.9579,-0.9579,-0.9579,-0.9579,-0.9579,-0.9579,-0.9579,-0.9579,-0.9579,-0.9579,-0.9579,-0.9579,-0.9579,-0.9579,-0.9579,-0.9579,-0.9579,-0.9579,-0.9579,-0.9579,-0.9579,-0.9579,-0.9327,-0.8531,-0.7736,-0.6939,-0.6142,-0.4987,-0.4183,-0.4183,-0.3831,-0.3581,-0.3581,-0.3482,-0.3331,-0.323,-0.318,-0.2777,-0.1869,-0.1667,-0.1617,-0.1617,-0.1617,-0.1617,-0.1617,-0.1617,-0.1617,-0.1617,-0.1617,-0.1617,-0.1617,-0.1617,-0.1617,-0.9406,-0.9385,-0.9324,-0.991,0.0,0.0,0.0,0.0,0.0,0.0,0.0,0.0,0.0,0.0,0.0,0.0,0.0,0.0,0.0,0.0,0.0,0.0,0.0,0.0,0.0,0.0,0.0,0.0,0.0,0.0,0.0,0.0,0.0,0.0,0.0,0.0,0.0,0.0,-0.9579,-0.9579,-0.9579,-0.9579,-0.9579,-0.9579,-0.9579,-0.9579,-0.9579,-0.9579,-0.9579,-0.9579,-0.9579,-0.9579,-0.9579,-0.9579,-0.9579,-0.9579,-0.9579,-0.9579,-0.9579,-0.9579,-0.9579,-0.9579,-0.9579,-0.9579,-0.9579,-0.9579,-0.9579,-0.9579,-0.9579,-0.9579,-0.9579,-0.9579,-0.9579,-0.9579,-0.9579,-0.9579,-0.9579,-0.9579,-0.9579,-0.9579,-0.9579,-0.9327,-0.8531,-0.7736,-0.6939,-0.6142,-0.5288,-0.4734,-0.4734,-0.4684,-0.4684,-0.4684,-0.4234,-0.3732,-0.323,-0.318,-0.2977,-0.2371,-0.1869,-0.1617,-0.1617,-0.1617,-0.1617,-0.1617,-0.1617,-0.1617,-0.1617,-0.1617,-0.1617,-0.1617,-0.1617,-0.1617,-0.9031,-0.9158,-0.9351,0.0,0.0,0.0,0.0,0.0,0.0,0.0,0.0,0.0,0.0,0.0,0.0,0.0,0.0,0.0,0.0,0.0,0.0,0.0,0.0,0.0,0.0,0.0,0.0,0.0,0.0,0.0,0.0,0.0,0.0,0.0,0.0,0.0,0.0,0.0,-0.9579,-0.9579,-0.9579,-0.9579,-0.9579,-0.9579,-0.9579,-0.9579,-0.9579,-0.9579,-0.9579,-0.9579,-0.9579,-0.9579,-0.9579,-0.9579,-0.9579,-0.9579,-0.9579,-0.9579,-0.9579,-0.9579,-0.9579,-0.9579,-0.9579,-0.9579,-0.9579,-0.9579,-0.9579,-0.9579,-0.9579,-0.9579,-0.9579,-0.9579,-0.9579,-0.9579,-0.9579,-0.9579,-0.9579,-0.9579,-0.9579,-0.9579,-0.9713,-0.9686,-0.938,-0.8268,-0.7307,-0.7002,-0.5725,-0.4784,-0.4784,-0.4784,-0.4784,-0.4784,-0.4634,-0.4435,-0.4234,-0.3882,-0.3632,-0.3429,-0.2573,-0.1969,-0.1617,-0.1617,-0.1617,-0.1617,-0.1617,-0.1617,-0.1617,-0.1617,-0.1617,-0.1617,-0.1617,-0.1617,-0.8938,-0.9058,0.0,0.0,0.0,0.0,0.0,0.0,0.0,0.0,0.0,0.0,0.0,0.0,0.0,0.0,0.0,0.0,0.0,0.0,0.0,0.0,0.0,0.0,0.0,0.0,0.0,0.0,0.0,0.0,0.0,0.0,0.0,0.0,0.0,0.0,0.0,0.0,-0.9579,-0.9579,-0.9579,-0.9579,-0.9579,-0.9579,-0.9579,-0.9579,-0.9579,-0.9579,-0.9579,-0.9579,-0.9579,-0.9579,-0.9579,-0.9579,-0.9579,-0.9579,-0.9579,-0.9579,-0.9579,-0.9579,-0.9579,-0.9579,-0.9579,-0.9579,-0.9579,-0.9579,-0.9579,-0.9579,-0.9579,-0.9579,-0.9579,-0.9579,-0.9579,-0.9579,-0.9579,-0.9579,-0.9579,-0.9579,-0.9579,-0.9579,-0.9721,-0.9803,-0.9803,-0.8686,-0.7674,-0.742,-0.6136,-0.5087,-0.4834,-0.4784,-0.4784,-0.4784,-0.4784,-0.4784,-0.4784,-0.4483,-0.4183,-0.4033,-0.3327,-0.2573,-0.1869,-0.1869,-0.1768,-0.1617,-0.1617,-0.1617,-0.1617,-0.1617,-0.1617,-0.1617,-0.1617,-0.1617,-0.9364,0.0,0.0,0.0,0.0,0.0,0.0,0.0,0.0,0.0,0.0,0.0,0.0,0.0,0.0,0.0,0.0,0.0,0.0,0.0,0.0,0.0,0.0,0.0,0.0,0.0,0.0,0.0,0.0,0.0,0.0,0.0,0.0,0.0,0.0,0.0,0.0,0.0,-0.9579,-0.9579,-0.9579,-0.9579,-0.9579,-0.9579,-0.9579,-0.9579,-0.9579,-0.9579,-0.9579,-0.9579,-0.9579,-0.9579,-0.9579,-0.9579,-0.9579,-0.9579,-0.9579,-0.9579,-0.9579,-0.9579,-0.9579,-0.9579,-0.9579,-0.9579,-0.9579,-0.9579,-0.9579,-0.9579,-0.9579,-0.9579,-0.9579,-0.9579,-0.9579,-0.9579,-0.9579,-0.9579,-0.9579,-0.9579,-0.9579,-0.9579,-0.9579,-0.9583,-0.9579,-0.8935,-0.8137,-0.7338,-0.6492,-0.5689,-0.4885,-0.4784,-0.4784,-0.4784,-0.4784,-0.4784,-0.4784,-0.4784,-0.4583,-0.4033,-0.4033,-0.353,-0.2472,-0.2422,-0.217,-0.1617,-0.1617,-0.1617,-0.1617,-0.1617,-0.1617,-0.1617,-0.1617,-0.1617,-0.8958,0.0,0.0,0.0,0.0,0.0,0.0,0.0,0.0,0.0,0.0,0.0,0.0,0.0,0.0,0.0,0.0,0.0,0.0,0.0,0.0,0.0,0.0,0.0,0.0,0.0,0.0,0.0,0.0,0.0,0.0,0.0,0.0,0.0,0.0,0.0,0.0,0.0,0.0,-0.9579,-0.9579,-0.9579,-0.9579,-0.9579,-0.9579,-0.9579,-0.9579,-0.9579,-0.9579,-0.9579,-0.9579,-0.9579,-0.9579,-0.9579,-0.9579,-0.9579,-0.9579,-0.9579,-0.9579,-0.9579,-0.9579,-0.9579,-0.9579,-0.9579,-0.9579,-0.9579,-0.9579,-0.9579,-0.9579,-0.9579,-0.9579,-0.9579,-0.9579,-0.9579,-0.9579,-0.9579,-0.9579,-0.9579,-0.9579,-0.9579,-0.9831,-0.9961,-0.9831,-0.925,-0.8515,-0.754,-0.6592,-0.5689,-0.4885,-0.4784,-0.4784,-0.4784,-0.4784,-0.4784,-0.4784,-0.4784,-0.4734,-0.4583,-0.4583,-0.4083,-0.3027,-0.2977,-0.2725,-0.217,-0.217,-0.1969,-0.1617,-0.1617,-0.1617,-0.1617,-0.1617,-0.1617,-0.9092,0.0,0.0,0.0,0.0,0.0,0.0,0.0,0.0,0.0,0.0,0.0,0.0,0.0,0.0,0.0,0.0,0.0,0.0,0.0,0.0,0.0,0.0,0.0,0.0,0.0,0.0,0.0,0.0,0.0,0.0,0.0,0.0,0.0,0.0,0.0,0.0,0.0,0.0,0.0,-1.0019,-0.9821,-1.0207,-0.9772,-0.9579,-0.9579,-0.9579,-0.9579,-0.9579,-0.9579,-0.9579,-0.9579,-0.9579,-0.9579,-0.9579,-0.9579,-0.9579,-0.9579,-0.9579,-0.9579,-0.9579,-0.9579,-0.9579,-0.9579,-0.9579,-0.9579,-0.9579,-0.9579,-0.9579,-0.9579,-0.9579,-0.9579,-0.9579,-0.9579,-0.9579,-0.9579,-0.9579,-0.9579,-0.9579,-0.9579,-0.9803,-0.9912,-0.9803,-0.9466,-0.8834,-0.7569,-0.6332,-0.5338,-0.4885,-0.4784,-0.4784,-0.4784,-0.4784,-0.4784,-0.4784,-0.4784,-0.4784,-0.4784,-0.4784,-0.4535,-0.3883,-0.3632,-0.3279,-0.2725,-0.2522,-0.222,-0.1919,-0.1718,-0.1617,-0.1617,-0.1617,-0.1617,0.0,0.0,0.0,0.0,0.0,0.0,0.0,0.0,0.0,0.0,0.0,0.0,0.0,0.0,0.0,0.0,0.0,0.0,0.0,0.0,0.0,0.0,0.0,0.0,0.0,0.0,0.0,0.0,0.0,0.0,0.0,0.0,0.0,0.0,0.0,0.0,0.0,0.0,0.0,0.0,0.0,-1.0355,-1.117,-1.0113,-0.9579,-0.9579,-0.9579,-0.9579,-0.9579,-0.9579,-0.9579,-0.9579,-0.9579,-0.9579,-0.9579,-0.9579,-0.9579,-0.9579,-0.9579,-0.9579,-0.9579,-0.9579,-0.9579,-0.9579,-0.9579,-0.9579,-0.9579,-0.9579,-0.9579,-0.9579,-0.9579,-0.9579,-0.9579,-0.9579,-0.9579,-0.9579,-0.9579,-0.9579,-0.9579,-0.9579,-0.9591,-0.9599,-0.9579,-0.9591,-0.9095,-0.7537,-0.5937,-0.4885,-0.4885,-0.4834,-0.4784,-0.4784,-0.4784,-0.4784,-0.4784,-0.4784,-0.4784,-0.4784,-0.4784,-0.4784,-0.4784,-0.4334,-0.3831,-0.3281,-0.2774,-0.2521,-0.2472,-0.1969,-0.1718,-0.1667,-0.1667,-0.1667,0.0,0.0,0.0,0.0,0.0,0.0,0.0,0.0,0.0,0.0,0.0,0.0,0.0,0.0,0.0,0.0,0.0,0.0,0.0,0.0,0.0,0.0,0.0,0.0,0.0,0.0,0.0,0.0,0.0,0.0,0.0,0.0,0.0,0.0,0.0,0.0,0.0,0.0,0.0,0.0,-1.2159,-1.176,-1.117,-1.0113,-0.9579,-0.9579,-0.9579,-0.9579,-0.9579,-0.9579,-0.9579,-0.9579,-0.9579,-0.9579,-0.9579,-0.9579,-0.9579,-0.9579,-0.9579,-0.9579,-0.9579,-0.9579,-0.9579,-0.9579,-0.9579,-0.9579,-0.9579,-0.9579,-0.9579,-0.9579,-0.9579,-0.9579,-0.9579,-0.9579,-0.9579,-0.9579,-0.9579,-0.9579,-0.9579,-0.9579,-0.9738,-0.9786,-0.9652,-0.9738,-0.9427,-0.83,-0.6786,-0.5739,-0.5739,-0.5188,-0.4784,-0.4784,-0.4784,-0.4784,-0.4784,-0.4784,-0.4784,-0.4784,-0.4784,-0.4784,-0.4784,-0.4684,-0.4383,-0.3833,-0.3731,-0.3429,-0.3029,-0.2928,-0.2624,-0.222,-0.222,-0.2019,0.0,0.0,0.0,0.0,0.0,0.0,0.0,0.0,0.0,0.0,0.0,0.0,0.0,0.0,0.0,0.0,0.0,0.0,0.0,0.0,0.0,0.0,0.0,0.0,0.0,0.0,0.0,0.0,0.0,0.0,0.0,0.0,0.0,0.0,0.0,0.0,-1.3123,-1.2917,-1.3147,-1.3748,-1.2405,-1.1274,-1.04,-0.9871,-0.9579,-0.9579,-0.9579,-0.9579,-0.9579,-0.9579,-0.9579,-0.9579,-0.9579,-0.9579,-0.9579,-0.9579,-0.9579,-0.9579,-0.9579,-0.9579,-0.9579,-0.9579,-0.9579,-0.9579,-0.9579,-0.9579,-0.9579,-0.9579,-0.9579,-0.9579,-0.9579,-0.9579,-0.9579,-0.9579,-0.9579,-0.9579,-0.9579,-0.9579,-0.9579,-0.9579,-0.9701,-0.9734,-0.9644,-0.9348,-0.9026,-0.8492,-0.7039,-0.5992,-0.5992,-0.5288,-0.4784,-0.4784,-0.4784,-0.4784,-0.4784,-0.4784,-0.4784,-0.4784,-0.4784,-0.4784,-0.4784,-0.4784,-0.4684,-0.4383,-0.4133,-0.3732,-0.318,-0.318,-0.2777,-0.2019,-0.227,-0.212,0.0,0.0,0.0,0.0,0.0,0.0,0.0,0.0,0.0,0.0,0.0,0.0,0.0,0.0,0.0,0.0,0.0,0.0,0.0,0.0,0.0,0.0,0.0,0.0,0.0,0.0,0.0,0.0,0.0,0.0,0.0,0.0,0.0,0.0,0.0,0.0,-1.4406,-1.3869,-1.4101,-1.5035,-1.2157,-1.0483,-0.9871,-0.9673,-0.9579,-0.9579,-0.9579,-0.9579,-0.9579,-0.9579,-0.9579,-0.9579,-0.9579,-0.9579,-0.9579,-0.9579,-0.9579,-0.9579,-0.9579,-0.9579,-0.9579,-0.9579,-0.9579,-0.9579,-0.9579,-0.9579,-0.9579,-0.9579,-0.9579,-0.9579,-0.9579,-0.9579,-0.9579,-0.9579,-0.9579,-0.9579,-0.9579,-0.9579,-0.9579,-0.9579,-0.9579,-0.9579,-0.9579,-0.9031,-0.8581,-0.8581,-0.7335,-0.6342,-0.6242,-0.5486,-0.4935,-0.4834,-0.4784,-0.4784,-0.4784,-0.4784,-0.4784,-0.4784,-0.4784,-0.4784,-0.4784,-0.4784,-0.4784,-0.4784,-0.4383,-0.3883,-0.3331,-0.3331,-0.2777,-0.1768,-0.217,-0.212,0.0,0.0,0.0,0.0,0.0,0.0,0.0,0.0,0.0,0.0,0.0,0.0,0.0,0.0,0.0,0.0,0.0,0.0,0.0,0.0,0.0,0.0,0.0,0.0,0.0,0.0,0.0,0.0,0.0,0.0,0.0,0.0,0.0,0.0,0.0,0.0,-1.4142,-1.4299,-1.4135,-1.3628,-1.1956,-1.1098,-1.093,-1.0015,-0.9579,-0.9579,-0.9579,-0.9579,-0.9579,-0.9579,-0.9579,-0.9579,-0.9579,-0.9579,-0.9579,-0.9579,-0.9579,-0.9579,-0.9579,-0.9579,-0.9579,-0.9579,-0.9579,-0.9579,-0.9579,-0.9579,-0.9579,-0.9579,-0.9579,-0.9579,-0.9579,-0.9579,-0.9579,-0.9579,-0.9579,-0.9579,-0.9579,-0.9579,-0.9579,-0.9579,-0.9579,-0.9579,-0.9579,-0.9525,-0.943,-0.943,-0.868,-0.7836,-0.7138,-0.6339,-0.5589,-0.4885,-0.4784,-0.4784,-0.4784,-0.4784,-0.4784,-0.4784,-0.4784,-0.4784,-0.4784,-0.4784,-0.4784,-0.4784,-0.4734,-0.4435,-0.3882,-0.3882,-0.3328,-0.227,-0.2371,-0.212,0.0,0.0,0.0,0.0,0.0,0.0,0.0,0.0,0.0,0.0,0.0,0.0,0.0,0.0,0.0,0.0,0.0,0.0,0.0,0.0,0.0,0.0,0.0,0.0,0.0,0.0,0.0,0.0,0.0,0.0,0.0,-1.4088,-1.4088,-1.4088,-1.4088,0.0,-1.4088,-1.4215,-1.3705,-1.2535,-1.2036,-1.1308,-1.0306,-0.9821,-0.9579,-0.9579,-0.9579,-0.9579,-0.9579,-0.9579,-0.9579,-0.9579,-0.9579,-0.9579,-0.9579,-0.9579,-0.9579,-0.9579,-0.9579,-0.9579,-0.9579,-0.9579,-0.9579,-0.9579,-0.9579,-0.9579,-0.9579,-0.9579,-0.9579,-0.9579,-0.9579,-0.9579,-0.9579,-0.9579,-0.9579,-0.9579,-0.9579,-0.9579,-0.9579,-0.9579,-0.9579,-0.9579,-0.9579,-0.9579,-0.9462,-0.911,-0.8289,-0.7463,-0.6729,-0.5928,-0.532,-0.4963,-0.4957,-0.4967,-0.4916,-0.4959,-0.4945,-0.479,-0.4883,-0.4888,-0.4786,-0.4784,-0.4784,-0.4784,-0.4784,-0.4383,-0.3531,-0.3833,-0.3278,-0.1969,-0.227,-0.212,0.0,0.0,0.0,0.0,0.0,0.0,0.0,0.0,0.0,0.0,0.0,0.0,0.0,0.0,0.0,0.0,0.0,0.0,0.0,0.0,0.0,0.0,0.0,0.0,0.0,0.0,0.0,0.0,0.0,0.0,0.0,-1.4088,-1.4088,-1.4088,-1.4088,-1.4088,-1.4088,-1.39,-1.3168,-1.19,-1.189,-1.1072,-0.9579,-0.9579,-0.9579,-0.9579,-0.9579,-0.9579,-0.9579,-0.9579,-0.9579,-0.9579,-0.9579,-0.9579,-0.9579,-0.9579,-0.9579,-0.9579,-0.9579,-0.9579,-0.9579,-0.9579,-0.9579,-0.9579,-0.9579,-0.9579,-0.9579,-0.9579,-0.9579,-0.9579,-0.9579,-0.9579,-0.9579,-0.9579,-0.9579,-0.9579,-0.9579,-0.9579,-0.9579,-0.9579,-0.9665,-0.9693,-0.9693,-0.9734,-0.9605,-0.9072,-0.8218,-0.7373,-0.6646,-0.5832,-0.5263,-0.5058,-0.5067,-0.5081,-0.5012,-0.5069,-0.5051,-0.4861,-0.4969,-0.4965,-0.4873,-0.4869,-0.4859,-0.4784,-0.4784,-0.4284,-0.318,-0.3581,-0.3027,-0.1617,-0.2019,-0.1969,0.0,0.0,0.0,0.0,0.0,0.0,0.0,0.0,0.0,0.0,0.0,0.0,0.0,0.0,0.0,0.0,0.0,0.0,0.0,0.0,0.0,0.0,0.0,0.0,0.0,0.0,0.0,0.0,0.0,0.0,-1.4088,-1.4088,-1.4088,-1.4088,-1.4088,-1.4088,-1.4088,-1.343,-1.2672,-1.1895,-1.114,-1.0351,-0.9579,-0.9579,-0.9579,-0.9579,-0.9579,-0.9579,-0.9579,-0.9579,-0.9579,-0.9579,-0.9579,-0.9579,-0.9579,-0.9579,-0.9579,-0.9579,-0.9579,-0.9579,-0.9579,-0.9579,-0.9579,-0.9579,-0.9579,-0.9579,-0.9579,-0.9579,-0.9579,-0.9579,-0.9579,-0.9579,-0.9579,-0.9579,-0.9579,-0.9579,-0.9579,-0.9579,-0.9579,-0.9579,-0.9762,-0.9872,-0.9872,-1.0018,-1.014,-1.0096,-0.9294,-0.8452,-0.7623,-0.6782,-0.5941,-0.5153,-0.5104,-0.5106,-0.5102,-0.5104,-0.5104,-0.5094,-0.5098,-0.5059,-0.4969,-0.4965,-0.4922,-0.4786,-0.4784,-0.4284,-0.318,-0.323,-0.2676,-0.1617,-0.1617,-0.1617,0.0,0.0,0.0,0.0,0.0,0.0,0.0,0.0,0.0,0.0,0.0,0.0,0.0,0.0,0.0,0.0,0.0,0.0,0.0,0.0,0.0,0.0,0.0,0.0,0.0,0.0,0.0,0.0,0.0,0.0,-1.4088,-1.4088,-1.4088,-1.4088,-1.4088,-1.4088,-1.4088,-1.3841,-1.3194,-1.2159,-1.1671,-1.1065,-1.0329,-0.9821,-0.9969,-1.0609,-1.0265,-1.0117,-1.0068,-0.9723,-0.9826,-1.0068,-0.9727,-0.9579,-0.9579,-0.9579,-0.9579,-0.9579,-0.9579,-0.9579,-0.9579,-0.9579,-0.9579,-0.9579,-0.9579,-0.9579,-0.9579,-0.9579,-0.9579,-0.9579,-0.9579,-0.9579,-0.9579,-0.9579,-0.9579,-0.9579,-0.9579,-0.9579,-0.9579,-0.9579,-0.9766,-0.9884,-0.9884,-1.009,-0.983,-0.8821,-0.8325,-0.756,-0.6205,-0.5784,-0.5463,-0.5196,-0.5247,-0.5259,-0.5146,-0.5249,-0.5233,-0.5116,-0.5163,-0.5128,-0.5029,-0.5023,-0.4928,-0.4786,-0.4784,-0.4284,-0.318,-0.318,-0.2625,-0.1617,-0.1617,-0.1617,0.0,0.0,0.0,0.0,0.0,0.0,0.0,0.0,0.0,0.0,0.0,0.0,0.0,0.0,0.0,0.0,0.0,0.0,0.0,0.0,0.0,0.0,0.0,0.0,0.0,0.0,0.0,0.0,0.0,0.0,-1.4088,-1.4088,-1.4088,-1.4088,-1.4166,-1.4201,-1.4201,-1.4039,-1.3446,-1.238,-1.1968,-1.14,-1.0693,-1.0228,-1.0414,-1.1051,-1.0774,-1.0654,-1.0659,-1.0265,-1.0216,-1.0359,-1.0216,-0.992,-0.9628,-0.9826,-0.9776,-0.9579,-0.9579,-0.9579,-0.9579,-0.9579,-0.9579,-0.9579,-0.9579,-0.9579,-0.9579,-0.9579,-0.9579,-0.9579,-0.9579,-0.9579,-0.9579,-0.9579,-0.9673,-0.9713,-0.9713,-0.9713,-0.9713,-0.9713,-0.9908,-1.0071,-1.0071,-1.0221,-1.0006,-0.8923,-0.8471,-0.7693,-0.6314,-0.5889,-0.5619,-0.529,-0.5345,-0.5357,-0.5296,-0.5347,-0.5331,-0.5208,-0.5257,-0.5222,-0.5069,-0.5063,-0.5006,-0.4883,-0.4881,-0.4412,-0.3482,-0.3482,-0.2927,-0.1869,-0.1869,-0.1768,0.0,0.0,0.0,0.0,0.0,0.0,0.0,0.0,0.0,0.0,0.0,0.0,0.0,0.0,0.0,0.0,0.0,0.0,0.0,0.0,0.0,0.0,0.0,0.0,0.0,0.0,0.0,0.0,0.0,0.0,-1.4088,-1.4088,-1.4088,-1.4088,-1.4279,-1.4398,-1.4398,-1.3942,-1.3347,-1.2583,-1.1943,-1.1271,-1.0519,-1.0688,-1.0786,-1.0853,-1.1099,-1.1238,-1.1243,-1.1194,-1.0904,-1.0462,-1.1002,-1.0511,-0.9677,-1.0167,-1.0068,-0.9579,-0.9579,-0.9579,-0.9579,-0.9579,-0.9579,-0.9579,-0.9579,-0.9579,-0.9579,-0.9579,-0.9579,-0.9579,-0.9579,-0.9579,-0.9579,-0.9579,-0.9758,-0.988,-0.9884,-0.9888,-0.9892,-0.9892,-1.0188,-1.0383,-1.0383,-1.0578,-1.0692,-1.0692,-0.9915,-0.9027,-0.8085,-0.7207,-0.6381,-0.5493,-0.5382,-0.5382,-0.5382,-0.5382,-0.5382,-0.5382,-0.5382,-0.5341,-0.5194,-0.519,-0.5159,-0.5031,-0.5025,-0.4673,-0.4036,-0.4034,-0.3478,-0.2422,-0.2422,-0.2119,-0.735,0.0,0.0,0.0,0.0,0.0,0.0,0.0,0.0,0.0,0.0,0.0,0.0,0.0,0.0,0.0,0.0,0.0,0.0,0.0,0.0,0.0,0.0,0.0,0.0,0.0,0.0,0.0,0.0,-1.4088,-1.4088,-1.4088,-1.4088,-1.4088,-1.4279,-1.4398,-1.4398,-1.4398,-1.389,-1.2893,-1.2514,-1.1982,-1.1351,-1.0837,-1.1073,-1.1941,-1.1622,-1.1834,-1.2322,-1.1536,-1.1096,-1.0949,-1.0703,-1.0216,-0.9628,-0.9776,-0.9727,-0.9579,-0.9579,-0.9579,-0.9579,-0.9579,-0.9579,-0.9579,-0.9579,-0.9579,-0.9579,-0.9579,-0.9579,-0.9579,-0.9579,-0.9579,-0.9579,-0.9579,-0.9665,-0.9734,-0.9855,-0.9989,-1.0139,-1.0139,-1.0274,-1.0383,-1.0383,-1.0578,-1.0468,-0.986,-0.9526,-0.8809,-0.7263,-0.6824,-0.6381,-0.5493,-0.5382,-0.5382,-0.5382,-0.5382,-0.5382,-0.5382,-0.5382,-0.5341,-0.5194,-0.519,-0.5136,-0.5073,-0.5006,-0.4907,-0.473,-0.4212,-0.363,-0.2977,-0.2573,-0.2321,0.0,0.0,0.0,0.0,0.0,0.0,0.0,0.0,0.0,0.0,0.0,0.0,0.0,0.0,0.0,0.0,0.0,0.0,0.0,0.0,0.0,0.0,0.0,0.0,0.0,0.0,0.0,0.0,-1.4088,-1.4088,-1.4088,-1.4088,-1.4124,-1.4201,-1.4398,-1.4566,-1.4699,-1.4608,-1.423,-1.3597,-1.285,-1.2319,-1.1948,-1.1291,-1.1482,-1.2269,-1.2036,-1.2161,-1.2419,-1.178,-1.1389,-1.1145,-1.0855,-1.0265,-0.9628,-0.9875,-0.9772,-0.9579,-0.9579,-0.9579,-0.9579,-0.9579,-0.9579,-0.9579,-0.9579,-0.9579,-0.9579,-0.9579,-0.9579,-0.9579,-0.9579,-0.9579,-0.9644,-0.9717,-0.9795,-0.99,-1.0075,-1.0257,-1.0359,-1.029,-1.042,-1.0542,-1.0542,-1.0627,-1.0527,-1.0025,-0.9915,-0.9306,-0.7485,-0.7263,-0.6765,-0.5549,-0.5382,-0.5382,-0.5382,-0.5382,-0.5382,-0.5382,-0.5382,-0.5357,-0.5304,-0.5302,-0.5259,-0.5167,-0.5112,-0.5049,-0.5023,-0.4575,-0.4083,-0.3531,-0.2977,-0.2623,0.0,0.0,0.0,0.0,0.0,0.0,0.0,-0.9517,0.0,0.0,0.0,0.0,0.0,0.0,0.0,0.0,0.0,0.0,0.0,0.0,0.0,0.0,0.0,0.0,0.0,0.0,0.0,-1.4088,-1.413,-1.4124,-1.4088,-1.413,-1.4243,-1.4398,-1.4608,-1.4866,-1.509,-1.4699,-1.4482,-1.4398,-1.3209,-1.2534,-1.2369,-1.1954,-1.189,-1.2105,-1.228,-1.2231,-1.198,-1.1932,-1.1585,-1.1096,-1.1096,-1.0511,-0.9677,-1.0117,-1.0019,-0.9579,-0.9579,-0.9579,-0.9579,-0.9579,-0.9579,-0.9579,-0.9579,-0.9579,-0.9579,-0.9579,-0.9579,-0.9579,-0.9579,-0.9579,-0.9669,-0.9843,-1.0061,-1.0188,-1.0391,-1.0554,-1.0623,-1.0435,-1.0586,-1.0692,-1.0692,-1.0692,-1.0692,-1.0692,-1.0637,-0.9915,-0.8195,-0.7919,-0.7204,-0.5603,-0.5382,-0.5382,-0.5382,-0.5382,-0.5382,-0.5382,-0.5382,-0.5382,-0.5382,-0.5382,-0.5343,-0.5207,-0.5194,-0.5155,-0.5023,-0.4879,-0.4533,-0.4083,-0.3531,-0.2977,0.0,0.0,-0.8998,0.0,0.0,0.0,0.0,-0.8804,0.0,0.0,0.0,0.0,0.0,0.0,0.0,0.0,0.0,0.0,0.0,0.0,0.0,0.0,0.0,0.0,0.0,0.0,0.0,-1.4088,-1.4243,-1.4286,-1.413,-1.4412,-1.4524,-1.4398,-1.4783,-1.5041,-1.509,-1.5173,-1.4915,-1.4398,-1.4139,-1.3421,-1.2412,-1.2287,-1.2214,-1.2094,-1.2143,-1.2078,-1.198,-1.1541,-1.1047,-1.056,-1.056,-1.0167,-0.9628,-0.9727,-0.9677,-0.9579,-0.9579,-0.9579,-0.9579,-0.9579,-0.9579,-0.9579,-0.9579,-0.9579,-0.9579,-0.9579,-0.9579,-0.9579,-0.9579,-0.9579,-0.9669,-0.9843,-0.9912,-1.003,-1.0363,-1.0407,-1.0517,-1.0623,-1.0668,-1.0692,-1.0692,-1.0692,-1.0692,-1.0692,-1.008,-0.9251,-0.814,-0.7371,-0.6546,-0.5493,-0.5382,-0.5382,-0.5382,-0.5382,-0.5382,-0.5382,-0.5382,-0.5382,-0.5382,-0.5382,-0.5373,-0.5355,-0.5282,-0.5155,-0.5023,-0.4879,-0.4734,-0.4634,-0.4083,-0.3581,0.0,0.0,-0.9364,-0.9071,0.0,0.0,0.0,0.0,0.0,0.0,0.0,0.0,0.0,0.0,0.0,0.0,0.0,0.0,0.0,0.0,0.0,0.0,0.0,0.0,0.0,0.0,-1.4286,-1.4412,-1.4405,-1.4356,-1.4243,-1.4531,-1.465,-1.4566,-1.4915,-1.5131,-1.5257,-1.5347,-1.5215,-1.4908,-1.4566,-1.4055,-1.3379,-1.3045,-1.2782,-1.2597,-1.2597,-1.2218,-1.1585,-1.1292,-1.0708,-1.0019,-1.0019,-0.9821,-0.9579,-0.9579,-0.9579,-0.9579,-0.9579,-0.9579,-0.9579,-0.9579,-0.9579,-0.9579,-0.9579,-0.9579,-0.9579,-0.9579,-0.9579,-0.9579,-0.9579,-0.9693,-0.9803,-0.9981,-1.0091,-1.0233,-1.0505,-1.0562,-1.059,-1.0676,-1.0692,-1.0692,-1.0692,-1.0692,-1.0692,-1.0692,-0.997,-0.9082,-0.814,-0.7263,-0.6381,-0.5493,-0.5382,-0.5382,-0.5382,-0.5382,-0.5382,-0.5382,-0.5382,-0.5382,-0.5382,-0.5382,-0.5382,-0.5382,-0.529,-0.5146,-0.5106,-0.5016,-0.4873,-0.4784,-0.4533,-0.4133,0.0,0.0,0.0,0.0,0.0,-0.9072,0.0,0.0,0.0,-0.934,0.0,0.0,0.0,0.0,0.0,0.0,0.0,0.0,0.0,0.0,0.0,0.0,0.0,0.0,0.0,0.0,0.0,-1.4685,-1.4497,-1.44,-1.4433,-1.4692,-1.4824,-1.4783,-1.4999,-1.5257,-1.5389,-1.5389,-1.5389,-1.5389,-1.4866,-1.4524,-1.4398,-1.391,-1.353,-1.3326,-1.3243,-1.259,-1.1531,-1.1389,-1.0801,-0.9871,-0.9677,-0.9579,-0.9579,-0.9579,-0.9579,-0.9579,-0.9579,-0.9579,-0.9579,-0.9579,-0.9579,-0.9579,-0.9579,-0.9579,-0.9579,-0.9579,-0.9579,-0.9587,-0.9669,-0.9778,-0.9941,-1.016,-1.0327,-1.0481,-1.0655,-1.0692,-1.0692,-1.0692,-1.0692,-1.0692,-1.0692,-1.0692,-1.0692,-1.0692,-0.997,-0.9082,-0.814,-0.7263,-0.6381,-0.5493,-0.5382,-0.5382,-0.5382,-0.5382,-0.5382,-0.5382,-0.5382,-0.5382,-0.5382,-0.5382,-0.5382,-0.5382,-0.5308,-0.5209,-0.519,-0.5169,-0.5049,-0.4837,-0.4837,-0.4583,0.0,0.0,0.0,0.0,-1.0187,0.0,0.0,0.0,0.0,-0.8636,0.0,0.0,0.0,0.0,0.0,0.0,0.0,0.0,0.0,0.0,0.0,0.0,0.0,0.0,0.0,0.0,0.0,0.0,-1.4351,-1.428,-1.4664,-1.5082,-1.5257,-1.5048,-1.5264,-1.5389,-1.5389,-1.5389,-1.5389,-1.5389,-1.5298,-1.4999,-1.4405,-1.4636,-1.4498,-1.4057,-1.3709,-1.3307,-1.2834,-1.2165,-1.1536,-1.09,-0.9969,-0.9579,-0.9579,-0.9579,-0.9579,-0.9579,-0.9579,-0.9579,-0.9579,-0.9579,-0.9579,-0.9579,-0.9579,-0.9579,-0.9579,-0.9579,-0.9579,-0.9661,-0.9815,-0.9868,-0.9973,-1.0322,-1.0366,-1.0481,-1.0655,-1.0692,-1.0692,-1.0692,-1.0692,-1.0692,-1.0692,-1.0692,-1.0692,-1.0692,-0.997,-0.9082,-0.814,-0.7263,-0.6381,-0.5493,-0.5382,-0.5382,-0.5382,-0.5382,-0.5382,-0.5382,-0.5382,-0.5382,-0.5382,-0.5382,-0.5382,-0.5382,-0.5371,-0.5326,-0.519,-0.518,-0.5122,-0.5077,-0.5077,-0.4761,0.0,0.0,0.0,0.0,0.0,0.0,0.0,0.0,-0.8938,0.0,0.0,0.0,0.0,0.0,0.0,0.0,0.0,0.0,0.0,0.0,0.0,0.0,0.0,0.0,0.0,0.0,0.0,0.0,0.0,-1.4251,-1.4618,-1.5114,-1.5305,-1.509,-1.5298,-1.5389,-1.5389,-1.5389,-1.5389,-1.5389,-1.5389,-1.5257,-1.5006,-1.5141,-1.5023,-1.4757,-1.4157,-1.3567,-1.3022,-1.2311,-1.1683,-1.1145,-1.0703,-1.0364,-1.0019,-0.9727,-0.9579,-0.9579,-0.9579,-0.9579,-0.9579,-0.9579,-0.9579,-0.9599,-0.9746,-0.9778,-0.9799,-0.9908,-0.9937,-0.9953,-1.0026,-1.0123,-1.0241,-1.0346,-1.0513,-1.0603,-1.0676,-1.0692,-1.0692,-1.0692,-1.0692,-1.0692,-1.0692,-1.0692,-1.0692,-1.0692,-0.997,-0.9082,-0.814,-0.7263,-0.6381,-0.5493,-0.5382,-0.5382,-0.5382,-0.5382,-0.5382,-0.5382,-0.5382,-0.5382,-0.5382,-0.5382,-0.5382,-0.5382,-0.5382,-0.5363,-0.5324,-0.5324,-0.5304,-0.5263,-0.5157,-0.5002,-1.187,0.0,0.0,0.0,0.0,0.0,0.0,0.0,0.0,0.0,0.0,0.0,0.0,0.0,0.0,0.0,0.0,0.0,0.0,0.0,0.0,0.0,0.0,0.0,0.0,0.0,0.0,0.0,0.0,0.0,-1.4662,-1.5044,-1.5253,-1.5166,-1.5305,-1.5389,-1.5389,-1.5389,-1.5389,-1.5389,-1.5389,-1.5389,-1.5389,-1.5484,-1.5548,-1.5466,-1.483,-1.4223,-1.3607,-1.284,-1.217,-1.1634,-1.1487,-1.1194,-1.0752,-1.0068,-0.9826,-0.9772,-0.9628,-0.9579,-0.9579,-0.9579,-0.9579,-0.9661,-0.9831,-0.9884,-0.9912,-1.0102,-1.0175,-1.0212,-1.0212,-1.0298,-1.0395,-1.0493,-1.0603,-1.0692,-1.0692,-1.0692,-1.0692,-1.0692,-1.0692,-1.0692,-1.0692,-1.0692,-1.0692,-1.0692,-0.997,-0.9082,-0.814,-0.7263,-0.6381,-0.5493,-0.5382,-0.5382,-0.5382,-0.5382,-0.5382,-0.5382,-0.5382,-0.5382,-0.5382,-0.5382,-0.5382,-0.5382,-0.5382,-0.5382,-0.5382,-0.5212,-0.5156,-0.5152,-0.5025,-0.4911,0.0,0.0,0.0,0.0,0.0,0.0,0.0,0.0,-1.0,0.0,0.0,0.0,0.0,0.0,0.0,0.0,0.0,0.0,0.0,0.0,0.0,0.0,0.0,0.0,0.0,0.0,0.0,0.0,0.0,0.0,-1.4834,-1.4915,-1.5061,-1.5374,-1.5389,-1.5389,-1.5389,-1.5389,-1.5389,-1.5389,-1.5389,-1.5389,-1.5396,-1.576,-1.6067,-1.6337,-1.5868,-1.5431,-1.4956,-1.419,-1.3426,-1.2716,-1.2175,-1.198,-1.1829,-1.0752,-1.0364,-1.0314,-0.9772,-0.9579,-0.9579,-0.9579,-0.9579,-0.9661,-0.9831,-0.9884,-0.9888,-0.9892,-1.0073,-1.0212,-1.0212,-1.0298,-1.0423,-1.0643,-1.0688,-1.0692,-1.0692,-1.0692,-1.0692,-1.0692,-1.0692,-1.0692,-1.0692,-1.0692,-1.0692,-1.0692,-0.997,-0.9082,-0.814,-0.7263,-0.6381,-0.5493,-0.5382,-0.5382,-0.5382,-0.5382,-0.5382,-0.5382,-0.5382,-0.5382,-0.5382,-0.5382,-0.5382,-0.5382,-0.5382,-0.5382,-0.5382,-0.4817,-0.4536,-0.4536,-0.4531,-0.4529,0.0,0.0,-1.3033,-1.1785,0.0,0.0,0.0,0.0,0.0,0.0,0.0,0.0,0.0,0.0,0.0,0.0,0.0,0.0,0.0,0.0,0.0,0.0,0.0,0.0,0.0,0.0,0.0,0.0,0.0,0.0,0.0,-1.4791,-1.5053,-1.5374,-1.5389,-1.5389,-1.5389,-1.5389,-1.5389,-1.5389,-1.5389,-1.5389,-1.5396,-1.5767,-1.6082,-1.6382,-1.5882,-1.5491,-1.5051,-1.4238,-1.348,-1.2759,-1.2613,-1.2516,-1.2419,-1.134,-1.0703,-1.0314,-0.9772,-0.9579,-0.9579,-0.9579,-0.9579,-0.9661,-0.9831,-0.9969,-1.0147,-1.0217,-1.0375,-1.0513,-1.0513,-1.0558,-1.059,-1.0538,-1.0607,-1.066,-1.0546,-1.0611,-1.0692,-1.0692,-1.0692,-1.0692,-1.0692,-1.0692,-1.0692,-1.0692,-0.997,-0.9082,-0.814,-0.7263,-0.6381,-0.5493,-0.5382,-0.5382,-0.5382,-0.5382,-0.5382,-0.5382,-0.5382,-0.5382,-0.5382,-0.5382,-0.5382,-0.5382,-0.5382,-0.5382,-0.5382,-0.4817,-0.448,-0.4479,-0.3699,-0.3531,-1.3353,-1.346,0.0,0.0,-1.1877,0.0,0.0,0.0,0.0,0.0,0.0,0.0,0.0,0.0,0.0,0.0,0.0,0.0,0.0,0.0,0.0,0.0,0.0,0.0,0.0,0.0,-1.1204,-1.2404,0.0,0.0,0.0,0.0,-1.4878,-1.5206,-1.533,-1.5389,-1.5389,-1.5389,-1.5389,-1.5389,-1.5389,-1.5389,-1.5396,-1.5767,-1.6082,-1.6382,-1.6206,-1.5724,-1.5051,-1.4526,-1.3715,-1.2813,-1.2813,-1.2813,-1.2716,-1.1834,-1.0998,-1.0364,-1.0019,-0.9776,-0.9579,-0.9579,-0.9579,-0.9673,-0.9908,-1.0118,-1.0253,-1.0383,-1.0558,-1.0676,-1.0615,-1.0647,-1.0664,-1.0554,-1.0611,-1.0664,-1.055,-1.0611,-1.0692,-1.0692,-1.0692,-1.0692,-1.0692,-1.0692,-1.0692,-1.0692,-0.9691,-0.8696,-0.8085,-0.6985,-0.6047,-0.5437,-0.5382,-0.5382,-0.5382,-0.5382,-0.5382,-0.5382,-0.5382,-0.5382,-0.5382,-0.5382,-0.5382,-0.5382,-0.5382,-0.5268,-0.5098,-0.448,-0.4089,-0.381,-0.2861,-0.258]},{"header":{"parameterUnit":"m.s-1","parameterCategory":1,"la1":30.6,"la2":29.2853,"lo1":-89.7004,"lo2":-87.6739,"dy":0.0162,"dx":0.0183,"nx":112,"ny":82,"refTime":"2025-01-20T06:00:00:Z","depth":0,"parameterNumber":3,"parameterNumberName":"V-component_of_WINDS"},"data":[0.0,0.0,0.0,0.0,0.0,0.0,0.0,0.0,0.0,0.0,0.0,0.0,0.0,0.0,0.0,0.0,0.0,0.0,0.0,0.0,0.0,0.0,0.0,0.0,0.0,0.0,0.0,0.0,0.0,0.0,0.0,0.0,0.0,0.0,0.0,0.0,0.0,0.0,0.0,0.0,0.0,0.0,0.0,0.0,0.0,0.0,0.0,0.0,0.0,0.0,0.0,0.0,0.0,0.0,0.0,0.0,0.0,0.0,0.0,0.0,0.0,0.0,0.0,0.0,0.0,0.0,0.0,0.0,0.0,0.0,0.0,0.0,0.0,0.0,0.0,0.0,0.0,0.0,0.0,0.0,0.0,0.0,0.0,0.0,0.0,0.0,0.0,0.0,0.0,0.0,0.0,2.2466,2.3779,2.4557,2.4508,2.45,2.38,2.2193,0.0,0.0,0.0,0.0,0.0,0.0,0.0,0.0,0.0,0.0,0.0,0.0,0.0,0.0,0.0,0.0,0.0,0.0,0.0,0.0,0.0,0.0,0.0,0.0,0.0,0.0,0.0,0.0,0.0,0.0,0.0,0.0,0.0,0.0,0.0,0.0,0.0,0.0,0.0,0.0,0.0,0.0,0.0,0.0,0.0,0.0,0.0,0.0,0.0,0.0,0.0,0.0,0.0,0.0,0.0,0.0,0.0,0.0,0.0,0.0,0.0,0.0,0.0,0.0,0.0,0.0,0.0,0.0,0.0,0.0,0.0,0.0,0.0,0.0,0.0,0.0,0.0,0.0,0.0,0.0,0.0,0.0,0.0,0.0,0.0,0.0,0.0,0.0,0.0,0.0,0.0,0.0,0.0,0.0,0.0,0.0,0.0,0.0,0.0,0.0,0.0,0.0,0.0,0.0,2.1972,2.4095,2.4441,2.4517,2.45,2.45,2.38,2.2193,0.0,0.0,0.0,0.0,0.0,0.0,0.0,0.0,0.0,0.0,0.0,0.0,0.0,0.0,0.0,0.0,0.0,0.0,0.0,0.0,0.0,0.0,0.0,0.0,0.0,0.0,0.0,0.0,0.0,0.0,0.0,0.0,0.0,0.0,0.0,0.0,0.0,0.0,0.0,0.0,0.0,0.0,0.0,0.0,0.0,0.0,0.0,0.0,0.0,0.0,0.0,0.0,0.0,0.0,0.0,0.0,0.0,0.0,0.0,0.0,0.0,0.0,0.0,0.0,0.0,0.0,0.0,0.0,0.0,0.0,0.0,0.0,0.0,0.0,0.0,0.0,0.0,0.0,0.0,0.0,0.0,0.0,0.0,0.0,0.0,0.0,0.0,0.0,0.0,0.0,0.0,0.0,0.0,0.0,0.0,0.0,0.0,0.0,0.0,0.0,0.0,0.0,0.0,2.2121,2.3068,2.5083,2.521,2.4964,2.4537,2.45,2.3802,2.2143,2.0885,0.0,0.0,0.0,0.0,0.0,0.0,0.0,0.0,0.0,0.0,0.0,0.0,0.0,0.0,0.0,0.0,0.0,0.0,0.0,0.0,0.0,0.0,0.0,0.0,0.0,0.0,0.0,0.0,0.0,0.0,0.0,0.0,0.0,0.0,0.0,0.0,0.0,0.0,0.0,0.0,0.0,0.0,0.0,0.0,0.0,0.0,0.0,0.0,0.0,0.0,0.0,0.0,0.0,0.0,0.0,0.0,0.0,0.0,0.0,0.0,0.0,0.0,0.0,0.0,0.0,0.0,0.0,0.0,0.0,0.0,0.0,0.0,0.0,0.0,0.0,0.0,0.0,0.0,0.0,0.0,0.0,0.0,0.0,0.0,0.0,0.0,0.0,0.0,0.0,0.0,0.0,0.0,0.0,0.0,0.0,0.0,0.0,0.0,0.0,0.0,0.0,0.0,2.4108,2.4445,2.5968,2.589,2.5474,2.4834,2.4417,2.3572,2.2089,2.0307,0.0,0.0,0.0,0.0,0.0,0.0,0.0,0.0,0.0,0.0,0.0,0.0,0.0,0.0,0.0,0.0,0.0,0.0,0.0,0.0,0.0,0.0,0.0,0.0,0.0,0.0,0.0,0.0,0.0,0.0,0.0,0.0,0.0,0.0,0.0,0.0,0.0,0.0,0.0,0.0,0.0,0.0,0.0,0.0,0.0,0.0,0.0,0.0,0.0,0.0,0.0,0.0,0.0,0.0,0.0,0.0,0.0,0.0,0.0,0.0,0.0,0.0,0.0,0.0,0.0,0.0,0.0,0.0,0.0,0.0,0.0,0.0,0.0,0.0,0.0,0.0,0.0,0.0,0.0,0.0,0.0,0.0,0.0,0.0,0.0,0.0,0.0,0.0,0.0,0.0,0.0,0.0,0.0,0.0,0.0,0.0,0.0,0.0,0.0,0.0,0.0,0.0,2.496,2.6145,2.7008,2.6322,2.5731,2.5642,2.4185,2.2924,2.2052,1.9731,0.0,0.0,0.0,0.0,0.0,0.0,0.0,0.0,0.0,0.0,0.0,0.0,0.0,0.0,0.0,0.0,0.0,0.0,0.0,0.0,0.0,0.0,0.0,0.0,0.0,0.0,0.0,0.0,0.0,0.0,0.0,0.0,0.0,0.0,0.0,0.0,0.0,0.0,0.0,0.0,0.0,0.0,0.0,0.0,0.0,0.0,0.0,0.0,0.0,0.0,0.0,0.0,0.0,0.0,0.0,0.0,0.0,0.0,0.0,0.0,0.0,0.0,0.0,0.0,0.0,0.0,0.0,0.0,0.0,0.0,0.0,0.0,0.0,0.0,0.0,0.0,0.0,0.0,0.0,0.0,0.0,0.0,0.0,0.0,0.0,0.0,0.0,0.0,0.0,0.0,0.0,0.0,0.0,0.0,0.0,0.0,0.0,0.0,0.0,0.0,0.0,0.0,2.5812,2.7096,0.0,2.7639,2.6942,2.5861,2.5158,2.3981,2.2126,0.0,0.0,0.0,0.0,0.0,0.0,0.0,0.0,0.0,0.0,0.0,0.0,0.0,0.0,0.0,0.0,0.0,0.0,0.0,0.0,0.0,0.0,0.0,0.0,0.0,0.0,0.0,0.0,0.0,0.0,0.0,0.0,0.0,0.0,0.0,0.0,0.0,0.0,0.0,0.0,0.0,0.0,0.0,0.0,0.0,0.0,0.0,0.0,0.0,0.0,0.0,0.0,0.0,0.0,0.0,0.0,0.0,0.0,0.0,0.0,0.0,0.0,0.0,0.0,0.0,0.0,0.0,0.0,0.0,0.0,0.0,0.0,0.0,0.0,0.0,0.0,0.0,0.0,0.0,0.0,0.0,0.0,0.0,0.0,0.0,0.0,0.0,0.0,0.0,0.0,0.0,0.0,0.0,0.0,0.0,0.0,0.0,0.0,0.0,0.0,0.0,0.0,2.4693,2.6575,2.801,0.0,2.8629,2.78,2.6343,2.5685,2.4395,2.2145,0.0,0.0,0.0,0.0,0.0,0.0,0.0,0.0,0.0,0.0,0.0,0.0,0.0,0.0,0.0,0.0,0.0,0.0,0.0,0.0,0.0,0.0,0.0,0.0,0.0,0.0,0.0,0.0,0.0,0.0,0.0,0.0,0.0,0.0,0.0,0.0,0.0,0.0,0.0,0.0,0.0,0.0,0.0,0.0,0.0,0.0,0.0,0.0,0.0,0.0,0.0,0.0,0.0,0.0,0.0,0.0,0.0,0.0,0.0,0.0,0.0,0.0,0.0,0.0,0.0,0.0,0.0,0.0,0.0,0.0,0.0,0.0,0.0,0.0,0.0,0.0,0.0,0.0,0.0,0.0,0.0,0.0,0.0,0.0,0.0,0.0,0.0,0.0,0.0,0.0,0.0,0.0,0.0,0.0,0.0,0.0,0.0,0.0,0.0,0.0,0.0,0.0,2.4795,2.7176,2.8993,2.9722,2.9081,2.8211,2.7184,2.5585,2.3881,0.0,0.0,0.0,0.0,0.0,0.0,0.0,0.0,0.0,0.0,0.0,0.0,0.0,0.0,0.0,0.0,0.0,0.0,0.0,0.0,0.0,0.0,0.0,0.0,0.0,0.0,0.0,0.0,0.0,0.0,0.0,0.0,0.0,0.0,0.0,0.0,0.0,0.0,0.0,0.0,0.0,0.0,0.0,0.0,0.0,0.0,0.0,0.0,0.0,0.0,0.0,0.0,0.0,0.0,0.0,0.0,0.0,0.0,0.0,0.0,0.0,0.0,0.0,0.0,0.0,0.0,0.0,0.0,0.0,0.0,0.0,0.0,0.0,0.0,0.0,0.0,0.0,0.0,0.0,0.0,0.0,0.0,0.0,0.0,0.0,0.0,0.0,0.0,0.0,0.0,0.0,0.0,0.0,0.0,0.0,0.0,0.0,0.0,0.0,0.0,0.0,0.0,0.0,0.0,2.7669,2.9674,2.9992,2.9763,2.8971,2.7447,2.6761,2.5164,2.2197,0.0,0.0,0.0,0.0,0.0,0.0,0.0,0.0,0.0,0.0,0.0,0.0,0.0,0.0,0.0,0.0,0.0,0.0,0.0,0.0,0.0,0.0,0.0,0.0,0.0,0.0,0.0,0.0,0.0,0.0,0.0,0.0,0.0,0.0,0.0,0.0,0.0,0.0,0.0,0.0,0.0,0.0,0.0,0.0,0.0,0.0,0.0,0.0,0.0,0.0,0.0,0.0,0.0,0.0,0.0,0.0,0.0,0.0,0.0,0.0,0.0,0.0,0.0,0.0,0.0,0.0,0.0,0.0,0.0,0.0,0.0,0.0,0.0,0.0,0.0,0.0,0.0,0.0,0.0,0.0,0.0,0.0,0.0,0.0,0.0,0.0,0.0,0.0,0.0,0.0,0.0,0.0,0.0,0.0,0.0,0.0,0.0,0.0,0.0,0.0,0.0,0.0,2.4974,2.7996,3.0094,3.0166,3.0138,2.9401,2.763,2.7362,2.5808,2.2335,0.0,0.0,0.0,0.0,0.0,0.0,0.0,0.0,0.0,0.0,0.0,0.0,0.0,0.0,0.0,0.0,0.0,0.0,0.0,0.0,0.0,0.0,0.0,0.0,0.0,0.0,0.0,0.0,0.0,0.0,0.0,0.0,0.0,0.0,0.0,0.0,0.0,0.0,0.0,0.0,0.0,0.0,0.0,0.0,0.0,0.0,0.0,0.0,0.0,0.0,0.0,0.0,0.0,0.0,0.0,0.0,0.0,0.0,0.0,0.0,0.0,0.0,0.0,0.0,0.0,0.0,0.0,0.0,0.0,0.0,0.0,0.0,0.0,0.0,0.0,0.0,0.0,0.0,0.0,0.0,0.0,0.0,0.0,0.0,0.0,0.0,0.0,0.0,0.0,0.0,0.0,0.0,0.0,0.0,0.0,0.0,0.0,0.0,0.0,0.0,0.0,0.0,2.5097,2.8183,3.0292,3.0305,3.0305,2.9615,2.7873,2.7537,2.6036,2.2732,0.0,0.0,0.0,0.0,0.0,0.0,0.0,0.0,0.0,0.0,0.0,0.0,0.0,0.0,0.0,0.0,0.0,0.0,0.0,0.0,0.0,0.0,0.0,0.0,0.0,0.0,0.0,0.0,0.0,0.0,0.0,0.0,0.0,0.0,0.0,0.0,0.0,0.0,0.0,0.0,0.0,0.0,0.0,0.0,0.0,0.0,0.0,0.0,0.0,0.0,0.0,0.0,0.0,0.0,0.0,0.0,0.0,0.0,0.0,0.0,2.1397,0.0,0.0,0.0,0.0,0.0,0.0,0.0,0.0,0.0,0.0,0.0,0.0,0.0,0.0,0.0,0.0,0.0,0.0,0.0,0.0,0.0,0.0,0.0,0.0,0.0,0.0,0.0,0.0,0.0,0.0,0.0,0.0,0.0,0.0,0.0,0.0,0.0,0.0,0.0,0.0,0.0,2.5097,2.8183,3.0324,3.0377,3.0389,2.9929,2.8806,2.8056,2.6664,2.4415,0.0,0.0,0.0,0.0,0.0,0.0,0.0,0.0,0.0,0.0,0.0,0.0,0.0,0.0,0.0,0.0,0.0,0.0,0.0,0.0,0.0,0.0,0.0,0.0,0.0,0.0,0.0,0.0,0.0,0.0,0.0,0.0,0.0,0.0,0.0,0.0,0.0,0.0,0.0,0.0,0.0,0.0,0.0,0.0,0.0,0.0,0.0,0.0,0.0,0.0,0.0,0.0,0.0,0.0,0.0,0.0,0.0,0.0,0.0,0.0,0.0,2.2829,0.0,0.0,0.0,0.0,0.0,0.0,0.0,0.0,0.0,0.0,0.0,0.0,0.0,0.0,0.0,0.0,0.0,0.0,0.0,0.0,0.0,0.0,0.0,0.0,0.0,0.0,0.0,0.0,0.0,0.0,0.0,0.0,0.0,0.0,0.0,0.0,0.0,0.0,0.0,0.0,2.6396,2.8837,3.0601,3.103,3.0727,3.0123,2.922,2.8648,2.7368,2.5126,2.3239,0.0,0.0,0.0,0.0,0.0,0.0,0.0,0.0,0.0,0.0,0.0,0.0,0.0,0.0,0.0,0.0,0.0,0.0,0.0,0.0,0.0,0.0,0.0,0.0,0.0,0.0,0.0,0.0,0.0,0.0,0.0,0.0,0.0,0.0,0.0,0.0,0.0,0.0,0.0,0.0,0.0,0.0,0.0,0.0,0.0,0.0,0.0,0.0,0.0,0.0,0.0,0.0,0.0,0.0,0.0,2.6587,2.6587,2.703,2.7723,2.6272,2.5749,2.5794,0.0,0.0,0.0,0.0,0.0,0.0,0.0,0.0,0.0,0.0,0.0,0.0,0.0,0.0,0.0,0.0,0.0,0.0,0.0,0.0,0.0,0.0,0.0,0.0,0.0,2.6279,2.6192,0.0,0.0,0.0,0.0,0.0,0.0,0.0,0.0,0.0,0.0,0.0,0.0,2.801,2.9863,3.1236,3.1753,3.1217,3.0462,2.9592,2.9247,2.8145,2.5997,2.4562,2.3155,0.0,0.0,0.0,0.0,0.0,0.0,0.0,0.0,0.0,0.0,0.0,0.0,0.0,0.0,0.0,0.0,0.0,0.0,0.0,0.0,0.0,0.0,0.0,0.0,0.0,0.0,0.0,0.0,0.0,0.0,0.0,0.0,1.916,2.1072,0.0,0.0,0.0,0.0,0.0,0.0,0.0,0.0,0.0,0.0,0.0,0.0,0.0,0.0,2.535,2.697,2.779,2.781,2.9371,3.0127,3.0129,3.0129,3.0602,3.139,3.1171,0.0,2.6671,2.5734,0.0,0.0,0.0,0.0,0.0,0.0,0.0,0.0,0.0,0.0,0.0,0.0,0.0,0.0,0.0,0.0,0.0,0.0,0.0,0.0,0.0,0.0,2.8433,2.7795,2.7737,2.7718,0.0,2.5612,2.3777,2.2766,0.0,0.0,0.0,0.0,0.0,0.0,0.0,0.0,2.8915,3.1255,3.2527,3.1869,3.1715,3.1308,3.0501,2.9719,2.9032,2.8526,2.6282,2.4745,2.4222,2.193,0.0,0.0,0.0,0.0,0.0,0.0,0.0,0.0,0.0,0.0,0.0,0.0,0.0,0.0,0.0,0.0,0.0,0.0,0.0,0.0,0.0,0.0,0.0,0.0,0.0,0.0,0.0,0.0,0.0,1.8594,2.0996,2.1756,2.1815,2.162,0.0,0.0,0.0,0.0,0.0,0.0,0.0,0.0,0.0,2.6539,2.6581,2.7226,2.8554,2.9804,3.0448,3.0448,3.1678,3.2262,3.2257,3.2257,3.2467,3.2829,3.2833,3.1966,3.0406,2.8591,2.7314,2.64,0.0,0.0,0.0,0.0,0.0,0.0,2.8641,0.0,0.0,0.0,0.0,0.0,0.0,0.0,0.0,0.0,0.0,0.0,0.0,0.0,0.0,3.0899,3.0892,3.0868,3.0868,2.9573,2.7748,0.0,2.5147,2.4393,2.1701,0.0,0.0,0.0,0.0,0.0,3.1154,3.2411,3.3146,3.3247,3.2377,3.1657,3.1289,3.0477,2.9747,2.9195,2.8025,2.6803,2.5582,2.3964,2.2224,0.0,0.0,0.0,0.0,0.0,0.0,0.0,0.0,0.0,0.0,0.0,0.0,0.0,0.0,0.0,0.0,0.0,0.0,0.0,0.0,0.0,0.0,0.0,0.0,0.0,0.0,0.0,0.0,2.0858,0.0,2.2234,2.2566,2.2489,0.0,0.0,0.0,0.0,0.0,0.0,2.6644,2.6898,2.7698,2.922,2.9269,2.9976,3.1459,3.2323,3.2773,3.2773,3.3652,3.4062,3.4062,3.4062,3.4061,3.4079,3.4068,3.4061,3.3863,3.1233,2.979,2.905,2.7589,2.7004,0.0,2.866,2.9206,2.9518,3.1683,3.1856,3.1055,3.0645,0.0,2.8639,2.7372,0.0,0.0,0.0,0.0,2.9476,3.07,0.0,3.2423,3.3056,3.3169,3.3122,3.3093,3.2585,3.1308,0.0,2.8354,2.7797,2.5012,0.0,0.0,0.0,0.0,3.0791,3.3126,3.3629,3.3924,3.4355,3.3247,3.2275,3.1831,3.1212,3.0487,2.9656,2.9264,2.8427,2.6975,2.574,2.4332,0.0,0.0,0.0,0.0,0.0,0.0,0.0,0.0,0.0,0.0,0.0,0.0,0.0,0.0,0.0,0.0,0.0,0.0,0.0,0.0,0.0,0.0,0.0,0.0,0.0,0.0,0.0,0.0,0.0,0.0,2.313,2.4497,0.0,0.0,0.0,0.0,2.6684,2.76,2.8479,2.9358,3.0138,3.0958,3.1876,3.1915,3.2345,3.3261,3.4122,3.4571,3.4571,3.5448,3.5868,3.5878,3.5878,3.5879,3.5874,3.5873,3.5873,3.5676,3.3058,3.1936,3.1819,3.0899,3.0548,3.0645,3.1566,3.1897,3.2034,3.3008,3.2754,3.215,3.2949,3.2051,3.0645,3.0567,2.9971,0.0,0.0,3.0597,3.1916,3.1926,3.2576,3.3215,3.321,3.3195,3.3172,3.3113,3.3068,3.2739,0.0,3.0965,3.0153,2.9147,0.0,0.0,3.0211,0.0,3.2319,3.4104,3.5071,3.5264,3.4471,3.4316,3.3596,3.1947,3.1753,3.1357,3.0496,2.9709,2.9152,2.8873,2.7102,2.5667,2.4676,2.2084,0.0,0.0,0.0,0.0,0.0,0.0,0.0,0.0,0.0,0.0,0.0,0.0,0.0,0.0,0.0,0.0,0.0,0.0,0.0,0.0,0.0,0.0,0.0,0.0,0.0,0.0,0.0,0.0,2.6351,2.6991,0.0,0.0,2.7291,2.8062,2.9286,3.0116,3.0902,3.1741,3.2146,3.2995,3.444,3.4523,3.5241,3.6735,3.7049,3.7205,3.7205,3.7518,3.7676,3.7664,3.7664,3.7667,3.7671,3.7636,3.7617,3.7539,3.6593,3.5248,3.3686,3.2806,3.2463,3.264,3.4033,3.4548,3.4669,3.5542,3.5294,3.4475,3.3654,3.2972,3.2464,3.2464,3.2254,3.2122,3.2684,3.3292,3.39,3.4424,3.4763,3.4975,3.4939,3.4892,3.488,3.4834,3.4846,3.4734,3.4383,3.3175,3.1773,3.0385,3.1023,3.1657,3.1405,3.257,3.3905,3.509,3.5516,3.5568,3.5264,3.4723,3.4142,3.3538,3.2435,3.1671,3.1352,3.055,2.9741,2.9035,2.782,2.6657,2.5589,2.3558,2.1662,0.0,0.0,0.0,0.0,0.0,0.0,0.0,0.0,0.0,0.0,0.0,0.0,0.0,0.0,0.0,0.0,0.0,0.0,0.0,0.0,0.0,0.0,0.0,0.0,0.0,0.0,2.7442,2.8568,2.9177,2.9404,2.9138,2.9977,3.1045,3.2255,3.3061,3.3848,3.4691,3.4796,3.5383,3.653,3.6625,3.7221,3.8458,3.85,3.8508,3.8532,3.8585,3.8591,3.8591,3.8591,3.8591,3.8593,3.8544,3.8528,3.8529,3.8534,3.7538,3.5927,3.5356,3.5111,3.5254,3.6366,3.6781,3.686,3.7435,3.7281,3.6657,3.5505,3.5115,3.5115,3.5115,3.5116,3.5234,3.582,3.5996,3.6152,3.6738,3.6834,3.6808,3.6782,3.6744,3.6701,3.6684,3.6676,3.666,3.6614,3.5191,3.3616,3.2517,3.3247,3.3784,3.3209,3.4098,3.5051,3.5626,3.5704,3.5704,3.5704,3.5187,3.4723,3.4432,3.3073,3.2101,3.1811,3.0733,2.9791,2.9137,2.7945,2.6942,2.617,2.4173,2.2245,2.0462,0.0,0.0,0.0,0.0,0.0,0.0,0.0,0.0,0.0,0.0,0.0,0.0,0.0,0.0,0.0,0.0,0.0,0.0,0.0,0.0,0.0,0.0,0.0,2.6952,2.8523,2.9661,2.9657,3.1042,3.1718,3.0978,3.2255,3.3848,3.5538,3.6394,3.7207,3.8031,3.8095,3.8119,3.8139,3.8144,3.8179,3.8287,3.8354,3.8423,3.8497,3.8612,3.8689,3.8689,3.8689,3.8689,3.8689,3.8689,3.8689,3.8689,3.8689,3.864,3.8572,3.8515,3.8493,3.8493,3.8532,3.8532,3.8533,3.8533,3.8513,3.8493,3.8493,3.8493,3.8493,3.8493,3.8496,3.8494,3.8494,3.8545,3.8591,3.8591,3.8596,3.8585,3.8516,3.8493,3.8481,3.8413,3.8412,3.8419,3.8397,3.6995,3.5797,3.5775,3.5778,3.5773,3.5773,3.5753,0.0,3.5748,3.5723,3.5704,3.5704,3.5704,3.5361,3.451,3.3615,3.2739,3.185,3.023,2.9306,2.9306,2.7527,2.6526,2.6502,2.3856,2.1632,1.9912,0.0,0.0,0.0,0.0,0.0,0.0,0.0,0.0,0.0,0.0,0.0,0.0,0.0,0.0,0.0,0.0,0.0,0.0,0.0,0.0,0.0,0.0,2.8558,2.8577,3.0088,3.1633,3.2835,3.394,3.4742,3.5159,3.6016,3.6749,3.7237,3.737,3.7571,3.7809,3.7904,3.8285,3.9015,3.9136,3.9552,4.0309,4.0311,4.0348,4.0352,4.0402,4.0406,4.0406,4.0406,4.0406,4.0406,4.0406,4.0406,4.0406,4.0406,4.0409,4.026,3.8982,3.8496,3.8571,3.9219,3.9431,3.9444,3.9444,3.9053,3.8566,3.8566,3.8566,3.8566,3.8566,3.8563,3.8579,3.8579,3.8595,3.8591,3.8591,3.8596,3.8602,3.8587,3.8573,3.8574,3.8554,3.8551,3.8525,3.8486,3.8061,3.7708,3.767,3.766,3.7638,3.7588,0.0,0.0,3.6585,3.6052,3.5704,3.5704,3.5704,3.5607,3.5361,3.3958,0.0,0.0,3.023,2.9306,2.9306,2.8192,2.7244,2.6507,2.4993,2.3676,0.0,0.0,0.0,0.0,0.0,0.0,0.0,0.0,0.0,0.0,0.0,0.0,0.0,0.0,0.0,0.0,0.0,0.0,0.0,0.0,0.0,0.0,2.9429,3.1353,3.1677,3.2671,3.4003,3.5683,3.6298,3.6752,3.7266,3.7959,3.8366,3.8366,3.8642,3.8782,3.8782,3.8872,3.9164,3.9764,3.9843,4.0176,4.0761,4.0831,4.0848,4.0848,4.0998,4.1042,4.1018,4.1062,4.1109,0.0,4.1109,4.1109,4.1109,4.1109,4.1109,0.0,0.0,0.0,0.0,0.0,4.0338,4.0346,4.0346,4.0036,3.9645,3.9645,3.9645,3.9645,3.9645,3.9645,3.9645,3.9645,3.9645,3.9645,3.9645,3.9648,3.9651,3.9651,3.9657,3.9642,3.9642,3.9646,3.9648,3.9606,0.0,0.0,3.9585,3.8911,3.8383,3.8341,3.7895,3.7538,0.0,3.6742,3.6207,3.6207,3.5897,3.5704,3.5704,0.0,0.0,0.0,0.0,0.0,2.8784,0.0,0.0,0.0,0.0,0.0,0.0,0.0,0.0,0.0,2.3359,2.3463,0.0,0.0,0.0,0.0,0.0,0.0,0.0,0.0,0.0,0.0,0.0,0.0,0.0,0.0,0.0,0.0,3.1755,3.4678,3.5512,3.5829,3.6505,3.7893,3.8033,3.8027,3.8027,3.8695,3.9145,3.9145,3.9862,4.0301,0.0,0.0,0.0,0.0,0.0,4.0336,4.0321,4.0465,4.0519,4.0519,4.0829,4.0954,4.0893,4.1022,4.1085,4.1109,4.1109,4.1109,4.1109,4.1109,4.1109,4.1109,4.1109,4.1109,4.1109,4.1109,4.1109,0.0,0.0,0.0,0.0,4.1109,4.1109,4.1109,4.1109,4.1109,4.1109,4.1109,4.1109,4.1109,4.1109,4.1109,4.1109,4.1109,4.1094,4.1098,4.1098,4.1106,4.1091,4.1092,4.1152,4.1191,4.1191,3.9825,3.8705,3.8717,3.8569,0.0,3.8451,3.7637,3.7061,3.7061,0.0,0.0,3.5839,3.5051,3.4137,3.3165,3.1599,3.0037,2.8494,2.8513,2.8506,2.8343,2.9089,2.9387,2.9216,2.9911,3.0323,3.0357,2.696,2.6192,0.0,0.0,0.0,0.0,0.0,0.0,0.0,0.0,0.0,0.0,0.0,0.0,0.0,0.0,0.0,3.2313,3.4622,3.6553,3.8056,3.8308,3.8205,3.7814,3.8382,3.8786,3.8786,3.9545,4.0053,4.0053,4.0205,4.0301,4.0301,4.0301,0.0,4.0383,4.043,4.0484,4.0545,4.0615,4.0657,4.0657,0.0,0.0,4.0893,4.098,4.1057,4.1109,4.1109,4.1109,4.1109,4.1109,4.1109,4.1109,4.1109,4.1109,4.1109,4.1109,4.1109,4.1109,4.1109,4.1109,4.1109,4.1109,4.1109,4.1109,4.1109,4.1109,0.0,4.1109,4.1109,4.1109,4.1109,4.1109,4.1109,4.1109,4.1094,4.1098,4.1098,4.1104,4.1109,4.1091,4.1112,4.1132,4.1191,4.0897,4.0637,4.0597,3.9964,3.9496,3.9448,3.8618,3.8034,3.8034,3.7834,3.7425,3.6729,3.5916,3.4775,3.3204,3.214,3.1424,3.1076,3.1734,3.1787,3.1062,3.1165,3.1193,3.1154,3.1252,3.1936,3.3089,3.0297,2.9512,0.0,0.0,0.0,0.0,0.0,0.0,0.0,0.0,0.0,0.0,0.0,2.516,0.0,0.0,3.2141,3.4254,3.6375,3.8028,3.8877,3.9374,3.9489,3.9049,3.9393,3.9661,3.9661,4.0034,4.0301,4.0301,4.0301,4.0301,4.0301,4.0301,4.0319,4.0353,4.0386,4.0417,4.045,4.0472,4.0506,4.0511,4.0604,4.0676,4.0698,4.0833,4.0914,4.0958,4.1025,4.1057,4.1059,4.1081,4.1109,4.1148,4.1576,4.1479,4.1109,4.1109,4.1109,4.1109,4.1109,4.1109,4.1109,4.1109,4.1109,4.1109,4.1109,4.1109,4.1109,4.1109,4.1109,4.1109,4.1109,4.1109,4.1109,4.1109,4.1093,4.1094,4.1094,4.1099,4.1104,4.1106,4.1108,4.111,4.1132,4.1152,4.1152,4.1147,4.0748,4.0441,4.04,3.9571,3.8984,3.8939,3.852,3.8053,3.758,3.6419,3.5336,3.4466,3.3165,3.2449,3.2449,3.2875,3.2894,3.2469,3.2849,3.3236,3.3601,3.4007,3.4772,3.5812,3.4522,3.3834,0.0,0.0,0.0,0.0,0.0,0.0,0.0,0.0,2.3938,2.5136,2.644,2.8141,3.0701,3.2993,3.4808,3.5783,3.7808,3.926,3.926,3.9862,4.0301,4.0301,4.0301,4.0301,4.0301,4.0301,4.0301,4.0301,4.0301,4.0301,4.0301,4.0301,4.0301,4.0301,4.0301,4.0301,4.0301,4.0309,4.0309,4.031,4.0411,4.0475,4.0504,4.0678,4.0761,4.0806,4.0902,4.0951,4.0977,4.1203,4.13,4.1378,4.2254,4.2176,4.1554,4.1591,4.15,4.1382,4.1558,4.15,4.1382,4.1558,4.1617,4.1617,4.1617,4.1617,4.1578,4.1402,4.1343,4.1304,4.1148,4.1109,4.1109,4.1109,4.1109,4.1109,4.1109,4.1094,4.1097,4.1098,4.1102,4.1107,4.1091,4.1091,4.1112,4.1191,4.1147,4.1117,4.1117,4.0444,3.9944,3.9906,3.9248,3.8719,3.8481,3.7058,3.6187,3.6187,3.4867,3.4093,3.4093,3.4093,3.4093,3.4093,3.4775,3.5438,3.6042,3.6736,3.7415,3.8093,3.8093,3.7532,2.3356,2.2754,0.0,2.243,2.3082,2.4314,0.0,0.0,2.7797,3.0166,3.0758,3.161,3.4178,3.5507,3.6729,3.8323,3.9461,4.0148,4.0148,4.0244,4.0301,4.0301,4.0301,4.0301,4.0301,4.0301,4.0301,4.0301,4.0301,4.0301,4.0301,4.0301,4.0301,4.0301,4.0301,4.0301,4.0301,4.0291,4.0291,4.0301,4.0326,4.037,4.0499,4.0518,4.0629,4.0801,4.0815,4.0824,4.0882,4.1669,4.1984,4.2081,4.2951,4.3219,4.3164,4.3344,4.2923,4.2376,4.3138,4.2903,4.2376,4.3157,4.3413,4.3413,4.3413,4.3413,4.3255,4.2474,4.2259,4.2084,4.1304,4.1109,4.1109,4.1109,4.1109,4.1109,4.1109,4.1109,4.1093,4.1098,4.1099,4.1101,4.1107,4.1108,4.113,4.1191,4.1191,4.1191,4.1191,4.1043,4.0947,4.0922,4.073,4.0267,3.9435,3.847,3.7922,3.7922,3.7729,3.7632,3.7632,3.7632,3.7632,3.7632,3.7729,3.7825,3.7891,3.8007,3.8421,3.9121,3.9121,3.8581,2.5456,0.0,0.0,0.0,2.5974,2.6637,2.9305,2.9879,3.0579,3.3127,3.3643,3.4388,3.6948,3.7712,3.8353,0.0,4.0053,4.0301,4.0301,4.0301,4.0301,4.0301,4.0301,4.0301,4.0301,4.0301,4.0301,4.0301,4.0301,4.0301,4.0301,4.0301,4.0301,4.0301,4.0301,4.0301,4.0301,4.0301,4.054,4.0998,4.0998,4.1301,4.1839,4.1837,4.194,4.2118,4.1634,4.1734,4.2225,4.2669,4.283,4.2872,4.3762,4.4097,4.4054,4.3669,4.3288,4.3035,4.3405,4.3288,4.3035,4.3405,4.3521,4.3521,4.3521,4.3552,4.3507,4.3134,4.3099,4.3079,4.271,4.224,4.1869,4.1869,4.1479,4.1109,4.1109,4.1109,4.109,4.1093,4.1094,4.1095,4.1101,4.1102,4.1105,4.113,4.1132,4.1152,4.1191,4.117,4.1144,4.1091,4.0974,4.0738,4.0343,3.9483,3.8953,3.8953,3.8489,3.8193,3.8193,3.8682,3.8721,3.8212,3.8702,3.8953,3.8953,3.8953,3.938,4.0165,4.0165,3.9959,2.6446,0.0,0.0,2.8159,2.8741,2.9307,3.1735,3.2454,3.3251,3.5642,3.6136,3.6802,3.8955,3.9355,0.0,4.0205,4.0301,4.0301,4.0301,4.0301,4.0301,4.0301,4.0301,4.0301,4.0301,4.0301,4.0301,4.0301,4.0301,4.0301,4.0301,4.0301,4.0301,4.0301,4.0301,4.0416,4.0635,4.0635,4.1036,4.1858,4.1858,4.2183,4.2795,4.2805,4.2887,4.2994,4.2426,4.2531,4.3143,4.3499,4.3621,4.366,4.4531,4.4879,4.4814,4.4214,4.3887,4.3767,4.4005,4.3927,4.3767,4.4005,4.4083,4.4083,4.4083,4.4117,4.4114,4.388,4.3861,4.3902,4.3704,4.3179,4.2713,4.2744,4.2084,4.1459,4.1459,4.1265,4.1109,4.1109,4.1109,4.1091,4.1095,4.1097,4.1099,4.1104,4.1108,4.111,4.1172,4.1191,4.117,4.1112,4.099,4.0915,4.0907,4.0267,3.9868,3.9868,3.9262,3.8914,3.8914,3.952,3.9559,3.8934,3.9539,3.9868,3.9868,3.9868,4.0178,4.0797,4.0797,4.0797,0.0,0.0,2.7147,2.8854,3.058,3.2296,3.3936,3.4959,3.6137,3.8096,3.8498,3.8855,4.0034,4.0263,4.0263,4.0301,4.0301,4.0301,4.0301,4.0301,4.0301,4.0301,4.0301,4.0301,0.0,4.0301,4.0301,4.0301,4.0301,4.0301,4.0301,4.0301,4.0301,4.0301,4.0301,4.0673,4.1457,4.1457,4.1896,4.2756,4.2756,4.2775,4.2794,4.2795,4.2805,4.2805,4.2851,4.2869,4.2974,4.3901,4.4264,4.4369,4.522,4.5573,4.5573,4.5535,4.5126,4.4685,4.553,4.5273,4.4704,4.555,4.5822,4.5822,4.5822,4.5827,4.5652,4.4806,4.4573,4.4409,4.3681,4.3487,4.3503,4.3636,4.2982,4.2357,4.2357,4.1693,4.1109,4.1109,4.1109,4.1109,4.1109,4.1109,4.1093,4.1098,4.1099,4.1103,4.1091,4.1152,4.117,4.1112,4.1047,4.0979,4.0917,4.0809,4.0758,4.0758,4.0739,4.0719,4.0719,4.0758,4.0758,4.0719,4.0758,4.0758,4.0758,4.0758,4.0777,4.0797,4.0797,4.0797,0.0,0.0,2.9625,3.1967,3.3006,3.4078,3.6391,3.7157,3.7718,3.8952,3.8768,3.869,3.96,3.9477,3.942,3.9951,4.0176,4.0301,4.0301,4.0301,4.0301,4.0301,4.0301,0.0,0.0,0.0,0.0,4.0301,4.0301,4.0301,4.0301,4.0807,4.1094,4.1094,4.1667,4.2087,4.2354,4.2354,4.2775,4.3605,4.4188,4.4456,4.4437,4.3865,4.3903,4.4429,4.3924,4.4001,4.4517,4.4873,4.5026,4.5055,4.5342,4.5495,4.5522,4.5522,4.5426,4.5314,4.5592,4.5514,4.5314,4.5611,4.5708,4.5708,4.5708,4.5761,4.5777,4.548,4.5431,4.54,4.5162,4.4661,4.4256,4.44,4.3752,4.3158,4.325,4.2572,4.1967,4.1967,4.1498,4.1109,4.1109,4.1109,4.1109,4.1093,4.11,4.1106,4.1108,4.1129,4.1131,4.1094,4.1042,4.0962,4.0903,4.0874,4.0844,4.0803,4.0834,4.0856,4.0798,4.1394,4.1454,4.0872,4.1435,4.1435,4.0872,4.0872,4.0872,4.0872,4.0872,4.0872,0.0,3.0283,3.1752,3.4657,3.538,3.5914,3.7923,3.8391,3.8473,3.8851,3.8534,3.824,3.8556,3.8398,3.8471,3.9217,3.953,3.9795,4.0099,4.0157,4.0186,4.0291,4.0301,0.0,0.0,0.0,0.0,4.0301,4.0301,4.0435,4.0711,4.1227,4.1628,4.1953,4.2507,4.2947,4.3233,4.3233,4.3634,4.4475,4.5029,4.5307,4.5288,4.4723,4.4762,4.5269,4.4745,4.4812,4.5307,4.5361,4.5409,4.54,4.5429,4.5485,4.555,4.555,4.5568,4.5594,4.5594,4.5594,4.5594,4.5594,4.5594,4.5594,4.5594,4.5651,4.5719,4.5719,4.5754,4.5796,4.5846,4.5444,4.5076,4.5231,4.4595,4.3991,4.4144,4.3489,4.2864,4.2864,4.2415,4.2027,4.2027,4.1771,4.1459,4.1148,4.1098,4.1102,4.1104,4.1106,4.1107,4.1107,4.1034,4.0978,4.0937,4.0916,4.0874,4.0839,4.0888,4.0874,4.0839,4.1412,4.1466,4.0907,4.1446,4.1466,4.0907,4.0907,4.0907,4.0907,4.0907,4.0907,3.1757,3.2711,3.3605,3.6721,3.7529,3.7768,3.8524,3.867,3.8471,3.7923,3.775,3.7527,0.0,0.0,3.7507,3.8122,3.8448,3.8942,3.9789,3.9903,4.0007,0.0,0.0,0.0,0.0,0.0,0.0,4.0435,0.0,4.0711,4.1514,4.1609,4.2011,4.2832,4.2908,4.3291,4.4064,4.4064,4.4475,4.5307,4.5307,4.5307,4.5307,4.5307,4.5307,4.5307,4.5307,4.5307,4.5307,4.5378,4.539,4.54,4.5476,4.5522,4.5586,4.5586,4.5594,4.5594,4.5594,4.5594,4.5594,4.5594,4.5594,4.5594,4.5594,4.5594,4.5594,4.5594,4.5594,4.5629,4.5757,4.5793,4.5848,4.6048,4.5464,4.4881,4.5037,4.4385,4.3762,4.3762,4.3725,4.3705,4.3705,4.3001,4.2181,4.1363,4.1226,4.1208,4.1117,4.1103,4.1107,4.1107,4.1035,4.0991,4.0991,4.094,4.0919,4.0893,4.0917,4.0917,4.0912,4.0912,4.0917,4.0917,4.0917,4.0917,4.0917,4.0917,4.0936,4.0975,4.0975,4.0975,3.2197,3.4394,3.6464,3.729,3.7936,3.845,3.8652,3.823,3.7599,3.6863,3.5713,3.48,0.0,0.0,0.0,3.6988,3.8327,0.0,3.9843,3.9903,0.0,0.0,0.0,4.1457,4.2106,4.2163,0.0,0.0,4.1552,4.1571,4.2412,4.3042,4.3452,4.3682,4.4322,4.4762,4.4972,4.4972,4.5067,4.5307,4.5307,4.5307,4.5307,4.5307,4.5307,4.5307,4.5307,4.5307,4.5307,4.5317,4.5328,4.5329,4.5409,4.5438,4.5467,4.5504,4.5559,4.5594,4.5594,4.5594,4.5594,4.5594,4.5594,4.5594,4.5594,4.5594,4.5594,4.5594,4.5594,4.5603,4.5635,4.5643,4.57,4.5835,4.5747,4.5656,4.58,4.5202,4.468,4.468,4.4133,4.3705,4.3705,4.3528,4.3294,4.3061,4.3042,4.2573,4.1267,4.1094,4.1095,4.1095,4.1085,4.1053,4.0994,4.103,4.1008,4.0919,4.0983,4.1036,4.0984,4.1027,4.1041,4.1041,4.1041,4.1041,4.1041,4.1041,4.1353,4.1937,4.1937,4.1937,3.4247,3.6097,3.7584,3.7951,3.8377,3.8414,3.7316,3.7019,3.6354,3.4082,3.344,0.0,0.0,0.0,0.0,0.0,0.0,0.0,3.9637,3.9728,4.0173,0.0,4.1495,0.0,4.2717,4.2794,4.2947,0.0,0.0,4.2431,4.3291,4.3739,4.4178,4.4571,4.5029,4.5307,4.5307,4.5307,4.5307,4.5307,4.5307,4.5307,4.5307,4.5307,4.5307,4.5307,0.0,4.5307,4.5307,4.5307,4.5317,4.5338,4.5398,4.54,4.541,4.5438,4.5485,4.5513,4.5513,4.5522,4.5568,4.5586,4.5594,4.5594,4.5594,4.5594,4.5594,4.5594,4.5594,4.5594,4.5594,4.5594,4.5637,4.5771,4.5829,4.5892,4.6057,4.5777,4.5494,4.5554,4.5187,4.4719,4.4348,4.427,4.4133,4.3764,4.3705,4.3354,4.2378,4.2241,4.2241,4.2241,4.2244,4.2233,4.2185,4.2226,4.2206,4.2139,4.2171,4.2173,4.2136,4.2185,4.2198,4.2198,4.2198,4.2198,4.2198,4.2198,4.2432,4.2861,4.2861,4.2861,3.6666,3.7584,3.7841,3.8524,3.8615,3.7918,3.5536,3.5408,3.4706,3.0834,0.0,0.0,2.9225,0.0,3.3815,3.3792,0.0,3.8175,3.9333,3.9589,4.0158,4.1503,4.1762,4.2163,4.3042,4.3138,4.3424,4.4121,4.3539,4.3443,4.414,4.4159,4.4532,4.5288,4.5307,4.5307,4.5307,4.5307,4.5307,4.5307,4.5307,4.5307,4.5307,4.5307,4.5307,4.5307,0.0,0.0,4.5307,4.5307,4.5328,4.5398,4.5398,4.539,4.54,4.54,4.54,4.54,4.54,4.5438,4.5495,4.5568,4.5586,4.5594,4.5594,4.5594,4.5594,4.5594,4.5594,4.5594,4.5594,4.5594,4.5629,4.5742,4.5793,4.5854,4.6016,4.6084,4.6141,4.6273,4.63,4.6066,4.5304,4.5168,4.4914,4.4153,4.4057,4.4057,4.4057,4.3842,4.3705,4.3705,4.3705,4.3705,4.3705,4.3701,4.3708,4.3709,4.3645,4.3603,4.3595,4.3599,4.3608,4.3601,4.3601,4.3601,4.3601,4.3601,4.3659,4.3776,4.3776,4.3776,3.6978,3.7988,3.8524,3.867,3.8193,3.7221,3.5408,3.4087,0.0,0.0,0.0,2.8503,2.8081,3.0129,0.0,3.36,0.0,0.0,0.0,0.0,4.1007,0.0,0.0,0.0,0.0,0.0,0.0,0.0,0.0,0.0,4.5067,4.5067,4.5144,4.5307,4.5307,4.5307,4.5307,4.5307,4.5307,4.5307,4.5307,4.5307,4.5307,4.5307,4.5307,4.5307,0.0,0.0,4.5307,4.5307,4.5307,4.5317,4.5388,4.5389,4.5409,4.541,4.54,4.54,4.54,4.541,4.5429,4.5495,4.554,4.5594,4.5594,4.5594,4.5594,4.5594,4.5594,4.5594,4.5594,4.5594,4.5603,4.5629,4.5712,4.5821,4.5848,4.5979,4.6141,4.6273,4.63,4.6241,4.6105,4.6066,4.6027,4.587,4.5851,4.5851,4.5851,4.4582,4.3705,4.3705,4.3705,4.3705,4.3705,4.3708,4.3698,4.3709,4.3691,4.3669,4.3597,4.3609,4.3607,4.3601,4.3601,4.3601,4.3601,4.3601,4.3971,4.4676,4.4676,4.4676,3.7679,3.8414,3.8707,3.8707,3.8102,3.674,3.3807,0.0,0.0,0.0,0.0,2.7541,2.6715,0.0,0.0,0.0,0.0,0.0,0.0,0.0,0.0,0.0,0.0,0.0,0.0,0.0,0.0,0.0,0.0,0.0,0.0,4.5307,4.5307,4.5307,4.5307,4.5307,4.5307,4.5307,4.5307,4.5307,4.5307,4.5307,4.5307,4.5307,4.5307,4.5307,0.0,0.0,0.0,4.5307,4.5307,4.5307,4.5328,4.5338,4.5348,4.535,4.5341,4.5341,4.5341,4.5361,4.5409,4.5438,4.5495,4.554,4.5586,4.5594,4.5594,4.5594,4.5594,4.5594,4.5594,4.5594,4.5594,4.5594,4.5708,4.5807,4.5807,4.5949,4.6112,4.6181,4.6247,4.63,4.63,4.63,4.63,4.63,4.63,4.63,4.63,4.5578,4.5051,4.5051,4.5051,4.5051,4.5051,4.5051,4.5055,4.5047,4.5054,4.5039,4.5015,4.4976,4.495,4.495,4.4943,4.4949,4.4949,4.4949,4.5163,4.5576,4.5576,4.5576,3.8267,3.8707,3.8707,3.8707,3.7955,3.6225,3.2296,3.1751,0.0,0.0,0.0,0.0,2.5852,0.0,0.0,0.0,0.0,0.0,0.0,0.0,0.0,0.0,0.0,0.0,0.0,0.0,0.0,0.0,0.0,0.0,0.0,4.5307,4.5307,4.5307,4.5307,4.5307,4.5307,4.5307,4.5307,4.5307,4.5307,4.5307,4.5307,4.5307,4.5307,4.5307,0.0,0.0,0.0,4.5307,4.5307,4.5307,4.5307,4.5307,4.5307,4.5307,4.5307,4.5307,4.5307,4.5328,4.5369,4.5398,4.5429,4.5495,4.5531,4.5568,4.5577,4.5577,4.5586,4.5594,4.5594,4.5594,4.5594,4.5594,4.5684,4.5764,4.58,4.5933,4.6061,4.6098,4.6211,4.63,4.63,4.63,4.63,4.63,4.63,4.63,4.63,4.63,4.63,4.63,4.63,4.63,4.63,4.63,4.63,4.63,4.6297,4.6305,4.6307,4.6243,4.62,4.6206,4.6195,4.6209,4.6199,4.6199,4.6199,4.6199,4.6199,4.6199,3.8267,3.8707,3.8707,3.8707,3.7551,3.5532,3.2168,0.0,0.0,0.0,2.5521,2.5797,2.6374,2.6741,0.0,0.0,0.0,0.0,0.0,0.0,0.0,0.0,0.0,0.0,0.0,0.0,0.0,0.0,0.0,0.0,0.0,4.5307,4.5307,4.5307,4.5307,4.5307,4.5307,4.5307,4.5307,4.5307,4.5307,4.5307,4.5307,4.5307,4.5307,4.5307,0.0,0.0,0.0,4.5307,4.5307,4.5307,4.5307,4.5307,4.5307,4.5307,4.5307,4.5307,4.5307,4.5307,4.5317,4.5388,4.5409,4.541,4.5419,4.5448,4.5504,4.5504,4.5559,4.5594,4.5594,4.5594,4.5594,4.5594,4.5603,4.5643,4.5778,4.5865,4.5945,4.6087,4.6211,4.63,4.63,4.63,4.63,4.63,4.63,4.63,4.63,4.63,4.63,4.63,4.63,4.63,4.63,4.63,4.63,4.63,4.6303,4.6294,4.6306,4.6288,4.6267,4.6208,4.6204,4.6203,4.6199,4.6199,4.6199,4.6199,4.6199,4.6199,3.7533,3.8322,3.8707,3.8707,3.7496,3.5569,3.2761,0.0,0.0,2.7412,2.6458,2.6227,2.6539,2.6209,2.6759,0.0,0.0,0.0,0.0,0.0,0.0,0.0,0.0,0.0,0.0,0.0,0.0,0.0,0.0,0.0,0.0,0.0,4.5307,4.5307,4.5307,4.5307,4.5307,4.5307,4.5307,4.5307,4.5307,4.5307,4.5307,4.5307,4.5307,0.0,0.0,0.0,0.0,4.5307,4.5307,4.5307,4.5307,4.5307,4.5307,4.5307,4.5307,4.5307,4.5307,4.5307,4.5307,4.5328,4.5329,4.5341,4.539,4.5419,4.5438,4.5438,4.5448,4.5495,4.5522,4.5568,4.5594,4.5594,4.5594,4.5612,4.5668,4.5766,4.5871,4.5964,4.6095,4.6209,4.6296,4.63,4.63,4.63,4.63,4.63,4.63,4.63,4.63,4.63,4.63,4.63,4.63,4.63,4.63,4.63,4.63,4.6305,4.6295,4.6304,4.6289,4.6266,4.6219,4.6209,4.6197,4.6197,4.6206,4.6203,4.6208,4.6194,3.7052,3.8098,3.8652,3.8395,3.7129,3.5275,0.0,0.0,3.043,2.8257,2.7163,2.6602,2.6602,2.575,2.5852,0.0,2.9531,3.1421,3.4922,0.0,0.0,0.0,0.0,0.0,0.0,0.0,0.0,0.0,0.0,0.0,0.0,0.0,4.5307,4.5307,4.5307,4.5307,4.5307,4.5307,4.5307,4.5307,4.5307,4.5307,4.5307,4.5307,4.5307,0.0,0.0,0.0,0.0,4.5307,4.5307,4.5307,4.5307,4.5307,4.5307,4.5307,4.5307,4.5307,4.5307,4.5307,4.5307,4.5307,4.5307,4.5317,4.5361,4.539,4.54,4.54,4.539,4.541,4.5467,4.5504,4.555,4.5568,4.5568,4.5577,4.5605,4.5715,4.5815,4.5852,4.5983,4.6135,4.6216,4.6273,4.63,4.63,4.63,4.63,4.63,4.63,4.63,4.63,4.63,4.63,4.63,4.63,4.63,4.63,4.63,4.63,4.63,4.6296,4.6304,4.6307,4.625,4.6227,4.6204,4.6204,4.6198,4.6202,4.6199,4.6209,3.7052,3.8098,3.8505,3.7713,3.6248,3.438,0.0,3.0797,2.9751,2.8128,2.7163,2.6602,2.6602,2.5291,2.4997,2.7431,2.9163,0.0,0.0,0.0,0.0,0.0,0.0,0.0,0.0,0.0,0.0,0.0,0.0,0.0,0.0,0.0,4.5307,4.5307,4.5307,4.5307,4.5307,4.5307,4.5307,4.5307,4.5307,4.5307,4.5307,4.5307,0.0,0.0,0.0,0.0,0.0,4.5307,4.5307,4.5307,4.5307,4.5307,4.5307,4.5307,4.5307,4.5307,4.5307,4.5307,4.5307,4.5307,4.5307,4.5307,4.5307,4.5348,4.5408,4.5408,4.54,4.541,4.541,4.541,4.5419,4.5485,4.5504,4.5513,4.5586,4.5715,4.5807,4.5807,4.5954,4.6102,4.6102,4.6211,4.63,4.63,4.63,4.63,4.63,4.63,4.63,4.63,4.63,4.63,4.63,4.63,4.63,4.63,4.63,4.63,4.63,4.63,4.6293,4.6307,4.6307,4.6269,4.6204,4.6204,4.6204,4.6204,4.6204,4.6204,3.3862,3.5133,3.5977,3.5165,3.3752,3.2339,3.158,3.0356,2.9244,2.873,2.7537,2.6602,2.6602,2.5291,2.5346,2.887,2.9879,0.0,0.0,0.0,0.0,0.0,0.0,0.0,0.0,0.0,0.0,0.0,0.0,0.0,0.0,0.0,0.0,4.5307,4.5307,4.5307,4.5307,4.5307,4.5307,4.5307,4.5307,4.5307,4.5307,0.0,0.0,0.0,0.0,0.0,0.0,4.5307,4.5307,4.5307,4.5307,4.5307,4.5307,4.5307,4.5307,4.5307,4.5307,4.5307,4.5307,4.5307,4.5307,4.5307,4.5307,4.5317,4.5328,4.5328,4.5369,4.539,4.539,4.54,4.541,4.5429,4.5429,4.5448,4.5513,4.5575,4.564,4.5778,4.5889,4.5992,4.6072,4.6211,4.63,4.63,4.63,4.63,4.63,4.63,4.63,4.63,4.63,4.63,4.63,4.63,4.63,4.63,4.63,4.63,4.63,4.63,4.6305,4.6293,4.6293,4.6295,4.6261,4.6261,4.6261,4.6262,4.6229,4.6228,0.0,3.3316,3.4344,3.355,3.2375,3.1323,3.1029,2.9696,2.8546,2.8546,2.7501,2.6521,2.6209,2.5328,2.5466,2.797,2.9145,0.0,0.0,0.0,0.0,0.0,0.0,0.0,0.0,0.0,0.0,0.0,0.0,0.0,0.0,0.0,0.0,4.5307,4.5307,4.5307,4.5307,4.5307,4.5307,4.5307,4.5307,4.5307,4.5307,0.0,0.0,0.0,0.0,0.0,0.0,4.5307,4.5307,4.5307,4.5307,4.5307,4.5307,4.5307,4.5307,4.5307,4.5307,4.5307,4.5307,4.5307,4.5307,4.5307,4.5307,4.5307,4.5307,4.5307,4.5328,4.5359,4.5359,4.536,4.537,4.539,4.54,4.541,4.5438,4.5457,4.5503,4.5621,4.5777,4.5929,4.6011,4.6176,4.63,4.63,4.63,4.63,4.63,4.63,4.63,4.63,4.63,4.63,4.63,4.63,4.63,4.63,4.63,4.63,4.63,4.63,4.63,4.63,4.63,4.63,4.63,4.63,4.63,4.6302,4.6266,4.6268,0.0,3.21,3.3183,3.2362,3.1568,3.0791,3.0099,2.8741,0.0,2.7695,2.7071,2.6319,2.5686,2.5429,2.5411,2.5686,2.7622,0.0,0.0,0.0,0.0,0.0,0.0,0.0,0.0,0.0,0.0,0.0,0.0,0.0,0.0,0.0,0.0,0.0,4.5307,4.5307,4.5307,4.5307,4.5307,4.5307,4.5307,4.5307,4.5307,0.0,0.0,0.0,0.0,0.0,0.0,4.5307,4.5307,4.5307,4.5307,4.5307,4.5307,4.5307,4.5307,4.5307,4.5307,4.5307,4.5307,4.5307,4.5307,4.5307,4.5307,4.5307,4.5307,4.5307,4.5307,4.5307,4.5307,4.5307,4.5317,4.5388,4.5398,4.5399,4.541,4.54,4.54,4.54,4.5676,4.5889,4.5889,4.6114,4.6298,4.6298,4.63,4.63,4.63,4.63,4.63,4.63,4.63,4.63,4.63,4.63,4.63,4.63,4.63,4.63,4.63,4.63,4.63,4.63,4.63,4.63,4.63,4.63,4.63,4.63,4.63,4.63,2.5474,0.0,2.9017,2.8209,2.7402,2.6917,0.0,2.6667,2.6146,0.0,0.0,2.5999,2.7045,2.5742,2.5493,2.8576,0.0,0.0,0.0,0.0,0.0,0.0,0.0,0.0,0.0,0.0,0.0,0.0,0.0,0.0,0.0,0.0,0.0,0.0,4.5307,4.5307,4.5307,4.5307,4.5307,4.5307,4.5307,4.5307,0.0,0.0,0.0,0.0,0.0,0.0,0.0,4.5307,4.5307,4.5307,4.5307,4.5307,4.5307,4.5307,4.5307,4.5307,4.5307,4.5307,4.5307,4.5307,4.5307,4.5307,4.5307,4.5307,4.5307,4.5307,4.5307,4.5307,4.5307,4.5307,4.5307,4.5317,4.5317,4.5338,4.5389,4.5409,4.54,4.54,4.563,4.5822,4.5822,4.6052,4.6216,4.6216,4.6271,4.63,4.63,4.63,4.63,4.63,4.63,4.63,4.63,4.63,4.63,4.63,4.63,4.63,4.63,4.63,4.63,4.63,4.63,4.63,4.63,4.63,4.63,4.63,4.63,4.63,2.2868,2.5126,2.7236,2.7163,2.6814,2.6623,2.7053,0.0,0.0,0.0,0.0,0.0,2.6072,0.0,0.0,0.0,0.0,0.0,0.0,0.0,0.0,0.0,0.0,0.0,0.0,0.0,0.0,0.0,0.0,0.0,0.0,0.0,0.0,0.0,0.0,4.5307,4.5307,4.5307,4.5307,4.5307,4.5307,4.5307,0.0,0.0,0.0,0.0,0.0,0.0,4.5307,4.5307,4.5307,4.5307,4.5307,4.5307,4.5307,4.5307,4.5307,4.5307,4.5307,4.5307,4.5307,4.5307,4.5307,4.5307,4.5307,4.5307,4.5307,4.5307,4.5307,4.5307,4.5307,4.5307,4.5307,4.5307,4.5307,4.5307,4.5338,4.5348,4.5359,4.5351,4.5516,4.5675,4.575,4.5944,4.6141,4.6183,4.6231,4.6247,4.6247,4.6275,4.63,4.63,4.63,4.63,4.63,4.63,4.63,4.63,4.63,4.63,4.63,4.63,4.63,4.63,4.63,4.63,4.63,4.63,4.63,4.63,4.63,4.63,2.1867,2.4245,2.6557,2.7108,2.7339,2.7431,2.7431,0.0,0.0,0.0,0.0,0.0,0.0,0.0,0.0,0.0,0.0,0.0,0.0,0.0,0.0,0.0,0.0,0.0,0.0,0.0,0.0,0.0,0.0,0.0,0.0,0.0,0.0,0.0,0.0,0.0,4.5307,4.5307,4.5307,4.5307,4.5307,4.5307,4.5307,0.0,0.0,0.0,0.0,0.0,4.5307,4.5307,4.5307,4.5307,4.5307,4.5307,4.5307,4.5307,4.5307,4.5307,4.5307,4.5307,4.5307,4.5307,4.5307,4.5307,4.5307,4.5307,4.5307,4.5307,4.5307,4.5307,4.5307,4.5307,4.5307,4.5307,4.5307,4.5307,4.5307,4.5307,4.5307,4.5307,4.5409,4.5544,4.5687,4.5852,4.6036,4.6162,4.618,4.6201,4.6201,4.624,4.6271,4.6271,4.6275,4.6277,4.6277,4.6298,4.63,4.63,4.63,4.63,4.63,4.63,4.63,4.63,4.63,4.63,4.63,4.63,4.63,4.63,4.63,4.63,2.3217,2.4695,2.5448,2.4887,2.5264,2.576,0.0,0.0,0.0,0.0,0.0,0.0,0.0,0.0,0.0,0.0,0.0,0.0,0.0,0.0,0.0,0.0,0.0,0.0,0.0,0.0,0.0,0.0,0.0,0.0,0.0,0.0,0.0,0.0,0.0,0.0,0.0,4.5307,4.5307,4.5307,4.5307,4.5307,4.5307,4.5307,0.0,0.0,0.0,0.0,4.5307,4.5307,4.5307,4.5307,4.5307,4.5307,4.5307,4.5307,4.5307,4.5307,4.5307,4.5307,4.5307,4.5307,4.5307,4.5307,4.5307,4.5307,4.5307,4.5307,4.5307,4.5307,4.5307,4.5307,4.5307,4.5307,4.5307,4.5307,4.5307,4.5307,4.5307,4.5307,4.541,4.5547,4.568,4.5822,4.5963,4.6098,4.6162,4.6206,4.6206,4.6209,4.6213,4.6213,4.622,4.6214,4.6214,4.6271,4.63,4.63,4.63,4.63,4.63,4.63,4.63,4.63,4.63,4.63,4.63,4.63,4.63,4.63,4.63,4.63,2.2464,2.3814,2.4879,2.5364,2.6429,2.725,0.0,0.0,0.0,0.0,0.0,0.0,0.0,0.0,0.0,0.0,0.0,0.0,0.0,0.0,0.0,0.0,0.0,0.0,0.0,0.0,0.0,0.0,0.0,0.0,0.0,0.0,0.0,0.0,0.0,0.0,0.0,4.5307,4.5307,4.5307,4.5307,4.5307,4.5307,4.5307,4.5307,0.0,0.0,4.5307,4.5307,4.5307,4.5307,4.5307,4.5307,4.5307,4.5307,4.5307,4.5307,4.5307,4.5307,4.5307,4.5307,4.5307,4.5307,4.5307,4.5307,4.5307,4.5307,4.5307,4.5307,4.5307,4.5307,4.5307,4.5307,4.5307,4.5307,4.5307,4.5307,4.5307,4.5307,4.5307,4.535,4.5429,4.5575,4.57,4.5841,4.5978,4.6075,4.6146,4.6146,4.6185,4.6199,4.6199,4.6193,4.6203,4.6203,4.6234,4.6255,4.63,4.63,4.63,4.63,4.63,4.63,4.63,4.63,4.63,4.63,4.63,4.63,4.63,4.63,4.63,2.263,2.3685,2.4869,2.6484,0.0,0.0,0.0,0.0,0.0,0.0,0.0,0.0,0.0,0.0,0.0,0.0,0.0,0.0,0.0,0.0,0.0,0.0,0.0,0.0,0.0,0.0,0.0,0.0,0.0,0.0,0.0,0.0,0.0,0.0,0.0,0.0,0.0,4.5307,4.5307,4.5307,4.5307,4.5307,4.5307,4.5307,4.5307,4.5307,4.5307,4.5307,4.5307,4.5307,4.5307,4.5307,4.5307,4.5307,4.5307,4.5307,4.5307,4.5307,4.5307,4.5307,4.5307,4.5307,4.5307,4.5307,4.5307,4.5307,4.5307,4.5307,4.5307,4.5307,4.5307,4.5307,4.5307,4.5307,4.5307,4.5307,4.5307,4.5307,4.5307,4.5307,4.5307,4.5339,4.5476,4.5618,4.5746,4.588,4.6,4.608,4.608,4.6111,4.615,4.615,4.6177,4.6189,4.6196,4.6199,4.6225,4.6271,4.6298,4.63,4.63,4.63,4.63,4.63,4.63,4.63,4.63,4.63,4.63,4.63,4.63,4.63,2.5841,2.5786,2.5705,2.7321,0.0,0.0,0.0,0.0,0.0,0.0,0.0,0.0,0.0,0.0,0.0,0.0,0.0,0.0,0.0,0.0,0.0,0.0,0.0,0.0,0.0,0.0,0.0,0.0,0.0,0.0,0.0,0.0,0.0,0.0,0.0,0.0,0.0,0.0,4.5307,4.5307,4.5307,4.5307,4.5307,4.5307,4.5307,4.5307,4.5307,4.5307,4.5307,4.5307,4.5307,4.5307,4.5307,4.5307,4.5307,4.5307,4.5307,4.5307,4.5307,4.5307,4.5307,4.5307,4.5307,4.5307,4.5307,4.5307,4.5307,4.5307,4.5307,4.5307,4.5307,4.5307,4.5307,4.5307,4.5307,4.5307,4.5307,4.5307,4.5307,4.5307,4.5307,4.5339,4.5476,4.5618,4.5746,4.588,4.5966,4.6007,4.6007,4.6012,4.6012,4.6012,4.6075,4.6138,4.6196,4.6199,4.6193,4.6209,4.6271,4.63,4.63,4.63,4.63,4.63,4.63,4.63,4.63,4.63,4.63,4.63,4.63,4.63,2.4814,2.5246,2.5778,0.0,0.0,0.0,0.0,0.0,0.0,0.0,0.0,0.0,0.0,0.0,0.0,0.0,0.0,0.0,0.0,0.0,0.0,0.0,0.0,0.0,0.0,0.0,0.0,0.0,0.0,0.0,0.0,0.0,0.0,0.0,0.0,0.0,0.0,0.0,4.5307,4.5307,4.5307,4.5307,4.5307,4.5307,4.5307,4.5307,4.5307,4.5307,4.5307,4.5307,4.5307,4.5307,4.5307,4.5307,4.5307,4.5307,4.5307,4.5307,4.5307,4.5307,4.5307,4.5307,4.5307,4.5307,4.5307,4.5307,4.5307,4.5307,4.5307,4.5307,4.5307,4.5307,4.5307,4.5307,4.5307,4.5307,4.5307,4.5307,4.5307,4.5307,4.5698,4.6063,4.6106,4.6299,4.646,4.6507,4.6209,4.6002,4.6002,4.6002,4.6002,4.6002,4.6017,4.6056,4.6075,4.6106,4.6146,4.6142,4.6198,4.6267,4.63,4.63,4.63,4.63,4.63,4.63,4.63,4.63,4.63,4.63,4.63,4.63,2.4557,2.497,0.0,0.0,0.0,0.0,0.0,0.0,0.0,0.0,0.0,0.0,0.0,0.0,0.0,0.0,0.0,0.0,0.0,0.0,0.0,0.0,0.0,0.0,0.0,0.0,0.0,0.0,0.0,0.0,0.0,0.0,0.0,0.0,0.0,0.0,0.0,0.0,4.5307,4.5307,4.5307,4.5307,4.5307,4.5307,4.5307,4.5307,4.5307,4.5307,4.5307,4.5307,4.5307,4.5307,4.5307,4.5307,4.5307,4.5307,4.5307,4.5307,4.5307,4.5307,4.5307,4.5307,4.5307,4.5307,4.5307,4.5307,4.5307,4.5307,4.5307,4.5307,4.5307,4.5307,4.5307,4.5307,4.5307,4.5307,4.5307,4.5307,4.5307,4.5307,4.5736,4.6118,4.6118,4.6302,4.648,4.6521,4.6215,4.5989,4.5997,4.6002,4.6002,4.6002,4.6002,4.6002,4.6002,4.6032,4.608,4.6093,4.613,4.6198,4.6271,4.6271,4.6275,4.63,4.63,4.63,4.63,4.63,4.63,4.63,4.63,4.63,2.5815,0.0,0.0,0.0,0.0,0.0,0.0,0.0,0.0,0.0,0.0,0.0,0.0,0.0,0.0,0.0,0.0,0.0,0.0,0.0,0.0,0.0,0.0,0.0,0.0,0.0,0.0,0.0,0.0,0.0,0.0,0.0,0.0,0.0,0.0,0.0,0.0,0.0,4.5307,4.5307,4.5307,4.5307,4.5307,4.5307,4.5307,4.5307,4.5307,4.5307,4.5307,4.5307,4.5307,4.5307,4.5307,4.5307,4.5307,4.5307,4.5307,4.5307,4.5307,4.5307,4.5307,4.5307,4.5307,4.5307,4.5307,4.5307,4.5307,4.5307,4.5307,4.5307,4.5307,4.5307,4.5307,4.5307,4.5307,4.5307,4.5307,4.5307,4.5307,4.5307,4.5307,4.5326,4.5307,4.5438,4.5568,4.5684,4.5831,4.5918,4.5991,4.6002,4.6002,4.6002,4.6002,4.6002,4.6002,4.6002,4.6022,4.6093,4.6093,4.6135,4.6203,4.6206,4.6238,4.63,4.63,4.63,4.63,4.63,4.63,4.63,4.63,4.63,2.4695,0.0,0.0,0.0,0.0,0.0,0.0,0.0,0.0,0.0,0.0,0.0,0.0,0.0,0.0,0.0,0.0,0.0,0.0,0.0,0.0,0.0,0.0,0.0,0.0,0.0,0.0,0.0,0.0,0.0,0.0,0.0,0.0,0.0,0.0,0.0,0.0,0.0,0.0,4.5307,4.5307,4.5307,4.5307,4.5307,4.5307,4.5307,4.5307,4.5307,4.5307,4.5307,4.5307,4.5307,4.5307,4.5307,4.5307,4.5307,4.5307,4.5307,4.5307,4.5307,4.5307,4.5307,4.5307,4.5307,4.5307,4.5307,4.5307,4.5307,4.5307,4.5307,4.5307,4.5307,4.5307,4.5307,4.5307,4.5307,4.5307,4.5307,4.5307,4.5307,4.6252,4.6863,4.6252,4.677,4.7088,4.6621,4.6172,4.5918,4.5991,4.6002,4.6002,4.6002,4.6002,4.6002,4.6002,4.6002,4.6007,4.6022,4.6022,4.6089,4.619,4.6193,4.6209,4.6238,4.6238,4.6247,4.63,4.63,4.63,4.63,4.63,4.63,2.4979,0.0,0.0,0.0,0.0,0.0,0.0,0.0,0.0,0.0,0.0,0.0,0.0,0.0,0.0,0.0,0.0,0.0,0.0,0.0,0.0,0.0,0.0,0.0,0.0,0.0,0.0,0.0,0.0,0.0,0.0,0.0,0.0,0.0,0.0,0.0,0.0,0.0,0.0,0.0,4.5192,4.5235,4.5109,4.5246,4.5307,4.5307,4.5307,4.5307,4.5307,4.5307,4.5307,4.5307,4.5307,4.5307,4.5307,4.5307,4.5307,4.5307,4.5307,4.5307,4.5307,4.5307,4.5307,4.5307,4.5307,4.5307,4.5307,4.5307,4.5307,4.5307,4.5307,4.5307,4.5307,4.5307,4.5307,4.5307,4.5307,4.5307,4.5307,4.5307,4.6118,4.6634,4.6118,4.6527,4.681,4.6477,4.615,4.596,4.5991,4.6002,4.6002,4.6002,4.6002,4.6002,4.6002,4.6002,4.6002,4.6002,4.6002,4.6047,4.6126,4.6146,4.6173,4.6209,4.6201,4.6216,4.6269,4.6296,4.63,4.63,4.63,4.63,0.0,0.0,0.0,0.0,0.0,0.0,0.0,0.0,0.0,0.0,0.0,0.0,0.0,0.0,0.0,0.0,0.0,0.0,0.0,0.0,0.0,0.0,0.0,0.0,0.0,0.0,0.0,0.0,0.0,0.0,0.0,0.0,0.0,0.0,0.0,0.0,0.0,0.0,0.0,0.0,0.0,4.5076,4.48,4.5151,4.5307,4.5307,4.5307,4.5307,4.5307,4.5307,4.5307,4.5307,4.5307,4.5307,4.5307,4.5307,4.5307,4.5307,4.5307,4.5307,4.5307,4.5307,4.5307,4.5307,4.5307,4.5307,4.5307,4.5307,4.5307,4.5307,4.5307,4.5307,4.5307,4.5307,4.5307,4.5307,4.5307,4.5307,4.5307,4.5307,4.5364,4.5403,4.5307,4.5364,4.5466,4.5651,4.5867,4.5991,4.5991,4.5997,4.6002,4.6002,4.6002,4.6002,4.6002,4.6002,4.6002,4.6002,4.6002,4.6002,4.6002,4.6066,4.6111,4.6192,4.6186,4.6181,4.6203,4.6267,4.6296,4.6298,4.6298,4.6298,0.0,0.0,0.0,0.0,0.0,0.0,0.0,0.0,0.0,0.0,0.0,0.0,0.0,0.0,0.0,0.0,0.0,0.0,0.0,0.0,0.0,0.0,0.0,0.0,0.0,0.0,0.0,0.0,0.0,0.0,0.0,0.0,0.0,0.0,0.0,0.0,0.0,0.0,0.0,0.0,4.4218,4.4669,4.48,4.5151,4.5307,4.5307,4.5307,4.5307,4.5307,4.5307,4.5307,4.5307,4.5307,4.5307,4.5307,4.5307,4.5307,4.5307,4.5307,4.5307,4.5307,4.5307,4.5307,4.5307,4.5307,4.5307,4.5307,4.5307,4.5307,4.5307,4.5307,4.5307,4.5307,4.5307,4.5307,4.5307,4.5307,4.5307,4.5307,4.5307,4.5812,4.6042,4.5411,4.5812,4.6077,4.5618,4.5749,4.5912,4.5912,4.5978,4.6002,4.6002,4.6002,4.6002,4.6002,4.6002,4.6002,4.6002,4.6002,4.6002,4.6002,4.6012,4.6042,4.613,4.6119,4.6142,4.6209,4.6216,4.6215,4.6216,4.6216,4.6245,0.0,0.0,0.0,0.0,0.0,0.0,0.0,0.0,0.0,0.0,0.0,0.0,0.0,0.0,0.0,0.0,0.0,0.0,0.0,0.0,0.0,0.0,0.0,0.0,0.0,0.0,0.0,0.0,0.0,0.0,0.0,0.0,0.0,0.0,0.0,0.0,4.0998,4.1922,4.2505,4.2787,4.3622,4.4391,4.5045,4.5224,4.5307,4.5307,4.5307,4.5307,4.5307,4.5307,4.5307,4.5307,4.5307,4.5307,4.5307,4.5307,4.5307,4.5307,4.5307,4.5307,4.5307,4.5307,4.5307,4.5307,4.5307,4.5307,4.5307,4.5307,4.5307,4.5307,4.5307,4.5307,4.5307,4.5307,4.5307,4.5307,4.5307,4.5307,4.5307,4.5307,4.564,4.5793,4.5373,4.5694,4.5898,4.5543,4.5731,4.59,4.59,4.5966,4.6002,4.6002,4.6002,4.6002,4.6002,4.6002,4.6002,4.6002,4.6002,4.6002,4.6002,4.6002,4.6012,4.6042,4.6084,4.6138,4.6199,4.6199,4.6225,4.6245,4.6214,4.624,0.0,0.0,0.0,0.0,0.0,0.0,0.0,0.0,0.0,0.0,0.0,0.0,0.0,0.0,0.0,0.0,0.0,0.0,0.0,0.0,0.0,0.0,0.0,0.0,0.0,0.0,0.0,0.0,0.0,0.0,0.0,0.0,0.0,0.0,0.0,0.0,3.9714,4.071,4.1539,4.2165,4.3286,4.4304,4.5224,4.5267,4.5307,4.5307,4.5307,4.5307,4.5307,4.5307,4.5307,4.5307,4.5307,4.5307,4.5307,4.5307,4.5307,4.5307,4.5307,4.5307,4.5307,4.5307,4.5307,4.5307,4.5307,4.5307,4.5307,4.5307,4.5307,4.5307,4.5307,4.5307,4.5307,4.5307,4.5307,4.5307,4.5307,4.5307,4.5307,4.5307,4.5307,4.5307,4.5307,4.54,4.5467,4.5467,4.5665,4.5852,4.5866,4.5923,4.5986,4.5997,4.6002,4.6002,4.6002,4.6002,4.6002,4.6002,4.6002,4.6002,4.6002,4.6002,4.6002,4.6002,4.6042,4.6126,4.6189,4.6189,4.6225,4.6275,4.6238,4.624,0.0,0.0,0.0,0.0,0.0,0.0,0.0,0.0,0.0,0.0,0.0,0.0,0.0,0.0,0.0,0.0,0.0,0.0,0.0,0.0,0.0,0.0,0.0,0.0,0.0,0.0,0.0,0.0,0.0,0.0,0.0,0.0,0.0,0.0,0.0,0.0,3.8854,3.969,4.0619,4.1635,4.3666,4.4718,4.4879,4.5173,4.5307,4.5307,4.5307,4.5307,4.5307,4.5307,4.5307,4.5307,4.5307,4.5307,4.5307,4.5307,4.5307,4.5307,4.5307,4.5307,4.5307,4.5307,4.5307,4.5307,4.5307,4.5307,4.5307,4.5307,4.5307,4.5307,4.5307,4.5307,4.5307,4.5307,4.5307,4.5307,4.5307,4.5307,4.5307,4.5307,4.5307,4.5307,4.5307,4.5298,4.5338,4.5338,4.5448,4.5601,4.5715,4.5833,4.5931,4.5991,4.6002,4.6002,4.6002,4.6002,4.6002,4.6002,4.6002,4.6002,4.6002,4.6002,4.6002,4.6002,4.6007,4.6056,4.6106,4.6106,4.615,4.6214,4.6209,4.624,0.0,0.0,0.0,0.0,0.0,0.0,0.0,0.0,0.0,0.0,0.0,0.0,0.0,0.0,0.0,0.0,0.0,0.0,0.0,0.0,0.0,0.0,0.0,0.0,0.0,0.0,0.0,0.0,0.0,0.0,0.0,3.8707,3.8707,3.8707,3.8707,0.0,3.8707,3.9056,4.0085,4.1814,4.3218,4.4322,4.5087,4.5235,4.5307,4.5307,4.5307,4.5307,4.5307,4.5307,4.5307,4.5307,4.5307,4.5307,4.5307,4.5307,4.5307,4.5307,4.5307,4.5307,4.5307,4.5307,4.5307,4.5307,4.5307,4.5307,4.5307,4.5307,4.5307,4.5307,4.5307,4.5307,4.5307,4.5307,4.5307,4.5307,4.5307,4.5307,4.5307,4.5307,4.5307,4.5307,4.5307,4.5307,4.5491,4.6061,4.5839,4.5822,4.6409,4.6597,4.669,4.6729,4.7162,4.7259,4.6773,4.7181,4.7045,4.606,4.6463,4.6502,4.6021,4.6002,4.6002,4.6002,4.6002,4.6042,4.6154,4.613,4.6153,4.6267,4.6214,4.624,0.0,0.0,0.0,0.0,0.0,0.0,0.0,0.0,0.0,0.0,0.0,0.0,0.0,0.0,0.0,0.0,0.0,0.0,0.0,0.0,0.0,0.0,0.0,0.0,0.0,0.0,0.0,0.0,0.0,0.0,0.0,3.8707,3.8707,3.8707,3.8707,3.8707,3.8707,3.8983,4.008,4.2019,4.2874,4.3999,4.5307,4.5307,4.5307,4.5307,4.5307,4.5307,4.5307,4.5307,4.5307,4.5307,4.5307,4.5307,4.5307,4.5307,4.5307,4.5307,4.5307,4.5307,4.5307,4.5307,4.5307,4.5307,4.5307,4.5307,4.5307,4.5307,4.5307,4.5307,4.5307,4.5307,4.5307,4.5307,4.5307,4.5307,4.5307,4.5307,4.5307,4.5307,4.5468,4.5602,4.5602,4.5793,4.6179,4.6944,4.6605,4.6549,4.7289,4.7495,4.7581,4.7623,4.8211,4.8347,4.7686,4.823,4.8055,4.674,4.7279,4.724,4.6366,4.6327,4.623,4.6002,4.6002,4.6071,4.6199,4.615,4.619,4.63,4.6245,4.6247,0.0,0.0,0.0,0.0,0.0,0.0,0.0,0.0,0.0,0.0,0.0,0.0,0.0,0.0,0.0,0.0,0.0,0.0,0.0,0.0,0.0,0.0,0.0,0.0,0.0,0.0,0.0,0.0,0.0,0.0,3.8707,3.8707,3.8707,3.8707,3.8707,3.8707,3.8707,3.9704,4.0812,4.2,4.3075,4.4174,4.5307,4.5307,4.5307,4.5307,4.5307,4.5307,4.5307,4.5307,4.5307,4.5307,4.5307,4.5307,4.5307,4.5307,4.5307,4.5307,4.5307,4.5307,4.5307,4.5307,4.5307,4.5307,4.5307,4.5307,4.5307,4.5307,4.5307,4.5307,4.5307,4.5307,4.5307,4.5307,4.5307,4.5307,4.5307,4.5307,4.5307,4.5307,4.5927,4.6443,4.6443,4.7131,4.7704,4.7753,4.7816,4.7932,4.813,4.8256,4.8387,4.8516,4.8561,4.858,4.8541,4.8561,4.8561,4.8463,4.8502,4.8133,4.7279,4.724,4.6832,4.6021,4.6002,4.6071,4.6199,4.6196,4.6231,4.63,4.63,4.63,0.0,0.0,0.0,0.0,0.0,0.0,0.0,0.0,0.0,0.0,0.0,0.0,0.0,0.0,0.0,0.0,0.0,0.0,0.0,0.0,0.0,0.0,0.0,0.0,0.0,0.0,0.0,0.0,0.0,0.0,3.8707,3.8707,3.8707,3.8707,3.8707,3.8707,3.8707,3.9086,3.9865,4.1049,4.2083,4.3175,4.43,4.4995,4.5203,4.5057,4.5136,4.517,4.5181,4.5256,4.5254,4.5181,4.5275,4.5307,4.5307,4.5307,4.5307,4.5307,4.5307,4.5307,4.5307,4.5307,4.5307,4.5307,4.5307,4.5307,4.5307,4.5307,4.5307,4.5307,4.5307,4.5307,4.5307,4.5307,4.5307,4.5307,4.5307,4.5307,4.5307,4.5307,4.5946,4.65,4.65,4.7215,4.8048,4.8779,4.845,4.8417,4.92,4.933,4.9386,4.9435,4.992,5.0037,4.9479,4.994,4.9784,4.8677,4.9124,4.8794,4.7351,4.7293,4.689,4.6021,4.6002,4.6071,4.6199,4.6199,4.6234,4.63,4.63,4.63,0.0,0.0,0.0,0.0,0.0,0.0,0.0,0.0,0.0,0.0,0.0,0.0,0.0,0.0,0.0,0.0,0.0,0.0,0.0,0.0,0.0,0.0,0.0,0.0,0.0,0.0,0.0,0.0,0.0,0.0,3.8707,3.8707,3.8707,3.8707,3.8658,3.8624,3.8624,3.8704,3.9327,4.0493,4.1228,4.2178,4.3289,4.4303,4.4661,4.4528,4.4877,4.5026,4.5045,4.5136,4.5148,4.5095,4.5148,4.5213,4.5297,4.5254,4.5265,4.5307,4.5307,4.5307,4.5307,4.5307,4.5307,4.5307,4.5307,4.5307,4.5307,4.5307,4.5307,4.5307,4.5307,4.5307,4.5307,4.5307,4.5507,4.5698,4.5698,4.5698,4.5698,4.5698,4.6615,4.7379,4.7379,4.8086,4.8909,4.9654,4.9297,4.9266,5.0072,5.0222,5.0292,5.0328,5.0853,5.0969,5.0386,5.0872,5.0717,4.9551,5.0017,4.9687,4.823,4.8172,4.7628,4.6463,4.6443,4.6353,4.6177,4.6177,4.6196,4.6271,4.6271,4.6275,0.0,0.0,0.0,0.0,0.0,0.0,0.0,0.0,0.0,0.0,0.0,0.0,0.0,0.0,0.0,0.0,0.0,0.0,0.0,0.0,0.0,0.0,0.0,0.0,0.0,0.0,0.0,0.0,0.0,0.0,3.8707,3.8707,3.8707,3.8707,3.8575,3.851,3.851,3.8698,3.932,4.0369,4.0645,4.1343,4.2386,4.327,4.3668,4.3732,4.4516,4.4864,4.4883,4.4895,4.4986,4.5091,4.4962,4.508,4.5286,4.5159,4.5181,4.5307,4.5307,4.5307,4.5307,4.5307,4.5307,4.5307,4.5307,4.5307,4.5307,4.5307,4.5307,4.5307,4.5307,4.5307,4.5307,4.5307,4.5908,4.6481,4.65,4.6519,4.6538,4.6538,4.7933,4.911,4.911,4.9767,5.0302,5.0302,5.0421,5.0548,5.0687,5.0879,5.1048,5.119,5.1202,5.1202,5.1202,5.1202,5.1202,5.1202,5.1202,5.0814,4.9945,4.9906,4.9085,4.737,4.7312,4.6916,4.6132,4.6113,4.6119,4.6206,4.6206,4.6221,2.0126,0.0,0.0,0.0,0.0,0.0,0.0,0.0,0.0,0.0,0.0,0.0,0.0,0.0,0.0,0.0,0.0,0.0,0.0,0.0,0.0,0.0,0.0,0.0,0.0,0.0,0.0,0.0,0.0,3.8707,3.8707,3.8707,3.8707,3.8707,3.8575,3.851,3.851,3.851,3.882,3.9389,4.0146,4.0776,4.128,4.2286,4.3011,4.3427,4.3756,4.4165,4.4619,4.4808,4.4919,4.4955,4.5014,4.5148,4.5297,4.5265,4.5275,4.5307,4.5307,4.5307,4.5307,4.5307,4.5307,4.5307,4.5307,4.5307,4.5307,4.5307,4.5307,4.5307,4.5307,4.5307,4.5307,4.5307,4.5468,4.5793,4.6366,4.6997,4.7444,4.7444,4.8334,4.911,4.911,4.9767,5.0329,5.0432,5.0476,5.0606,5.0871,5.0971,5.1048,5.119,5.1202,5.1202,5.1202,5.1202,5.1202,5.1202,5.1202,5.0814,4.9945,4.9906,4.9382,4.8269,4.7628,4.7187,4.6969,4.6391,4.6127,4.6193,4.6198,4.6211,0.0,0.0,0.0,0.0,0.0,0.0,0.0,0.0,0.0,0.0,0.0,0.0,0.0,0.0,0.0,0.0,0.0,0.0,0.0,0.0,0.0,0.0,0.0,0.0,0.0,0.0,0.0,0.0,3.8707,3.8707,3.8707,3.8707,3.8673,3.8624,3.851,3.8446,3.8417,3.843,3.8572,3.88,3.9547,3.9981,4.0175,4.1236,4.2115,4.2787,4.3218,4.3853,4.4592,4.4745,4.4846,4.4907,4.4998,4.5136,4.5297,4.5243,4.5246,4.5307,4.5307,4.5307,4.5307,4.5307,4.5307,4.5307,4.5307,4.5307,4.5307,4.5307,4.5307,4.5307,4.5307,4.5307,4.5373,4.5717,4.608,4.6577,4.7398,4.8258,4.8735,4.8411,4.9022,4.9595,4.9595,4.9996,5.0337,5.0399,5.0421,5.0517,5.0839,5.0871,5.0959,5.1184,5.1202,5.1202,5.1202,5.1202,5.1202,5.1202,5.1202,5.0969,5.0464,5.0445,5.0037,4.9163,4.8638,4.8036,4.7293,4.6455,4.6089,4.6154,4.6193,4.6195,0.0,0.0,0.0,0.0,0.0,0.0,0.0,2.6237,0.0,0.0,0.0,0.0,0.0,0.0,0.0,0.0,0.0,0.0,0.0,0.0,0.0,0.0,0.0,0.0,0.0,0.0,0.0,3.8707,3.8692,3.8673,3.8707,3.8692,3.8609,3.851,3.843,3.8352,3.8307,3.8417,3.8478,3.851,3.8913,3.9156,3.9229,4.0194,4.1128,4.2042,4.2825,4.3732,4.4712,4.4725,4.4796,4.4919,4.4919,4.508,4.5286,4.517,4.5192,4.5307,4.5307,4.5307,4.5307,4.5307,4.5307,4.5307,4.5307,4.5307,4.5307,4.5307,4.5307,4.5307,4.5307,4.5307,4.5488,4.6309,4.7081,4.7933,4.8888,4.9652,4.9977,4.9358,4.9805,5.0302,5.0302,5.0302,5.0302,5.0302,5.0314,5.0421,5.067,5.0713,5.0859,5.1159,5.1202,5.1202,5.1202,5.1202,5.1202,5.1202,5.1202,5.1202,5.1202,5.1202,5.0833,5.0062,4.9945,4.9046,4.7293,4.6424,4.6027,4.6089,4.6154,4.6193,0.0,0.0,2.4805,0.0,0.0,0.0,0.0,2.419,0.0,0.0,0.0,0.0,0.0,0.0,0.0,0.0,0.0,0.0,0.0,0.0,0.0,0.0,0.0,0.0,0.0,0.0,0.0,3.8707,3.8609,3.8593,3.8692,3.8546,3.8462,3.851,3.8385,3.8305,3.8307,3.8274,3.8354,3.851,3.8585,3.884,3.9215,3.9418,4.0422,4.2004,4.2173,4.3186,4.4712,4.4827,4.4931,4.5068,4.5068,4.5159,4.5297,4.5275,4.5286,4.5307,4.5307,4.5307,4.5307,4.5307,4.5307,4.5307,4.5307,4.5307,4.5307,4.5307,4.5307,4.5307,4.5307,4.5307,4.5488,4.6309,4.6634,4.7188,4.8754,4.9224,4.948,4.9977,5.0187,5.0302,5.0302,5.0302,5.0302,5.0302,5.0388,5.0527,5.0678,5.0835,5.1007,5.119,5.1202,5.1202,5.1202,5.1202,5.1202,5.1202,5.1202,5.1202,5.1202,5.1202,5.1125,5.095,5.025,4.9046,4.7293,4.6424,4.6007,4.6017,4.6089,4.615,0.0,0.0,2.5815,2.5007,0.0,0.0,0.0,0.0,0.0,0.0,0.0,0.0,0.0,0.0,0.0,0.0,0.0,0.0,0.0,0.0,0.0,0.0,0.0,0.0,0.0,0.0,3.8593,3.8546,3.8528,3.8525,3.8609,3.8481,3.8415,3.8446,3.8354,3.829,3.8241,3.8225,3.8257,3.8336,3.8446,3.8615,3.8855,3.8989,4.0081,4.1856,4.1856,4.2964,4.4796,4.487,4.5033,4.5192,4.5192,4.5235,4.5307,4.5307,4.5307,4.5307,4.5307,4.5307,4.5307,4.5307,4.5307,4.5307,4.5307,4.5307,4.5307,4.5307,4.5307,4.5307,4.5307,4.5602,4.6118,4.6959,4.7474,4.8143,4.9423,4.9691,4.9824,5.0225,5.0302,5.0302,5.0302,5.0302,5.0302,5.0302,5.041,5.0538,5.0678,5.0871,5.1048,5.119,5.1202,5.1202,5.1202,5.1202,5.1202,5.1202,5.1202,5.1202,5.1202,5.1202,5.1202,5.1202,5.0328,4.9479,4.858,4.7725,4.6857,4.6002,4.6027,4.6084,0.0,0.0,0.0,0.0,0.0,2.4924,0.0,0.0,0.0,2.5574,0.0,0.0,0.0,0.0,0.0,0.0,0.0,0.0,0.0,0.0,0.0,0.0,0.0,0.0,0.0,0.0,0.0,3.838,3.8138,3.8133,3.8476,3.8399,3.8368,3.8385,3.8322,3.8241,3.8209,3.8209,3.8209,3.8209,3.8352,3.8462,3.851,3.8875,4.0,4.163,4.1841,4.302,4.4789,4.4846,4.4991,4.5224,4.5286,4.5307,4.5307,4.5307,4.5307,4.5307,4.5307,4.5307,4.5307,4.5307,4.5307,4.5307,4.5307,4.5307,4.5307,4.5307,4.5307,4.5345,4.5488,4.6003,4.6768,4.7799,4.8582,4.9308,5.013,5.0302,5.0302,5.0302,5.0302,5.0302,5.0302,5.0302,5.0302,5.0302,5.041,5.0538,5.0678,5.0871,5.1048,5.119,5.1202,5.1202,5.1202,5.1202,5.1202,5.1202,5.1202,5.1202,5.1202,5.1202,5.1202,5.1202,5.0503,5.0081,4.9906,4.9182,4.8036,4.6507,4.6507,4.6533,0.0,0.0,0.0,0.0,2.7989,0.0,0.0,0.0,0.0,2.3648,0.0,0.0,0.0,0.0,0.0,0.0,0.0,0.0,0.0,0.0,0.0,0.0,0.0,0.0,0.0,0.0,0.0,0.0,3.7023,3.6841,3.8326,3.8289,3.8241,3.8323,3.8259,3.8209,3.8209,3.8209,3.8209,3.8209,3.8224,3.8322,3.8528,3.9276,4.0241,4.141,4.2348,4.3355,4.4393,4.4621,4.4808,4.4967,4.5203,4.5307,4.5307,4.5307,4.5307,4.5307,4.5307,4.5307,4.5307,4.5307,4.5307,4.5307,4.5307,4.5307,4.5307,4.5307,4.5307,4.5449,4.6175,4.6424,4.692,4.8563,4.9033,4.9308,5.013,5.0302,5.0302,5.0302,5.0302,5.0302,5.0302,5.0302,5.0302,5.0302,5.041,5.0538,5.0678,5.0871,5.1048,5.119,5.1202,5.1202,5.1202,5.1202,5.1202,5.1202,5.1202,5.1202,5.1202,5.1202,5.1202,5.1202,5.1105,5.0678,4.9906,4.9809,4.9246,4.8308,4.8308,4.834,0.0,0.0,0.0,0.0,0.0,0.0,0.0,0.0,2.464,0.0,0.0,0.0,0.0,0.0,0.0,0.0,0.0,0.0,0.0,0.0,0.0,0.0,0.0,0.0,0.0,0.0,0.0,0.0,0.0,3.6412,3.759,3.8003,3.8242,3.8307,3.8224,3.8209,3.8209,3.8209,3.8209,3.8209,3.8209,3.8241,3.834,3.8685,3.9652,4.1103,4.1706,4.2865,4.4318,4.4581,4.477,4.4907,4.5014,4.5114,4.5192,4.5275,4.5307,4.5307,4.5307,4.5307,4.5307,4.5307,4.5307,4.5403,4.5851,4.6003,4.6099,4.6615,4.6748,4.6825,4.7169,4.7627,4.8181,4.8938,4.9461,4.9882,5.0225,5.0302,5.0302,5.0302,5.0302,5.0302,5.0302,5.0302,5.0302,5.0302,5.041,5.0538,5.0678,5.0871,5.1048,5.119,5.1202,5.1202,5.1202,5.1202,5.1202,5.1202,5.1202,5.1202,5.1202,5.1202,5.1202,5.1202,5.1202,5.1027,5.0658,5.0658,5.0464,5.0076,4.9066,4.861,3.2614,0.0,0.0,0.0,0.0,0.0,0.0,0.0,0.0,0.0,0.0,0.0,0.0,0.0,0.0,0.0,0.0,0.0,0.0,0.0,0.0,0.0,0.0,0.0,0.0,0.0,0.0,0.0,0.0,0.0,3.6985,3.7589,3.799,3.8256,3.8242,3.8209,3.8209,3.8209,3.8209,3.8209,3.8209,3.8209,3.8209,3.8444,3.9344,4.0821,4.1305,4.2508,4.4162,4.4412,4.464,4.4783,4.4821,4.4895,4.5003,4.5181,4.5254,4.5246,4.5297,4.5307,4.5307,4.5307,4.5307,4.5449,4.6252,4.65,4.6634,4.7272,4.7616,4.7788,4.7788,4.8449,4.9167,4.9366,4.9882,5.0302,5.0302,5.0302,5.0302,5.0302,5.0302,5.0302,5.0302,5.0302,5.0302,5.0302,5.041,5.0538,5.0678,5.0871,5.1048,5.119,5.1202,5.1202,5.1202,5.1202,5.1202,5.1202,5.1202,5.1202,5.1202,5.1202,5.1202,5.1202,5.1202,5.1202,5.1202,5.12,5.1206,5.1167,4.9904,4.9307,0.0,0.0,0.0,0.0,0.0,0.0,0.0,0.0,2.7475,0.0,0.0,0.0,0.0,0.0,0.0,0.0,0.0,0.0,0.0,0.0,0.0,0.0,0.0,0.0,0.0,0.0,0.0,0.0,0.0,0.0,3.6832,3.7031,3.7393,3.8172,3.8209,3.8209,3.8209,3.8209,3.8209,3.8209,3.8209,3.8209,3.8227,3.9007,3.9767,4.0564,4.1608,4.2687,4.3744,4.3999,4.4258,4.4528,4.4659,4.4712,4.4732,4.5003,4.5114,4.5125,4.5246,4.5307,4.5307,4.5307,4.5307,4.5449,4.6252,4.65,4.6519,4.6538,4.7139,4.7788,4.7788,4.8449,4.9301,5.0073,5.0283,5.0302,5.0302,5.0302,5.0302,5.0302,5.0302,5.0302,5.0302,5.0302,5.0302,5.0302,5.041,5.0538,5.0678,5.0871,5.1048,5.119,5.1202,5.1202,5.1202,5.1202,5.1202,5.1202,5.1202,5.1202,5.1202,5.1202,5.1202,5.1202,5.1202,5.1202,5.1202,5.12,5.1206,5.1206,5.1147,5.1128,0.0,0.0,3.5807,3.2271,0.0,0.0,0.0,0.0,0.0,0.0,0.0,0.0,0.0,0.0,0.0,0.0,0.0,0.0,0.0,0.0,0.0,0.0,0.0,0.0,0.0,0.0,0.0,0.0,0.0,0.0,0.0,3.6723,3.7375,3.8172,3.8209,3.8209,3.8209,3.8209,3.8209,3.8209,3.8209,3.8209,3.8227,3.9025,3.9804,4.0546,4.1645,4.2707,4.3712,4.3983,4.4262,4.4496,4.4537,4.4565,4.4592,4.4858,4.5014,4.5125,4.5246,4.5307,4.5307,4.5307,4.5307,4.5449,4.6252,4.6901,4.7483,4.8067,4.8812,4.9461,4.9461,4.9671,4.9824,4.9576,4.9901,5.0149,4.9614,4.992,5.0302,5.0302,5.0302,5.0302,5.0302,5.0302,5.0302,5.0302,5.041,5.0538,5.0678,5.0871,5.1048,5.119,5.1202,5.1202,5.1202,5.1202,5.1202,5.1202,5.1202,5.1202,5.1202,5.1202,5.1202,5.1202,5.1202,5.1202,5.1202,5.12,5.1211,5.1191,5.1292,5.1304,3.6813,3.7107,0.0,0.0,3.2632,0.0,0.0,0.0,0.0,0.0,0.0,0.0,0.0,0.0,0.0,0.0,0.0,0.0,0.0,0.0,0.0,0.0,0.0,0.0,0.0,0.0,2.8082,3.0799,0.0,0.0,0.0,0.0,3.6941,3.7756,3.8064,3.8209,3.8209,3.8209,3.8209,3.8209,3.8209,3.8209,3.8227,3.9025,3.9804,4.0546,4.154,4.2622,4.3712,4.3889,4.417,4.4501,4.4501,4.4501,4.4528,4.4751,4.4943,4.5114,4.5192,4.5265,4.5307,4.5307,4.5307,4.5507,4.6615,4.7349,4.7979,4.885,4.9671,5.0225,4.9939,5.0092,5.0168,4.9652,4.992,5.0168,4.9633,4.992,5.0302,5.0302,5.0302,5.0302,5.0302,5.0302,5.0302,5.0302,5.0445,5.0606,5.0687,5.091,5.1089,5.1196,5.1202,5.1202,5.1202,5.1202,5.1202,5.1202,5.1202,5.1202,5.1202,5.1202,5.1202,5.1202,5.1202,5.1194,5.1192,5.1211,5.1243,5.1265,5.1366,5.138]}]]